Wetterdaten: Donnerstag, 15.06.2017
Datum Zeit Temp. A. Pool Temp. Feuchte A. Luftdruck Regen Wind Richtung Richtung Sonnenschein ET UV Solar Taupunkt Windchill Windben Empfang
15.06.2017 00:00 17,1 C 25,0 C 67 % 1014,7 hPa 0,0 l/m 2,8 km/h (1 Bft) O-NO 64 0 min 0,000 mm 0,0 UV-I 0 W/m 10,9 C 17,1 C 6,4 km/h (2 Bft) 100,00 %
15.06.2017 00:02 17,1 C 25,0 C 67 % 1014,7 hPa 0,0 l/m 2,6 km/h (1 Bft) O-NO 64 0 min 0,000 mm 0,0 UV-I 0 W/m 10,9 C 17,1 C 3,2 km/h (1 Bft) 95,65 %
15.06.2017 00:04 17,1 C 25,0 C 67 % 1014,6 hPa 0,0 l/m 2,6 km/h (1 Bft) O-NO 64 0 min 0,000 mm 0,0 UV-I 0 W/m 10,9 C 17,1 C 4,8 km/h (1 Bft) 97,37 %
15.06.2017 00:06 17,1 C 25,0 C 67 % 1014,6 hPa 0,0 l/m 3,2 km/h (1 Bft) O-NO 64 0 min 0,000 mm 0,0 UV-I 0 W/m 10,9 C 17,1 C 6,4 km/h (2 Bft) 100,00 %
15.06.2017 00:09 17,1 C 25,0 C 67 % 1014,7 hPa 0,0 l/m 4,7 km/h (1 Bft) O-NO 69 0 min 0,000 mm 0,0 UV-I 0 W/m 10,9 C 17,1 C 6,4 km/h (2 Bft) 94,12 %
15.06.2017 00:10 17,1 C 25,0 C 67 % 1014,7 hPa 0,0 l/m 4,4 km/h (1 Bft) O-NO 63 0 min 0,000 mm 0,0 UV-I 0 W/m 10,9 C 17,1 C 6,4 km/h (2 Bft) 100,00 %
15.06.2017 00:12 17,1 C 25,0 C 67 % 1014,7 hPa 0,0 l/m 5,5 km/h (1 Bft) O-NO 76 0 min 0,000 mm 0,0 UV-I 0 W/m 10,9 C 17,1 C 8,0 km/h (2 Bft) 98,00 %
15.06.2017 00:14 17,1 C 25,0 C 67 % 1014,7 hPa 0,0 l/m 5,0 km/h (1 Bft) O-NO 69 0 min 0,000 mm 0,0 UV-I 0 W/m 10,9 C 17,1 C 6,4 km/h (2 Bft) 97,22 %
15.06.2017 00:16 17,0 C 25,0 C 67 % 1014,8 hPa 0,0 l/m 5,2 km/h (1 Bft) NO 55 0 min 0,000 mm 0,0 UV-I 0 W/m 10,8 C 17,0 C 8,0 km/h (2 Bft) 100,00 %
15.06.2017 00:18 17,0 C 25,0 C 67 % 1014,8 hPa 0,0 l/m 4,9 km/h (1 Bft) O-NO 70 0 min 0,000 mm 0,0 UV-I 0 W/m 10,8 C 17,0 C 8,0 km/h (2 Bft) 94,87 %
15.06.2017 00:20 17,0 C 25,0 C 68 % 1014,9 hPa 0,0 l/m 5,8 km/h (2 Bft) O-NO 66 0 min 0,000 mm 0,0 UV-I 0 W/m 11,0 C 17,0 C 8,0 km/h (2 Bft) 100,00 %
15.06.2017 00:22 16,9 C 25,0 C 67 % 1014,9 hPa 0,0 l/m 4,0 km/h (1 Bft) O-NO 62 0 min 0,000 mm 0,0 UV-I 0 W/m 10,7 C 16,9 C 6,4 km/h (2 Bft) 100,00 %
15.06.2017 00:24 16,9 C 25,0 C 67 % 1014,9 hPa 0,0 l/m 5,3 km/h (1 Bft) O-NO 65 0 min 0,000 mm 0,0 UV-I 0 W/m 10,7 C 16,9 C 9,7 km/h (2 Bft) 100,00 %
15.06.2017 00:26 16,9 C 25,0 C 68 % 1014,9 hPa 0,0 l/m 4,6 km/h (1 Bft) O-NO 60 0 min 0,000 mm 0,0 UV-I 0 W/m 11,0 C 16,9 C 6,4 km/h (2 Bft) 100,00 %
15.06.2017 00:28 16,9 C 25,0 C 68 % 1014,9 hPa 0,0 l/m 5,9 km/h (2 Bft) O-NO 69 0 min 0,000 mm 0,0 UV-I 0 W/m 11,0 C 16,9 C 8,0 km/h (2 Bft) 95,45 %
15.06.2017 00:30 16,8 C 25,0 C 68 % 1015,0 hPa 0,0 l/m 6,5 km/h (2 Bft) O-NO 71 0 min 0,000 mm 0,0 UV-I 0 W/m 10,9 C 16,8 C 8,0 km/h (2 Bft) 100,00 %
15.06.2017 00:32 16,8 C 25,0 C 68 % 1015,0 hPa 0,0 l/m 5,9 km/h (2 Bft) O-NO 65 0 min 0,000 mm 0,0 UV-I 0 W/m 10,9 C 16,8 C 9,7 km/h (2 Bft) 97,14 %
15.06.2017 00:34 16,8 C 25,0 C 68 % 1015,0 hPa 0,0 l/m 5,4 km/h (1 Bft) O-NO 70 0 min 0,000 mm 0,0 UV-I 0 W/m 10,9 C 16,8 C 8,0 km/h (2 Bft) 100,00 %
15.06.2017 00:36 16,7 C 25,0 C 68 % 1015,0 hPa 0,0 l/m 5,9 km/h (2 Bft) O-NO 67 0 min 0,000 mm 0,0 UV-I 0 W/m 10,8 C 16,7 C 8,0 km/h (2 Bft) 97,56 %
15.06.2017 00:38 16,7 C 25,0 C 68 % 1015,0 hPa 0,0 l/m 6,5 km/h (2 Bft) O-NO 68 0 min 0,000 mm 0,0 UV-I 0 W/m 10,8 C 16,7 C 9,7 km/h (2 Bft) 94,34 %
15.06.2017 00:40 16,8 C 25,0 C 68 % 1015,0 hPa 0,0 l/m 7,5 km/h (2 Bft) O 84 0 min 0,000 mm 0,0 UV-I 0 W/m 10,9 C 16,2 C 12,9 km/h (3 Bft) 100,00 %
15.06.2017 00:42 16,9 C 25,0 C 68 % 1015,0 hPa 0,0 l/m 11,0 km/h (2 Bft) O-NO 78 0 min 0,000 mm 0,0 UV-I 0 W/m 11,0 C 14,8 C 14,5 km/h (3 Bft) 97,37 %
15.06.2017 00:44 16,9 C 25,0 C 68 % 1015,0 hPa 0,0 l/m 8,4 km/h (2 Bft) O 94 0 min 0,000 mm 0,0 UV-I 0 W/m 11,0 C 15,9 C 14,5 km/h (3 Bft) 100,00 %
15.06.2017 00:46 17,0 C 25,0 C 68 % 1015,1 hPa 0,0 l/m 5,4 km/h (1 Bft) O 93 0 min 0,000 mm 0,0 UV-I 0 W/m 11,0 C 17,0 C 8,0 km/h (2 Bft) 98,00 %
15.06.2017 00:48 17,1 C 25,0 C 68 % 1015,1 hPa 0,0 l/m 8,0 km/h (2 Bft) O 81 0 min 0,000 mm 0,0 UV-I 0 W/m 11,1 C 16,3 C 11,3 km/h (2 Bft) 97,37 %
15.06.2017 00:50 17,1 C 25,0 C 68 % 1015,1 hPa 0,0 l/m 7,6 km/h (2 Bft) O 80 0 min 0,000 mm 0,0 UV-I 0 W/m 11,1 C 16,5 C 11,3 km/h (2 Bft) 98,11 %
15.06.2017 00:52 17,0 C 25,0 C 68 % 1015,1 hPa 0,0 l/m 7,1 km/h (2 Bft) O-NO 59 0 min 0,000 mm 0,0 UV-I 0 W/m 11,0 C 16,6 C 12,9 km/h (3 Bft) 97,87 %
15.06.2017 00:54 17,1 C 25,0 C 68 % 1015,1 hPa 0,0 l/m 6,7 km/h (2 Bft) O-NO 71 0 min 0,000 mm 0,0 UV-I 0 W/m 11,1 C 17,0 C 11,3 km/h (2 Bft) 100,00 %
15.06.2017 00:56 17,1 C 25,0 C 68 % 1015,2 hPa 0,0 l/m 9,5 km/h (2 Bft) O 91 0 min 0,000 mm 0,0 UV-I 0 W/m 11,1 C 15,6 C 12,9 km/h (3 Bft) 98,46 %
15.06.2017 00:58 17,2 C 25,0 C 68 % 1015,1 hPa 0,0 l/m 7,4 km/h (2 Bft) O 94 0 min 0,000 mm 0,0 UV-I 0 W/m 11,2 C 16,7 C 11,3 km/h (2 Bft) 100,00 %
15.06.2017 01:00 17,2 C 25,0 C 67 % 1015,1 hPa 0,0 l/m 6,9 km/h (2 Bft) O-NO 59 0 min 0,025 mm 0,0 UV-I 0 W/m 11,0 C 17,0 C 11,3 km/h (2 Bft) 98,00 %
15.06.2017 01:02 17,2 C 25,0 C 68 % 1015,1 hPa 0,0 l/m 9,4 km/h (2 Bft) O-NO 63 0 min 0,000 mm 0,0 UV-I 0 W/m 11,2 C 15,8 C 16,1 km/h (3 Bft) 100,00 %
15.06.2017 01:04 17,2 C 25,0 C 67 % 1015,1 hPa 0,0 l/m 9,5 km/h (2 Bft) O 99 0 min 0,000 mm 0,0 UV-I 0 W/m 11,0 C 15,8 C 14,5 km/h (3 Bft) 100,00 %
15.06.2017 01:06 17,2 C 24,4 C 67 % 1015,1 hPa 0,0 l/m 9,2 km/h (2 Bft) O-NO 69 0 min 0,000 mm 0,0 UV-I 0 W/m 11,0 C 15,9 C 12,9 km/h (3 Bft) 97,87 %
15.06.2017 01:08 17,2 C 24,4 C 67 % 1015,1 hPa 0,0 l/m 9,7 km/h (2 Bft) NO 54 0 min 0,000 mm 0,0 UV-I 0 W/m 11,0 C 15,7 C 14,5 km/h (3 Bft) 98,00 %
15.06.2017 01:10 17,2 C 25,0 C 67 % 1015,1 hPa 0,0 l/m 9,7 km/h (2 Bft) O 85 0 min 0,000 mm 0,0 UV-I 0 W/m 11,0 C 15,7 C 14,5 km/h (3 Bft) 100,00 %
15.06.2017 01:12 17,2 C 25,0 C 68 % 1015,1 hPa 0,0 l/m 10,3 km/h (2 Bft) O-NO 65 0 min 0,000 mm 0,0 UV-I 0 W/m 11,2 C 15,4 C 14,5 km/h (3 Bft) 98,00 %
15.06.2017 01:14 17,2 C 25,0 C 67 % 1015,1 hPa 0,0 l/m 9,4 km/h (2 Bft) O 86 0 min 0,000 mm 0,0 UV-I 0 W/m 11,0 C 15,8 C 12,9 km/h (3 Bft) 98,21 %
15.06.2017 01:16 17,1 C 25,0 C 68 % 1015,1 hPa 0,0 l/m 10,2 km/h (2 Bft) O-NO 74 0 min 0,000 mm 0,0 UV-I 0 W/m 11,1 C 15,4 C 16,1 km/h (3 Bft) 97,73 %
15.06.2017 01:18 17,1 C 25,0 C 68 % 1015,1 hPa 0,0 l/m 11,0 km/h (2 Bft) O 85 0 min 0,000 mm 0,0 UV-I 0 W/m 11,1 C 15,1 C 14,5 km/h (3 Bft) 98,00 %
15.06.2017 01:20 17,1 C 25,0 C 68 % 1015,1 hPa 0,0 l/m 10,7 km/h (2 Bft) O-NO 70 0 min 0,000 mm 0,0 UV-I 0 W/m 11,1 C 15,2 C 14,5 km/h (3 Bft) 100,00 %
15.06.2017 01:22 17,0 C 25,0 C 68 % 1015,1 hPa 0,0 l/m 7,9 km/h (2 Bft) O-NO 60 0 min 0,000 mm 0,0 UV-I 0 W/m 11,0 C 16,2 C 12,9 km/h (3 Bft) 92,45 %
15.06.2017 01:24 16,9 C 25,0 C 68 % 1015,1 hPa 0,0 l/m 7,9 km/h (2 Bft) O-NO 61 0 min 0,000 mm 0,0 UV-I 0 W/m 11,0 C 16,1 C 12,9 km/h (3 Bft) 96,00 %
15.06.2017 01:26 16,9 C 25,0 C 68 % 1015,1 hPa 0,0 l/m 8,3 km/h (2 Bft) O-NO 68 0 min 0,000 mm 0,0 UV-I 0 W/m 11,0 C 16,0 C 11,3 km/h (2 Bft) 95,12 %
15.06.2017 01:28 16,9 C 25,0 C 68 % 1015,1 hPa 0,0 l/m 11,0 km/h (2 Bft) O 84 0 min 0,000 mm 0,0 UV-I 0 W/m 11,0 C 14,8 C 14,5 km/h (3 Bft) 93,18 %
15.06.2017 01:30 16,9 C 25,0 C 68 % 1015,1 hPa 0,0 l/m 10,5 km/h (2 Bft) O 90 0 min 0,000 mm 0,0 UV-I 0 W/m 11,0 C 15,0 C 16,1 km/h (3 Bft) 97,62 %
15.06.2017 01:32 16,9 C 25,0 C 68 % 1015,1 hPa 0,0 l/m 10,6 km/h (2 Bft) O-NO 68 0 min 0,000 mm 0,0 UV-I 0 W/m 11,0 C 15,0 C 16,1 km/h (3 Bft) 96,55 %
15.06.2017 01:34 16,9 C 24,4 C 68 % 1015,1 hPa 0,0 l/m 8,2 km/h (2 Bft) O-NO 61 0 min 0,000 mm 0,0 UV-I 0 W/m 11,0 C 16,0 C 14,5 km/h (3 Bft) 97,44 %
15.06.2017 01:36 16,9 C 24,4 C 68 % 1015,2 hPa 0,0 l/m 9,4 km/h (2 Bft) O-NO 69 0 min 0,000 mm 0,0 UV-I 0 W/m 11,0 C 15,5 C 14,5 km/h (3 Bft) 96,00 %
15.06.2017 01:38 16,9 C 24,4 C 68 % 1015,1 hPa 0,0 l/m 9,4 km/h (2 Bft) O 84 0 min 0,000 mm 0,0 UV-I 0 W/m 11,0 C 15,5 C 14,5 km/h (3 Bft) 93,62 %
15.06.2017 01:40 16,9 C 24,4 C 68 % 1015,1 hPa 0,0 l/m 8,9 km/h (2 Bft) O-NO 64 0 min 0,000 mm 0,0 UV-I 0 W/m 11,0 C 15,7 C 16,1 km/h (3 Bft) 100,00 %
15.06.2017 01:42 16,8 C 24,4 C 68 % 1015,2 hPa 0,0 l/m 9,6 km/h (2 Bft) O-NO 74 0 min 0,000 mm 0,0 UV-I 0 W/m 10,9 C 15,3 C 16,1 km/h (3 Bft) 94,64 %
15.06.2017 01:44 16,8 C 24,4 C 68 % 1015,3 hPa 0,0 l/m 9,6 km/h (2 Bft) O 84 0 min 0,000 mm 0,0 UV-I 0 W/m 10,9 C 15,3 C 14,5 km/h (3 Bft) 92,11 %
15.06.2017 01:46 16,7 C 24,4 C 68 % 1015,2 hPa 0,0 l/m 7,3 km/h (2 Bft) O-NO 78 0 min 0,000 mm 0,0 UV-I 0 W/m 10,8 C 16,2 C 12,9 km/h (3 Bft) 96,23 %
15.06.2017 01:48 16,7 C 24,4 C 68 % 1015,3 hPa 0,0 l/m 9,1 km/h (2 Bft) O-NO 74 0 min 0,000 mm 0,0 UV-I 0 W/m 10,8 C 15,4 C 17,7 km/h (3 Bft) 95,74 %
15.06.2017 01:50 16,6 C 24,4 C 69 % 1015,2 hPa 0,0 l/m 5,5 km/h (1 Bft) NO 38 0 min 0,000 mm 0,0 UV-I 0 W/m 10,9 C 16,6 C 8,0 km/h (2 Bft) 98,00 %
15.06.2017 01:52 16,4 C 25,0 C 70 % 1015,3 hPa 0,0 l/m 6,1 km/h (2 Bft) O-NO 59 0 min 0,000 mm 0,0 UV-I 0 W/m 10,9 C 16,4 C 9,7 km/h (2 Bft) 93,62 %
15.06.2017 01:54 16,3 C 24,4 C 70 % 1015,2 hPa 0,0 l/m 6,5 km/h (2 Bft) NO 53 0 min 0,000 mm 0,0 UV-I 0 W/m 10,8 C 16,3 C 12,9 km/h (3 Bft) 91,49 %
15.06.2017 01:56 16,2 C 24,4 C 70 % 1015,2 hPa 0,0 l/m 7,0 km/h (2 Bft) NO 45 0 min 0,000 mm 0,0 UV-I 0 W/m 10,7 C 15,9 C 9,7 km/h (2 Bft) 92,68 %
15.06.2017 01:58 16,1 C 24,4 C 71 % 1015,2 hPa 0,0 l/m 5,9 km/h (2 Bft) O-NO 63 0 min 0,000 mm 0,0 UV-I 0 W/m 10,8 C 16,1 C 9,7 km/h (2 Bft) 94,34 %
15.06.2017 02:00 15,9 C 24,4 C 71 % 1015,2 hPa 0,0 l/m 7,9 km/h (2 Bft) NO 56 0 min 0,051 mm 0,0 UV-I 0 W/m 10,6 C 15,1 C 16,1 km/h (3 Bft) 97,37 %
15.06.2017 02:02 15,8 C 24,4 C 72 % 1015,2 hPa 0,0 l/m 6,9 km/h (2 Bft) NO 51 0 min 0,000 mm 0,0 UV-I 0 W/m 10,8 C 15,5 C 11,3 km/h (2 Bft) 96,23 %
15.06.2017 02:04 15,6 C 24,4 C 72 % 1015,2 hPa 0,0 l/m 6,8 km/h (2 Bft) NO 42 0 min 0,000 mm 0,0 UV-I 0 W/m 10,6 C 15,4 C 9,7 km/h (2 Bft) 94,00 %
15.06.2017 02:06 15,6 C 24,4 C 73 % 1015,1 hPa 0,0 l/m 7,3 km/h (2 Bft) NO 49 0 min 0,000 mm 0,0 UV-I 0 W/m 10,8 C 15,1 C 11,3 km/h (2 Bft) 97,37 %
15.06.2017 02:08 15,4 C 24,4 C 73 % 1015,1 hPa 0,0 l/m 5,7 km/h (1 Bft) NO 56 0 min 0,000 mm 0,0 UV-I 0 W/m 10,6 C 15,4 C 8,0 km/h (2 Bft) 95,74 %
15.06.2017 02:10 15,4 C 25,0 C 73 % 1015,2 hPa 0,0 l/m 5,4 km/h (1 Bft) NO 42 0 min 0,000 mm 0,0 UV-I 0 W/m 10,6 C 15,4 C 8,0 km/h (2 Bft) 96,43 %
15.06.2017 02:12 15,4 C 24,4 C 73 % 1015,2 hPa 0,0 l/m 4,1 km/h (1 Bft) NO 41 0 min 0,000 mm 0,0 UV-I 0 W/m 10,6 C 15,4 C 6,4 km/h (2 Bft) 94,87 %
15.06.2017 02:14 15,3 C 24,4 C 73 % 1015,1 hPa 0,0 l/m 4,5 km/h (1 Bft) NO 52 0 min 0,000 mm 0,0 UV-I 0 W/m 10,5 C 15,3 C 6,4 km/h (2 Bft) 96,23 %
15.06.2017 02:16 15,3 C 25,0 C 73 % 1015,2 hPa 0,0 l/m 5,1 km/h (1 Bft) O-NO 75 0 min 0,000 mm 0,0 UV-I 0 W/m 10,5 C 15,3 C 8,0 km/h (2 Bft) 97,56 %
15.06.2017 02:18 15,3 C 25,0 C 73 % 1015,2 hPa 0,0 l/m 4,7 km/h (1 Bft) NO 46 0 min 0,000 mm 0,0 UV-I 0 W/m 10,5 C 15,3 C 8,0 km/h (2 Bft) 95,74 %
15.06.2017 02:20 15,3 C 25,6 C 73 % 1015,2 hPa 0,0 l/m 5,9 km/h (2 Bft) NO 54 0 min 0,000 mm 0,0 UV-I 0 W/m 10,5 C 15,3 C 8,0 km/h (2 Bft) 98,21 %
15.06.2017 02:22 15,3 C 24,4 C 73 % 1015,2 hPa 0,0 l/m 6,2 km/h (2 Bft) O-NO 69 0 min 0,000 mm 0,0 UV-I 0 W/m 10,5 C 15,3 C 8,0 km/h (2 Bft) 95,24 %
15.06.2017 02:24 15,3 C 24,4 C 73 % 1015,2 hPa 0,0 l/m 5,2 km/h (1 Bft) O-NO 58 0 min 0,000 mm 0,0 UV-I 0 W/m 10,5 C 15,3 C 6,4 km/h (2 Bft) 96,00 %
15.06.2017 02:26 15,2 C 24,4 C 73 % 1015,2 hPa 0,0 l/m 4,8 km/h (1 Bft) NO 47 0 min 0,000 mm 0,0 UV-I 0 W/m 10,4 C 15,2 C 8,0 km/h (2 Bft) 97,37 %
15.06.2017 02:28 15,2 C 25,0 C 73 % 1015,2 hPa 0,0 l/m 6,1 km/h (2 Bft) NO 37 0 min 0,000 mm 0,0 UV-I 0 W/m 10,4 C 15,2 C 9,7 km/h (2 Bft) 96,23 %
15.06.2017 02:30 15,2 C 24,4 C 73 % 1015,2 hPa 0,0 l/m 5,3 km/h (1 Bft) O-NO 65 0 min 0,000 mm 0,0 UV-I 0 W/m 10,4 C 15,2 C 9,7 km/h (2 Bft) 97,56 %
15.06.2017 02:32 15,2 C 24,4 C 73 % 1015,2 hPa 0,0 l/m 5,2 km/h (1 Bft) O-NO 61 0 min 0,000 mm 0,0 UV-I 0 W/m 10,4 C 15,2 C 8,0 km/h (2 Bft) 94,00 %
15.06.2017 02:34 15,2 C 24,4 C 73 % 1015,1 hPa 0,0 l/m 5,5 km/h (1 Bft) O-NO 65 0 min 0,000 mm 0,0 UV-I 0 W/m 10,4 C 15,2 C 9,7 km/h (2 Bft) 95,45 %
15.06.2017 02:36 15,1 C 24,4 C 74 % 1015,2 hPa 0,0 l/m 5,2 km/h (1 Bft) O-NO 57 0 min 0,000 mm 0,0 UV-I 0 W/m 10,5 C 15,1 C 6,4 km/h (2 Bft) 97,87 %
15.06.2017 02:38 15,1 C 24,4 C 74 % 1015,2 hPa 0,0 l/m 6,5 km/h (2 Bft) O-NO 57 0 min 0,000 mm 0,0 UV-I 0 W/m 10,5 C 15,1 C 9,7 km/h (2 Bft) 97,56 %
15.06.2017 02:40 15,1 C 25,0 C 74 % 1015,2 hPa 0,0 l/m 6,1 km/h (2 Bft) NO 54 0 min 0,000 mm 0,0 UV-I 0 W/m 10,5 C 15,1 C 8,0 km/h (2 Bft) 98,25 %
15.06.2017 02:42 15,1 C 24,4 C 74 % 1015,1 hPa 0,0 l/m 5,5 km/h (1 Bft) O-NO 58 0 min 0,000 mm 0,0 UV-I 0 W/m 10,5 C 15,1 C 8,0 km/h (2 Bft) 97,62 %
15.06.2017 02:44 15,0 C 24,4 C 74 % 1015,0 hPa 0,0 l/m 6,2 km/h (2 Bft) NO 43 0 min 0,000 mm 0,0 UV-I 0 W/m 10,4 C 15,0 C 8,0 km/h (2 Bft) 92,45 %
15.06.2017 02:46 14,9 C 24,4 C 74 % 1015,1 hPa 0,0 l/m 6,3 km/h (2 Bft) O-NO 68 0 min 0,000 mm 0,0 UV-I 0 W/m 10,3 C 14,9 C 8,0 km/h (2 Bft) 95,12 %
15.06.2017 02:48 14,8 C 24,4 C 74 % 1015,1 hPa 0,0 l/m 6,9 km/h (2 Bft) NO 54 0 min 0,000 mm 0,0 UV-I 0 W/m 10,2 C 14,5 C 9,7 km/h (2 Bft) 96,00 %
15.06.2017 02:50 14,8 C 25,0 C 74 % 1015,1 hPa 0,0 l/m 6,3 km/h (2 Bft) O-NO 69 0 min 0,000 mm 0,0 UV-I 0 W/m 10,2 C 14,8 C 8,0 km/h (2 Bft) 95,74 %
15.06.2017 02:52 14,8 C 24,4 C 74 % 1015,1 hPa 0,0 l/m 5,9 km/h (2 Bft) NO 54 0 min 0,000 mm 0,0 UV-I 0 W/m 10,2 C 14,8 C 8,0 km/h (2 Bft) 97,92 %
15.06.2017 02:54 14,8 C 24,4 C 74 % 1015,1 hPa 0,0 l/m 6,5 km/h (2 Bft) NO 53 0 min 0,000 mm 0,0 UV-I 0 W/m 10,2 C 14,8 C 8,0 km/h (2 Bft) 97,73 %
15.06.2017 02:56 14,9 C 24,4 C 74 % 1015,1 hPa 0,0 l/m 7,2 km/h (2 Bft) O-NO 57 0 min 0,000 mm 0,0 UV-I 0 W/m 10,3 C 14,4 C 9,7 km/h (2 Bft) 100,00 %
15.06.2017 02:58 14,9 C 24,4 C 73 % 1015,1 hPa 0,0 l/m 7,4 km/h (2 Bft) O-NO 68 0 min 0,000 mm 0,0 UV-I 0 W/m 10,1 C 14,3 C 9,7 km/h (2 Bft) 98,00 %
15.06.2017 03:00 14,9 C 24,4 C 73 % 1015,1 hPa 0,0 l/m 6,4 km/h (2 Bft) O-NO 57 0 min 0,026 mm 0,0 UV-I 0 W/m 10,1 C 14,9 C 8,0 km/h (2 Bft) 100,00 %
15.06.2017 03:02 14,9 C 24,4 C 73 % 1015,1 hPa 0,0 l/m 6,8 km/h (2 Bft) O-NO 63 0 min 0,000 mm 0,0 UV-I 0 W/m 10,1 C 14,7 C 9,7 km/h (2 Bft) 98,00 %
15.06.2017 03:04 15,0 C 24,4 C 72 % 1015,1 hPa 0,0 l/m 5,9 km/h (2 Bft) O-NO 63 0 min 0,000 mm 0,0 UV-I 0 W/m 10,0 C 15,0 C 8,0 km/h (2 Bft) 98,00 %
15.06.2017 03:06 15,1 C 25,0 C 72 % 1015,0 hPa 0,0 l/m 7,2 km/h (2 Bft) O-NO 68 0 min 0,000 mm 0,0 UV-I 0 W/m 10,1 C 14,6 C 9,7 km/h (2 Bft) 97,37 %
15.06.2017 03:08 15,1 C 24,4 C 72 % 1015,1 hPa 0,0 l/m 6,6 km/h (2 Bft) O-NO 57 0 min 0,000 mm 0,0 UV-I 0 W/m 10,1 C 15,0 C 9,7 km/h (2 Bft) 96,00 %
15.06.2017 03:10 15,1 C 25,0 C 72 % 1015,0 hPa 0,0 l/m 6,9 km/h (2 Bft) O-NO 63 0 min 0,000 mm 0,0 UV-I 0 W/m 10,1 C 14,8 C 11,3 km/h (2 Bft) 97,73 %
15.06.2017 03:12 15,1 C 24,4 C 72 % 1015,0 hPa 0,0 l/m 5,6 km/h (1 Bft) O-NO 65 0 min 0,000 mm 0,0 UV-I 0 W/m 10,1 C 15,1 C 8,0 km/h (2 Bft) 97,56 %
15.06.2017 03:14 15,0 C 24,4 C 72 % 1015,0 hPa 0,0 l/m 5,6 km/h (1 Bft) NO 46 0 min 0,000 mm 0,0 UV-I 0 W/m 10,0 C 15,0 C 8,0 km/h (2 Bft) 98,11 %
15.06.2017 03:16 14,9 C 24,4 C 73 % 1015,0 hPa 0,0 l/m 6,6 km/h (2 Bft) NO 47 0 min 0,000 mm 0,0 UV-I 0 W/m 10,1 C 14,8 C 9,7 km/h (2 Bft) 98,00 %
15.06.2017 03:18 14,7 C 25,0 C 73 % 1015,0 hPa 0,0 l/m 6,6 km/h (2 Bft) NO 44 0 min 0,000 mm 0,0 UV-I 0 W/m 9,9 C 14,6 C 9,7 km/h (2 Bft) 97,56 %
15.06.2017 03:20 14,5 C 24,4 C 74 % 1015,0 hPa 0,0 l/m 6,6 km/h (2 Bft) NO 50 0 min 0,000 mm 0,0 UV-I 0 W/m 9,9 C 14,4 C 8,0 km/h (2 Bft) 98,11 %
15.06.2017 03:22 14,4 C 24,4 C 75 % 1014,9 hPa 0,0 l/m 5,8 km/h (2 Bft) NO 56 0 min 0,000 mm 0,0 UV-I 0 W/m 10,0 C 14,4 C 8,0 km/h (2 Bft) 100,00 %
15.06.2017 03:24 14,3 C 24,4 C 75 % 1014,9 hPa 0,0 l/m 4,5 km/h (1 Bft) NO 50 0 min 0,000 mm 0,0 UV-I 0 W/m 9,9 C 14,3 C 6,4 km/h (2 Bft) 98,11 %
15.06.2017 03:26 14,3 C 24,4 C 75 % 1014,9 hPa 0,0 l/m 5,7 km/h (1 Bft) O-NO 60 0 min 0,000 mm 0,0 UV-I 0 W/m 9,9 C 14,3 C 9,7 km/h (2 Bft) 98,11 %
15.06.2017 03:28 14,4 C 24,4 C 75 % 1014,9 hPa 0,0 l/m 4,9 km/h (1 Bft) NO 52 0 min 0,000 mm 0,0 UV-I 0 W/m 10,0 C 14,4 C 6,4 km/h (2 Bft) 97,87 %
15.06.2017 03:30 14,4 C 24,4 C 74 % 1014,9 hPa 0,0 l/m 5,6 km/h (1 Bft) NO 53 0 min 0,000 mm 0,0 UV-I 0 W/m 9,8 C 14,4 C 8,0 km/h (2 Bft) 94,44 %
15.06.2017 03:32 14,4 C 24,4 C 75 % 1014,9 hPa 0,0 l/m 4,8 km/h (1 Bft) O-NO 61 0 min 0,000 mm 0,0 UV-I 0 W/m 10,0 C 14,4 C 9,7 km/h (2 Bft) 98,11 %
15.06.2017 03:34 14,4 C 24,4 C 75 % 1014,9 hPa 0,0 l/m 4,4 km/h (1 Bft) NO 53 0 min 0,000 mm 0,0 UV-I 0 W/m 10,0 C 14,4 C 6,4 km/h (2 Bft) 97,56 %
15.06.2017 03:36 14,3 C 24,4 C 75 % 1014,9 hPa 0,0 l/m 4,6 km/h (1 Bft) O-NO 59 0 min 0,000 mm 0,0 UV-I 0 W/m 9,9 C 14,3 C 6,4 km/h (2 Bft) 98,00 %
15.06.2017 03:38 14,3 C 24,4 C 75 % 1014,9 hPa 0,0 l/m 5,5 km/h (1 Bft) NO 53 0 min 0,000 mm 0,0 UV-I 0 W/m 9,9 C 14,3 C 8,0 km/h (2 Bft) 95,74 %
15.06.2017 03:40 14,3 C 24,4 C 75 % 1014,8 hPa 0,0 l/m 5,2 km/h (1 Bft) NO 48 0 min 0,000 mm 0,0 UV-I 0 W/m 9,9 C 14,3 C 8,0 km/h (2 Bft) 95,45 %
15.06.2017 03:42 14,3 C 24,4 C 75 % 1014,8 hPa 0,0 l/m 4,4 km/h (1 Bft) O-NO 71 0 min 0,000 mm 0,0 UV-I 0 W/m 9,9 C 14,3 C 6,4 km/h (2 Bft) 96,23 %
15.06.2017 03:44 14,2 C 24,4 C 75 % 1014,8 hPa 0,0 l/m 5,7 km/h (1 Bft) NO 49 0 min 0,000 mm 0,0 UV-I 0 W/m 9,8 C 14,2 C 8,0 km/h (2 Bft) 92,00 %
15.06.2017 03:46 14,1 C 24,4 C 76 % 1014,8 hPa 0,0 l/m 5,6 km/h (1 Bft) O-NO 58 0 min 0,000 mm 0,0 UV-I 0 W/m 9,9 C 14,1 C 9,7 km/h (2 Bft) 97,37 %
15.06.2017 03:48 14,1 C 24,4 C 76 % 1014,8 hPa 0,0 l/m 4,5 km/h (1 Bft) O-NO 69 0 min 0,000 mm 0,0 UV-I 0 W/m 9,9 C 14,1 C 6,4 km/h (2 Bft) 95,74 %
15.06.2017 03:50 14,1 C 24,4 C 76 % 1014,8 hPa 0,0 l/m 5,3 km/h (1 Bft) O-NO 61 0 min 0,000 mm 0,0 UV-I 0 W/m 9,9 C 14,1 C 6,4 km/h (2 Bft) 97,73 %
15.06.2017 03:52 14,1 C 24,4 C 76 % 1014,9 hPa 0,0 l/m 5,4 km/h (1 Bft) O-NO 64 0 min 0,000 mm 0,0 UV-I 0 W/m 9,9 C 14,1 C 6,4 km/h (2 Bft) 96,43 %
15.06.2017 03:54 14,2 C 24,4 C 75 % 1014,8 hPa 0,0 l/m 4,5 km/h (1 Bft) O-NO 63 0 min 0,000 mm 0,0 UV-I 0 W/m 9,8 C 14,2 C 6,4 km/h (2 Bft) 96,15 %
15.06.2017 03:56 14,2 C 24,4 C 75 % 1014,9 hPa 0,0 l/m 3,8 km/h (1 Bft) O-NO 63 0 min 0,000 mm 0,0 UV-I 0 W/m 9,8 C 14,2 C 6,4 km/h (2 Bft) 96,77 %
15.06.2017 03:58 14,3 C 24,4 C 75 % 1014,9 hPa 0,0 l/m 4,7 km/h (1 Bft) O-NO 64 0 min 0,000 mm 0,0 UV-I 0 W/m 9,9 C 14,3 C 6,4 km/h (2 Bft) 94,00 %
15.06.2017 04:00 14,3 C 24,4 C 74 % 1014,9 hPa 0,0 l/m 4,6 km/h (1 Bft) O-NO 64 0 min 0,025 mm 0,0 UV-I 0 W/m 9,7 C 14,3 C 6,4 km/h (2 Bft) 96,00 %
15.06.2017 04:02 14,4 C 24,4 C 74 % 1014,8 hPa 0,0 l/m 4,4 km/h (1 Bft) O-NO 64 0 min 0,000 mm 0,0 UV-I 0 W/m 9,8 C 14,4 C 6,4 km/h (2 Bft) 100,00 %
15.06.2017 04:04 14,5 C 24,4 C 73 % 1014,9 hPa 0,0 l/m 4,5 km/h (1 Bft) O-NO 62 0 min 0,000 mm 0,0 UV-I 0 W/m 9,7 C 14,5 C 6,4 km/h (2 Bft) 89,47 %
15.06.2017 04:06 14,5 C 24,4 C 73 % 1014,8 hPa 0,0 l/m 3,8 km/h (1 Bft) O-NO 62 0 min 0,000 mm 0,0 UV-I 0 W/m 9,7 C 14,5 C 4,8 km/h (1 Bft) 98,00 %
15.06.2017 04:08 14,6 C 24,4 C 72 % 1014,8 hPa 0,0 l/m 3,8 km/h (1 Bft) O-NO 61 0 min 0,000 mm 0,0 UV-I 0 W/m 9,6 C 14,6 C 6,4 km/h (2 Bft) 100,00 %
15.06.2017 04:10 14,5 C 24,4 C 73 % 1014,9 hPa 0,0 l/m 2,9 km/h (1 Bft) O-NO 61 0 min 0,000 mm 0,0 UV-I 0 W/m 9,7 C 14,5 C 4,8 km/h (1 Bft) 100,00 %
15.06.2017 04:12 14,4 C 24,4 C 73 % 1014,8 hPa 0,0 l/m 2,9 km/h (1 Bft) O-NO 61 0 min 0,000 mm 0,0 UV-I 0 W/m 9,6 C 14,4 C 4,8 km/h (1 Bft) 100,00 %
15.06.2017 04:14 14,4 C 24,4 C 73 % 1014,9 hPa 0,0 l/m 3,0 km/h (1 Bft) O-NO 61 0 min 0,000 mm 0,0 UV-I 0 W/m 9,6 C 14,4 C 4,8 km/h (1 Bft) 100,00 %
15.06.2017 04:16 14,3 C 24,4 C 73 % 1014,9 hPa 0,0 l/m 2,2 km/h (1 Bft) O-NO 61 0 min 0,000 mm 0,0 UV-I 0 W/m 9,5 C 14,3 C 4,8 km/h (1 Bft) 97,87 %
15.06.2017 04:18 14,3 C 24,4 C 73 % 1014,9 hPa 0,0 l/m 2,4 km/h (1 Bft) O-NO 61 0 min 0,000 mm 0,0 UV-I 0 W/m 9,5 C 14,3 C 3,2 km/h (1 Bft) 98,00 %
15.06.2017 04:20 14,2 C 24,4 C 74 % 1014,9 hPa 0,0 l/m 2,0 km/h (1 Bft) O-NO 61 0 min 0,000 mm 0,0 UV-I 0 W/m 9,6 C 14,2 C 3,2 km/h (1 Bft) 97,37 %
15.06.2017 04:22 14,2 C 24,4 C 74 % 1015,0 hPa 0,0 l/m 1,6 km/h (1 Bft) O-NO 61 0 min 0,000 mm 0,0 UV-I 0 W/m 9,6 C 14,2 C 3,2 km/h (1 Bft) 100,00 %
15.06.2017 04:24 14,2 C 24,4 C 74 % 1015,0 hPa 0,0 l/m 2,6 km/h (1 Bft) O-NO 61 0 min 0,000 mm 0,0 UV-I 0 W/m 9,6 C 14,2 C 3,2 km/h (1 Bft) 96,00 %
15.06.2017 04:26 14,2 C 24,4 C 74 % 1015,0 hPa 0,0 l/m 2,6 km/h (1 Bft) O-NO 61 0 min 0,000 mm 0,0 UV-I 0 W/m 9,6 C 14,2 C 4,8 km/h (1 Bft) 94,00 %
15.06.2017 04:28 14,2 C 24,4 C 75 % 1015,0 hPa 0,0 l/m 0,0 km/h (0 Bft) O-NO 61 0 min 0,000 mm 0,0 UV-I 0 W/m 9,8 C 14,2 C 0,0 km/h (0 Bft) 97,37 %
15.06.2017 04:30 14,1 C 24,4 C 75 % 1015,0 hPa 0,0 l/m 2,6 km/h (1 Bft) O-NO 61 0 min 0,000 mm 0,0 UV-I 0 W/m 9,7 C 14,1 C 4,8 km/h (1 Bft) 98,00 %
15.06.2017 04:32 14,1 C 24,4 C 75 % 1015,0 hPa 0,0 l/m 1,2 km/h (1 Bft) O-NO 61 0 min 0,000 mm 0,0 UV-I 0 W/m 9,7 C 14,1 C 3,2 km/h (1 Bft) 100,00 %
15.06.2017 04:34 13,8 C 24,4 C 76 % 1015,0 hPa 0,0 l/m 0,1 km/h (0 Bft) O-NO 61 0 min 0,000 mm 0,0 UV-I 0 W/m 9,6 C 13,8 C 1,6 km/h (1 Bft) 98,00 %
15.06.2017 04:36 13,7 C 24,4 C 77 % 1015,0 hPa 0,0 l/m 0,0 km/h (0 Bft) O-NO 61 0 min 0,000 mm 0,0 UV-I 0 W/m 9,7 C 13,7 C 0,0 km/h (0 Bft) 97,87 %
15.06.2017 04:38 13,6 C 24,4 C 77 % 1015,0 hPa 0,0 l/m 0,0 km/h (0 Bft) O-NO 61 0 min 0,000 mm 0,0 UV-I 0 W/m 9,6 C 13,6 C 0,0 km/h (0 Bft) 96,00 %
15.06.2017 04:40 13,4 C 24,4 C 77 % 1014,9 hPa 0,0 l/m 0,0 km/h (0 Bft) O-NO 61 0 min 0,000 mm 0,0 UV-I 0 W/m 9,5 C 13,4 C 0,0 km/h (0 Bft) 100,00 %
15.06.2017 04:42 13,4 C 24,4 C 77 % 1014,9 hPa 0,0 l/m 0,0 km/h (0 Bft) O-NO 61 0 min 0,000 mm 0,0 UV-I 0 W/m 9,5 C 13,4 C 0,0 km/h (0 Bft) 96,23 %
15.06.2017 04:44 13,3 C 24,4 C 78 % 1014,9 hPa 0,0 l/m 0,2 km/h (0 Bft) O-NO 61 0 min 0,000 mm 0,0 UV-I 0 W/m 9,5 C 13,3 C 1,6 km/h (1 Bft) 98,00 %
15.06.2017 04:46 13,3 C 24,4 C 78 % 1014,9 hPa 0,0 l/m 0,8 km/h (0 Bft) O-NO 61 0 min 0,000 mm 0,0 UV-I 0 W/m 9,5 C 13,3 C 1,6 km/h (1 Bft) 100,00 %
15.06.2017 04:48 13,2 C 24,4 C 78 % 1014,9 hPa 0,0 l/m 0,1 km/h (0 Bft) O-NO 61 0 min 0,000 mm 0,0 UV-I 5 W/m 9,4 C 13,2 C 1,6 km/h (1 Bft) 98,00 %
15.06.2017 04:50 13,2 C 24,4 C 78 % 1014,9 hPa 0,0 l/m 0,0 km/h (0 Bft) O-NO 61 0 min 0,000 mm 0,0 UV-I 5 W/m 9,4 C 13,2 C 0,0 km/h (0 Bft) 98,00 %
15.06.2017 04:52 13,2 C 24,4 C 78 % 1014,9 hPa 0,0 l/m 0,0 km/h (0 Bft) O-NO 61 0 min 0,000 mm 0,0 UV-I 5 W/m 9,4 C 13,2 C 0,0 km/h (0 Bft) 97,56 %
15.06.2017 04:54 13,1 C 24,4 C 78 % 1014,8 hPa 0,0 l/m 0,7 km/h (0 Bft) O-NO 61 0 min 0,000 mm 0,0 UV-I 5 W/m 9,4 C 13,1 C 3,2 km/h (1 Bft) 98,21 %
15.06.2017 04:56 13,1 C 25,0 C 78 % 1014,8 hPa 0,0 l/m 1,0 km/h (0 Bft) O-NO 61 0 min 0,000 mm 0,0 UV-I 5 W/m 9,4 C 13,1 C 1,6 km/h (1 Bft) 100,00 %
15.06.2017 04:58 13,2 C 24,4 C 78 % 1014,8 hPa 0,0 l/m 0,7 km/h (0 Bft) O-NO 61 0 min 0,000 mm 0,0 UV-I 6 W/m 9,4 C 13,2 C 1,6 km/h (1 Bft) 98,11 %
15.06.2017 05:00 13,2 C 24,4 C 78 % 1014,9 hPa 0,0 l/m 0,0 km/h (0 Bft) O-NO 61 0 min 0,000 mm 0,0 UV-I 7 W/m 9,4 C 13,2 C 0,0 km/h (0 Bft) 97,37 %
15.06.2017 05:02 13,3 C 24,4 C 78 % 1014,9 hPa 0,0 l/m 0,0 km/h (0 Bft) O-NO 61 0 min 0,000 mm 0,0 UV-I 7 W/m 9,5 C 13,3 C 0,0 km/h (0 Bft) 100,00 %
15.06.2017 05:04 13,2 C 24,4 C 78 % 1014,9 hPa 0,0 l/m 0,0 km/h (0 Bft) O-NO 61 0 min 0,000 mm 0,0 UV-I 7 W/m 9,4 C 13,2 C 0,0 km/h (0 Bft) 95,74 %
15.06.2017 05:06 13,1 C 24,4 C 78 % 1014,9 hPa 0,0 l/m 0,0 km/h (0 Bft) O-NO 61 0 min 0,000 mm 0,0 UV-I 8 W/m 9,4 C 13,1 C 0,0 km/h (0 Bft) 94,00 %
15.06.2017 05:08 12,9 C 24,4 C 79 % 1014,9 hPa 0,0 l/m 0,0 km/h (0 Bft) O-NO 61 0 min 0,000 mm 0,0 UV-I 10 W/m 9,3 C 12,9 C 0,0 km/h (0 Bft) 100,00 %
15.06.2017 05:10 12,8 C 24,4 C 80 % 1015,0 hPa 0,0 l/m 0,0 km/h (0 Bft) O-NO 61 0 min 0,000 mm 0,0 UV-I 11 W/m 9,4 C 12,8 C 0,0 km/h (0 Bft) 98,11 %
15.06.2017 05:12 12,7 C 24,4 C 80 % 1014,9 hPa 0,0 l/m 0,0 km/h (0 Bft) O-NO 61 0 min 0,000 mm 0,0 UV-I 11 W/m 9,3 C 12,7 C 0,0 km/h (0 Bft) 100,00 %
15.06.2017 05:14 12,8 C 24,4 C 80 % 1015,0 hPa 0,0 l/m 0,0 km/h (0 Bft) O-NO 61 0 min 0,000 mm 0,0 UV-I 12 W/m 9,4 C 12,8 C 0,0 km/h (0 Bft) 95,74 %
15.06.2017 05:16 12,9 C 24,4 C 79 % 1015,0 hPa 0,0 l/m 1,2 km/h (1 Bft) O-NO 61 2 min 0,000 mm 0,0 UV-I 12 W/m 9,3 C 12,9 C 3,2 km/h (1 Bft) 98,00 %
15.06.2017 05:18 13,0 C 24,4 C 79 % 1015,0 hPa 0,0 l/m 3,1 km/h (1 Bft) O-NO 61 2 min 0,000 mm 0,0 UV-I 14 W/m 9,4 C 13,0 C 4,8 km/h (1 Bft) 97,14 %
15.06.2017 05:20 12,9 C 24,4 C 79 % 1015,0 hPa 0,0 l/m 3,2 km/h (1 Bft) NO 49 2 min 0,000 mm 0,0 UV-I 14 W/m 9,3 C 12,9 C 4,8 km/h (1 Bft) 94,64 %
15.06.2017 05:22 12,9 C 24,4 C 79 % 1015,0 hPa 0,0 l/m 2,5 km/h (1 Bft) NO 43 2 min 0,000 mm 0,0 UV-I 17 W/m 9,3 C 12,9 C 4,8 km/h (1 Bft) 100,00 %
15.06.2017 05:24 12,8 C 24,4 C 80 % 1015,0 hPa 0,0 l/m 3,4 km/h (1 Bft) NO 40 2 min 0,000 mm 0,0 UV-I 21 W/m 9,4 C 12,8 C 6,4 km/h (2 Bft) 92,45 %
15.06.2017 05:26 12,7 C 24,4 C 80 % 1015,1 hPa 0,0 l/m 1,7 km/h (1 Bft) NO 40 2 min 0,000 mm 0,0 UV-I 26 W/m 9,3 C 12,7 C 4,8 km/h (1 Bft) 97,87 %
15.06.2017 05:28 12,8 C 24,4 C 80 % 1015,1 hPa 0,0 l/m 1,7 km/h (1 Bft) NO 40 2 min 0,000 mm 0,0 UV-I 28 W/m 9,4 C 12,8 C 3,2 km/h (1 Bft) 96,00 %
15.06.2017 05:30 12,8 C 24,4 C 80 % 1015,1 hPa 0,0 l/m 1,3 km/h (1 Bft) NO 40 2 min 0,000 mm 0,0 UV-I 31 W/m 9,4 C 12,8 C 3,2 km/h (1 Bft) 95,74 %
15.06.2017 05:32 12,8 C 24,4 C 80 % 1015,2 hPa 0,0 l/m 2,4 km/h (1 Bft) NO 40 2 min 0,000 mm 0,0 UV-I 35 W/m 9,4 C 12,8 C 3,2 km/h (1 Bft) 94,44 %
15.06.2017 05:34 12,6 C 24,4 C 80 % 1015,2 hPa 0,0 l/m 1,0 km/h (0 Bft) NO 40 2 min 0,000 mm 0,0 UV-I 39 W/m 9,2 C 12,6 C 3,2 km/h (1 Bft) 94,34 %
15.06.2017 05:36 12,4 C 24,4 C 81 % 1015,3 hPa 0,0 l/m 1,2 km/h (1 Bft) NO 40 2 min 0,000 mm 0,0 UV-I 40 W/m 9,2 C 12,4 C 3,2 km/h (1 Bft) 94,00 %
15.06.2017 05:38 12,5 C 24,4 C 82 % 1015,3 hPa 0,0 l/m 1,1 km/h (1 Bft) NO 44 2 min 0,000 mm 0,0 UV-I 42 W/m 9,5 C 12,5 C 1,6 km/h (1 Bft) 92,00 %
15.06.2017 05:40 12,6 C 24,4 C 82 % 1015,4 hPa 0,0 l/m 1,8 km/h (1 Bft) NO 51 2 min 0,000 mm 0,0 UV-I 46 W/m 9,6 C 12,6 C 3,2 km/h (1 Bft) 95,12 %
15.06.2017 05:42 12,7 C 25,0 C 81 % 1015,4 hPa 0,0 l/m 1,3 km/h (1 Bft) NO 51 2 min 0,000 mm 0,0 UV-I 50 W/m 9,5 C 12,7 C 3,2 km/h (1 Bft) 92,00 %
15.06.2017 05:44 12,8 C 25,0 C 81 % 1015,4 hPa 0,0 l/m 0,3 km/h (0 Bft) NO 51 2 min 0,000 mm 0,0 UV-I 54 W/m 9,6 C 12,8 C 1,6 km/h (1 Bft) 92,68 %
15.06.2017 05:46 12,8 C 24,4 C 81 % 1015,4 hPa 0,0 l/m 0,0 km/h (0 Bft) NO 51 2 min 0,000 mm 0,0 UV-I 57 W/m 9,6 C 12,8 C 0,0 km/h (0 Bft) 93,62 %
15.06.2017 05:48 12,7 C 25,0 C 81 % 1015,5 hPa 0,0 l/m 0,0 km/h (0 Bft) NO 51 2 min 0,000 mm 0,0 UV-I 61 W/m 9,5 C 12,7 C 0,0 km/h (0 Bft) 95,74 %
15.06.2017 05:50 12,7 C 24,4 C 81 % 1015,6 hPa 0,0 l/m 2,1 km/h (1 Bft) NO 51 2 min 0,000 mm 0,0 UV-I 63 W/m 9,5 C 12,7 C 3,2 km/h (1 Bft) 94,34 %
15.06.2017 05:52 12,7 C 25,0 C 81 % 1015,6 hPa 0,0 l/m 2,7 km/h (1 Bft) NO 51 2 min 0,000 mm 0,0 UV-I 67 W/m 9,5 C 12,7 C 3,2 km/h (1 Bft) 93,62 %
15.06.2017 05:54 12,7 C 25,0 C 82 % 1015,6 hPa 0,0 l/m 2,8 km/h (1 Bft) NO 51 2 min 0,000 mm 0,0 UV-I 70 W/m 9,7 C 12,7 C 4,8 km/h (1 Bft) 93,75 %
15.06.2017 05:56 12,6 C 25,0 C 82 % 1015,6 hPa 0,0 l/m 2,1 km/h (1 Bft) NO 51 2 min 0,000 mm 0,0 UV-I 74 W/m 9,6 C 12,6 C 3,2 km/h (1 Bft) 94,92 %
15.06.2017 05:58 12,5 C 25,0 C 82 % 1015,7 hPa 0,0 l/m 0,9 km/h (0 Bft) NO 51 2 min 0,000 mm 0,0 UV-I 77 W/m 9,5 C 12,5 C 3,2 km/h (1 Bft) 94,74 %
15.06.2017 06:00 12,5 C 24,4 C 82 % 1015,6 hPa 0,0 l/m 0,2 km/h (0 Bft) NO 51 2 min 0,025 mm 0,0 UV-I 80 W/m 9,5 C 12,5 C 1,6 km/h (1 Bft) 94,00 %
15.06.2017 06:02 12,6 C 24,4 C 82 % 1015,6 hPa 0,0 l/m 0,0 km/h (0 Bft) NO 51 2 min 0,000 mm 0,0 UV-I 84 W/m 9,6 C 12,6 C 0,0 km/h (0 Bft) 94,00 %
15.06.2017 06:04 12,6 C 24,4 C 82 % 1015,6 hPa 0,0 l/m 0,0 km/h (0 Bft) NO 51 2 min 0,000 mm 0,0 UV-I 89 W/m 9,6 C 12,6 C 0,0 km/h (0 Bft) 92,00 %
15.06.2017 06:06 12,7 C 24,4 C 82 % 1015,7 hPa 0,0 l/m 0,0 km/h (0 Bft) NO 51 2 min 0,000 mm 0,0 UV-I 93 W/m 9,7 C 12,7 C 0,0 km/h (0 Bft) 93,62 %
15.06.2017 06:08 12,9 C 24,4 C 81 % 1015,7 hPa 0,0 l/m 0,0 km/h (0 Bft) NO 51 2 min 0,000 mm 0,0 UV-I 97 W/m 9,7 C 12,9 C 0,0 km/h (0 Bft) 93,33 %
15.06.2017 06:10 13,0 C 24,4 C 81 % 1015,6 hPa 0,0 l/m 1,2 km/h (1 Bft) NO 51 2 min 0,000 mm 0,0 UV-I 101 W/m 9,8 C 13,0 C 1,6 km/h (1 Bft) 93,18 %
15.06.2017 06:12 13,1 C 23,9 C 81 % 1015,7 hPa 0,0 l/m 0,4 km/h (0 Bft) NO 51 2 min 0,000 mm 0,0 UV-I 105 W/m 9,9 C 13,1 C 1,6 km/h (1 Bft) 94,00 %
15.06.2017 06:14 13,1 C 23,9 C 81 % 1015,7 hPa 0,0 l/m 2,3 km/h (1 Bft) NO 51 2 min 0,000 mm 0,0 UV-I 107 W/m 9,9 C 13,1 C 3,2 km/h (1 Bft) 98,00 %
15.06.2017 06:16 13,2 C 23,9 C 81 % 1015,7 hPa 0,0 l/m 2,4 km/h (1 Bft) NO 51 2 min 0,000 mm 0,0 UV-I 105 W/m 10,0 C 13,2 C 4,8 km/h (1 Bft) 97,56 %
15.06.2017 06:18 13,2 C 23,9 C 81 % 1015,8 hPa 0,0 l/m 1,8 km/h (1 Bft) NO 51 0 min 0,000 mm 0,0 UV-I 90 W/m 10,0 C 13,2 C 4,8 km/h (1 Bft) 97,87 %
15.06.2017 06:20 13,3 C 23,9 C 81 % 1015,9 hPa 0,0 l/m 2,9 km/h (1 Bft) SO 140 0 min 0,000 mm 0,0 UV-I 53 W/m 10,1 C 13,3 C 4,8 km/h (1 Bft) 92,68 %
15.06.2017 06:22 13,3 C 23,9 C 81 % 1015,9 hPa 0,0 l/m 4,7 km/h (1 Bft) S 187 0 min 0,000 mm 0,0 UV-I 56 W/m 10,1 C 13,3 C 6,4 km/h (2 Bft) 96,23 %
15.06.2017 06:24 13,4 C 23,9 C 81 % 1015,9 hPa 0,0 l/m 3,7 km/h (1 Bft) S 187 0 min 0,000 mm 0,0 UV-I 68 W/m 10,2 C 13,4 C 4,8 km/h (1 Bft) 98,00 %
15.06.2017 06:26 13,4 C 23,9 C 81 % 1015,9 hPa 0,0 l/m 3,4 km/h (1 Bft) S 187 0 min 0,000 mm 0,0 UV-I 54 W/m 10,2 C 13,4 C 4,8 km/h (1 Bft) 98,00 %
15.06.2017 06:28 13,6 C 23,9 C 80 % 1016,0 hPa 0,0 l/m 0,4 km/h (0 Bft) S 187 0 min 0,000 mm 0,0 UV-I 61 W/m 10,2 C 13,6 C 1,6 km/h (1 Bft) 97,87 %
15.06.2017 06:30 13,7 C 23,9 C 80 % 1016,0 hPa 0,0 l/m 0,0 km/h (0 Bft) S 187 2 min 0,000 mm 0,0 UV-I 130 W/m 10,3 C 13,7 C 1,6 km/h (1 Bft) 97,56 %
15.06.2017 06:32 13,8 C 23,3 C 79 % 1016,1 hPa 0,0 l/m 0,0 km/h (0 Bft) S 187 2 min 0,000 mm 0,0 UV-I 148 W/m 10,2 C 13,8 C 0,0 km/h (0 Bft) 98,00 %
15.06.2017 06:34 13,9 C 23,3 C 79 % 1016,1 hPa 0,0 l/m 0,7 km/h (0 Bft) S 187 2 min 0,000 mm 0,0 UV-I 153 W/m 10,3 C 13,9 C 3,2 km/h (1 Bft) 94,00 %
15.06.2017 06:36 13,9 C 23,9 C 79 % 1016,1 hPa 0,0 l/m 1,0 km/h (0 Bft) S 187 2 min 0,000 mm 0,0 UV-I 158 W/m 10,3 C 13,9 C 3,2 km/h (1 Bft) 97,56 %
15.06.2017 06:38 14,1 C 23,9 C 78 % 1016,1 hPa 0,0 l/m 0,8 km/h (0 Bft) S 187 2 min 0,000 mm 0,0 UV-I 162 W/m 10,3 C 14,1 C 1,6 km/h (1 Bft) 100,00 %
15.06.2017 06:40 14,1 C 23,9 C 77 % 1016,1 hPa 0,0 l/m 0,0 km/h (0 Bft) S 187 2 min 0,000 mm 0,0 UV-I 169 W/m 10,1 C 14,1 C 0,0 km/h (0 Bft) 100,00 %
15.06.2017 06:42 14,2 C 23,9 C 78 % 1016,0 hPa 0,0 l/m 0,0 km/h (0 Bft) S 187 2 min 0,000 mm 0,0 UV-I 173 W/m 10,4 C 14,2 C 0,0 km/h (0 Bft) 100,00 %
15.06.2017 06:44 14,3 C 23,9 C 79 % 1016,1 hPa 0,0 l/m 0,0 km/h (0 Bft) S 187 2 min 0,000 mm 0,0 UV-I 179 W/m 10,7 C 14,3 C 0,0 km/h (0 Bft) 100,00 %
15.06.2017 06:46 14,4 C 23,9 C 79 % 1016,1 hPa 0,0 l/m 0,0 km/h (0 Bft) S 187 2 min 0,000 mm 0,0 UV-I 185 W/m 10,8 C 14,4 C 0,0 km/h (0 Bft) 100,00 %
15.06.2017 06:48 14,6 C 23,9 C 78 % 1016,1 hPa 0,0 l/m 0,0 km/h (0 Bft) S 187 2 min 0,000 mm 0,0 UV-I 190 W/m 10,8 C 14,6 C 0,0 km/h (0 Bft) 100,00 %
15.06.2017 06:50 14,7 C 23,9 C 78 % 1016,1 hPa 0,0 l/m 0,0 km/h (0 Bft) S 187 2 min 0,000 mm 0,0 UV-I 196 W/m 10,9 C 14,7 C 0,0 km/h (0 Bft) 100,00 %
15.06.2017 06:52 14,9 C 23,9 C 78 % 1016,1 hPa 0,0 l/m 0,0 km/h (0 Bft) S 187 2 min 0,000 mm 0,0 UV-I 201 W/m 11,1 C 14,9 C 0,0 km/h (0 Bft) 97,14 %
15.06.2017 06:54 15,0 C 23,9 C 78 % 1016,1 hPa 0,0 l/m 0,0 km/h (0 Bft) S 187 2 min 0,000 mm 0,0 UV-I 207 W/m 11,2 C 15,0 C 0,0 km/h (0 Bft) 100,00 %
15.06.2017 06:56 15,2 C 23,3 C 76 % 1016,2 hPa 0,0 l/m 0,0 km/h (0 Bft) S 187 2 min 0,000 mm 0,0 UV-I 212 W/m 11,0 C 15,2 C 0,0 km/h (0 Bft) 95,12 %
15.06.2017 06:58 15,3 C 23,9 C 76 % 1016,2 hPa 0,0 l/m 0,0 km/h (0 Bft) S 187 2 min 0,000 mm 0,0 UV-I 218 W/m 11,1 C 15,3 C 0,0 km/h (0 Bft) 98,11 %
15.06.2017 07:00 15,4 C 23,9 C 77 % 1016,2 hPa 0,0 l/m 0,0 km/h (0 Bft) S 187 2 min 0,077 mm 0,0 UV-I 222 W/m 11,4 C 15,4 C 0,0 km/h (0 Bft) 100,00 %
15.06.2017 07:02 15,4 C 23,9 C 77 % 1016,1 hPa 0,0 l/m 0,2 km/h (0 Bft) S 187 2 min 0,000 mm 0,2 UV-I 229 W/m 11,4 C 15,4 C 1,6 km/h (1 Bft) 94,74 %
15.06.2017 07:04 15,6 C 23,3 C 76 % 1016,1 hPa 0,0 l/m 0,4 km/h (0 Bft) S 187 2 min 0,000 mm 0,5 UV-I 234 W/m 11,4 C 15,6 C 3,2 km/h (1 Bft) 97,87 %
15.06.2017 07:06 15,8 C 23,3 C 74 % 1016,2 hPa 0,0 l/m 2,1 km/h (1 Bft) O-SO 105 2 min 0,000 mm 0,5 UV-I 240 W/m 11,2 C 15,8 C 4,8 km/h (1 Bft) 98,21 %
15.06.2017 07:08 15,8 C 23,9 C 73 % 1016,2 hPa 0,0 l/m 3,2 km/h (1 Bft) O 81 2 min 0,000 mm 0,5 UV-I 246 W/m 11,0 C 15,8 C 4,8 km/h (1 Bft) 100,00 %
15.06.2017 07:10 15,9 C 23,9 C 72 % 1016,2 hPa 0,0 l/m 4,4 km/h (1 Bft) O-NO 71 2 min 0,000 mm 0,5 UV-I 251 W/m 10,9 C 15,9 C 8,0 km/h (2 Bft) 97,73 %
15.06.2017 07:12 16,0 C 23,9 C 69 % 1016,2 hPa 0,0 l/m 4,8 km/h (1 Bft) NO 54 2 min 0,000 mm 0,5 UV-I 258 W/m 10,3 C 16,0 C 8,0 km/h (2 Bft) 97,87 %
15.06.2017 07:14 16,1 C 23,9 C 69 % 1016,1 hPa 0,0 l/m 5,6 km/h (1 Bft) NO 54 2 min 0,000 mm 0,6 UV-I 263 W/m 10,4 C 16,1 C 9,7 km/h (2 Bft) 97,87 %
15.06.2017 07:16 16,1 C 23,9 C 70 % 1016,1 hPa 0,0 l/m 5,6 km/h (1 Bft) O-NO 60 2 min 0,000 mm 0,6 UV-I 269 W/m 10,6 C 16,1 C 9,7 km/h (2 Bft) 97,73 %
15.06.2017 07:18 16,1 C 23,9 C 69 % 1016,1 hPa 0,0 l/m 5,7 km/h (1 Bft) NO 49 2 min 0,000 mm 0,6 UV-I 273 W/m 10,4 C 16,1 C 8,0 km/h (2 Bft) 100,00 %
15.06.2017 07:20 16,2 C 23,9 C 70 % 1016,1 hPa 0,0 l/m 5,2 km/h (1 Bft) NO 47 2 min 0,000 mm 0,6 UV-I 280 W/m 10,7 C 16,2 C 8,0 km/h (2 Bft) 97,56 %
15.06.2017 07:22 16,2 C 23,9 C 70 % 1016,1 hPa 0,0 l/m 5,5 km/h (1 Bft) O-NO 59 2 min 0,000 mm 0,6 UV-I 285 W/m 10,7 C 16,2 C 8,0 km/h (2 Bft) 97,87 %
15.06.2017 07:24 16,3 C 23,9 C 69 % 1016,1 hPa 0,0 l/m 5,5 km/h (1 Bft) NO 39 2 min 0,000 mm 0,7 UV-I 290 W/m 10,6 C 16,3 C 8,0 km/h (2 Bft) 100,00 %
15.06.2017 07:26 16,4 C 23,9 C 69 % 1016,1 hPa 0,0 l/m 5,1 km/h (1 Bft) O-NO 58 2 min 0,000 mm 0,7 UV-I 296 W/m 10,7 C 16,4 C 8,0 km/h (2 Bft) 98,00 %
15.06.2017 07:28 16,4 C 23,9 C 69 % 1016,1 hPa 0,0 l/m 5,9 km/h (2 Bft) O-NO 63 2 min 0,000 mm 0,7 UV-I 302 W/m 10,7 C 16,4 C 8,0 km/h (2 Bft) 100,00 %
15.06.2017 07:30 16,5 C 23,9 C 69 % 1016,1 hPa 0,0 l/m 4,2 km/h (1 Bft) NO 54 2 min 0,000 mm 0,7 UV-I 308 W/m 10,8 C 16,5 C 6,4 km/h (2 Bft) 100,00 %
15.06.2017 07:32 16,6 C 23,3 C 69 % 1016,2 hPa 0,0 l/m 6,2 km/h (2 Bft) NO 54 2 min 0,000 mm 0,7 UV-I 314 W/m 10,9 C 16,6 C 9,7 km/h (2 Bft) 96,23 %
15.06.2017 07:34 16,7 C 23,3 C 69 % 1016,2 hPa 0,0 l/m 6,2 km/h (2 Bft) O-NO 61 2 min 0,000 mm 0,8 UV-I 320 W/m 11,0 C 16,7 C 8,0 km/h (2 Bft) 97,73 %
15.06.2017 07:36 16,8 C 23,3 C 69 % 1016,2 hPa 0,0 l/m 6,0 km/h (2 Bft) NO 46 2 min 0,000 mm 0,8 UV-I 324 W/m 11,1 C 16,8 C 9,7 km/h (2 Bft) 100,00 %
15.06.2017 07:38 16,9 C 23,3 C 69 % 1016,2 hPa 0,0 l/m 7,1 km/h (2 Bft) NO 41 2 min 0,000 mm 0,8 UV-I 331 W/m 11,2 C 16,5 C 9,7 km/h (2 Bft) 94,74 %
15.06.2017 07:40 17,0 C 23,3 C 68 % 1016,2 hPa 0,0 l/m 6,6 km/h (2 Bft) O-NO 59 2 min 0,000 mm 0,9 UV-I 336 W/m 11,0 C 16,9 C 9,7 km/h (2 Bft) 100,00 %
15.06.2017 07:42 17,1 C 23,9 C 68 % 1016,2 hPa 0,0 l/m 7,5 km/h (2 Bft) NO 35 2 min 0,000 mm 0,9 UV-I 342 W/m 11,1 C 16,5 C 9,7 km/h (2 Bft) 95,45 %
15.06.2017 07:44 17,2 C 23,9 C 67 % 1016,2 hPa 0,0 l/m 7,9 km/h (2 Bft) O-NO 65 2 min 0,000 mm 0,9 UV-I 348 W/m 11,0 C 16,5 C 11,3 km/h (2 Bft) 100,00 %
15.06.2017 07:46 17,2 C 23,9 C 67 % 1016,2 hPa 0,0 l/m 6,5 km/h (2 Bft) NO 53 2 min 0,000 mm 0,9 UV-I 354 W/m 11,0 C 17,2 C 9,7 km/h (2 Bft) 97,56 %
15.06.2017 07:48 17,3 C 23,9 C 67 % 1016,2 hPa 0,0 l/m 7,4 km/h (2 Bft) O-NO 69 2 min 0,000 mm 1,0 UV-I 359 W/m 11,1 C 16,8 C 11,3 km/h (2 Bft) 93,62 %
15.06.2017 07:50 17,3 C 23,3 C 66 % 1016,2 hPa 0,0 l/m 7,1 km/h (2 Bft) NO 56 2 min 0,000 mm 1,0 UV-I 365 W/m 10,9 C 17,0 C 9,7 km/h (2 Bft) 98,00 %
15.06.2017 07:52 17,4 C 23,3 C 66 % 1016,2 hPa 0,0 l/m 6,3 km/h (2 Bft) O-NO 61 2 min 0,000 mm 1,0 UV-I 371 W/m 11,0 C 17,4 C 9,7 km/h (2 Bft) 95,12 %
15.06.2017 07:54 17,4 C 23,3 C 65 % 1016,3 hPa 0,0 l/m 5,9 km/h (2 Bft) O-NO 61 2 min 0,000 mm 1,0 UV-I 377 W/m 10,8 C 17,4 C 12,9 km/h (3 Bft) 96,00 %
15.06.2017 07:56 17,6 C 23,9 C 66 % 1016,2 hPa 0,0 l/m 8,7 km/h (2 Bft) NO 55 2 min 0,000 mm 1,1 UV-I 382 W/m 11,2 C 16,5 C 12,9 km/h (3 Bft) 96,23 %
15.06.2017 07:58 17,7 C 23,9 C 65 % 1016,2 hPa 0,0 l/m 7,0 km/h (2 Bft) O-NO 57 2 min 0,000 mm 1,1 UV-I 388 W/m 11,0 C 17,4 C 11,3 km/h (2 Bft) 93,62 %
15.06.2017 08:00 17,7 C 23,9 C 65 % 1016,2 hPa 0,0 l/m 9,6 km/h (2 Bft) N-NO 26 2 min 0,203 mm 1,1 UV-I 395 W/m 11,0 C 16,3 C 14,5 km/h (3 Bft) 100,00 %
15.06.2017 08:02 17,8 C 23,9 C 65 % 1016,2 hPa 0,0 l/m 8,6 km/h (2 Bft) NO 55 2 min 0,000 mm 1,2 UV-I 401 W/m 11,1 C 16,8 C 12,9 km/h (3 Bft) 96,23 %
15.06.2017 08:04 17,8 C 23,9 C 64 % 1016,3 hPa 0,0 l/m 10,3 km/h (2 Bft) O-NO 65 2 min 0,000 mm 1,2 UV-I 407 W/m 10,9 C 16,1 C 16,1 km/h (3 Bft) 94,44 %
15.06.2017 08:06 17,9 C 23,9 C 65 % 1016,2 hPa 0,0 l/m 7,7 km/h (2 Bft) NO 49 2 min 0,000 mm 1,2 UV-I 412 W/m 11,2 C 17,3 C 14,5 km/h (3 Bft) 96,43 %
15.06.2017 08:08 18,0 C 23,9 C 64 % 1016,2 hPa 0,0 l/m 6,0 km/h (2 Bft) O 87 2 min 0,000 mm 1,3 UV-I 418 W/m 11,1 C 18,0 C 11,3 km/h (2 Bft) 97,14 %
15.06.2017 08:10 18,1 C 23,9 C 64 % 1016,2 hPa 0,0 l/m 9,3 km/h (2 Bft) NO 38 2 min 0,000 mm 1,3 UV-I 423 W/m 11,2 C 16,8 C 16,1 km/h (3 Bft) 95,16 %
15.06.2017 08:12 18,2 C 23,9 C 64 % 1016,3 hPa 0,0 l/m 8,1 km/h (2 Bft) O 80 2 min 0,000 mm 1,3 UV-I 429 W/m 11,3 C 17,4 C 12,9 km/h (3 Bft) 92,11 %
15.06.2017 08:14 18,2 C 23,9 C 64 % 1016,2 hPa 0,0 l/m 10,9 km/h (2 Bft) O-NO 62 2 min 0,000 mm 1,4 UV-I 434 W/m 11,3 C 16,3 C 17,7 km/h (3 Bft) 96,23 %
15.06.2017 08:16 18,2 C 23,9 C 62 % 1016,3 hPa 0,0 l/m 9,9 km/h (2 Bft) NO 55 2 min 0,000 mm 1,4 UV-I 441 W/m 10,8 C 16,7 C 16,1 km/h (3 Bft) 95,12 %
15.06.2017 08:18 18,2 C 23,9 C 63 % 1016,3 hPa 0,0 l/m 12,5 km/h (3 Bft) O-NO 70 2 min 0,000 mm 1,4 UV-I 446 W/m 11,0 C 15,8 C 17,7 km/h (3 Bft) 94,34 %
15.06.2017 08:20 18,3 C 23,9 C 62 % 1016,3 hPa 0,0 l/m 10,3 km/h (2 Bft) NO 56 2 min 0,000 mm 1,5 UV-I 452 W/m 10,9 C 16,7 C 17,7 km/h (3 Bft) 97,56 %
15.06.2017 08:22 18,3 C 23,9 C 62 % 1016,2 hPa 0,0 l/m 13,8 km/h (3 Bft) O-NO 60 2 min 0,000 mm 1,5 UV-I 457 W/m 10,9 C 15,5 C 19,3 km/h (3 Bft) 96,00 %
15.06.2017 08:24 18,3 C 23,9 C 61 % 1016,2 hPa 0,0 l/m 15,0 km/h (3 Bft) O-NO 57 2 min 0,000 mm 1,5 UV-I 463 W/m 10,6 C 15,2 C 19,3 km/h (3 Bft) 96,23 %
15.06.2017 08:26 18,4 C 23,9 C 62 % 1016,2 hPa 0,0 l/m 12,6 km/h (3 Bft) NO 49 2 min 0,000 mm 1,6 UV-I 469 W/m 11,0 C 16,0 C 16,1 km/h (3 Bft) 97,87 %
15.06.2017 08:28 18,4 C 23,9 C 62 % 1016,2 hPa 0,0 l/m 8,9 km/h (2 Bft) NO 53 2 min 0,000 mm 1,6 UV-I 474 W/m 11,0 C 17,3 C 16,1 km/h (3 Bft) 97,14 %
15.06.2017 08:30 18,5 C 23,9 C 61 % 1016,2 hPa 0,0 l/m 14,8 km/h (3 Bft) O-NO 78 2 min 0,000 mm 1,7 UV-I 480 W/m 10,8 C 15,5 C 20,9 km/h (4 Bft) 95,83 %
15.06.2017 08:32 18,6 C 23,9 C 59 % 1016,2 hPa 0,0 l/m 12,8 km/h (3 Bft) O-NO 63 2 min 0,000 mm 1,7 UV-I 485 W/m 10,4 C 16,2 C 19,3 km/h (3 Bft) 91,23 %
15.06.2017 08:34 18,6 C 23,9 C 60 % 1016,2 hPa 0,0 l/m 15,5 km/h (3 Bft) NO 46 2 min 0,000 mm 1,7 UV-I 490 W/m 10,7 C 15,4 C 22,5 km/h (4 Bft) 97,73 %
15.06.2017 08:36 18,7 C 23,9 C 59 % 1016,3 hPa 0,0 l/m 14,7 km/h (3 Bft) O-NO 66 2 min 0,000 mm 1,8 UV-I 496 W/m 10,5 C 15,8 C 20,9 km/h (4 Bft) 97,56 %
15.06.2017 08:38 18,7 C 23,9 C 60 % 1016,2 hPa 0,0 l/m 12,7 km/h (3 Bft) O-NO 74 2 min 0,000 mm 1,8 UV-I 502 W/m 10,8 C 16,3 C 17,7 km/h (3 Bft) 97,87 %
15.06.2017 08:40 18,7 C 23,9 C 59 % 1016,3 hPa 0,0 l/m 12,8 km/h (3 Bft) O-NO 63 2 min 0,000 mm 1,8 UV-I 506 W/m 10,5 C 16,3 C 19,3 km/h (3 Bft) 96,43 %
15.06.2017 08:42 18,8 C 23,9 C 60 % 1016,3 hPa 0,0 l/m 10,2 km/h (2 Bft) O-NO 57 2 min 0,000 mm 1,9 UV-I 513 W/m 10,9 C 17,2 C 17,7 km/h (3 Bft) 95,45 %
15.06.2017 08:44 19,0 C 23,9 C 61 % 1016,3 hPa 0,0 l/m 9,6 km/h (2 Bft) O-NO 69 2 min 0,000 mm 1,9 UV-I 518 W/m 11,3 C 17,7 C 14,5 km/h (3 Bft) 97,62 %
15.06.2017 08:46 19,1 C 23,9 C 59 % 1016,4 hPa 0,0 l/m 13,3 km/h (3 Bft) O-NO 76 2 min 0,000 mm 2,0 UV-I 524 W/m 10,9 C 16,6 C 17,7 km/h (3 Bft) 98,08 %
15.06.2017 08:48 19,2 C 23,9 C 59 % 1016,3 hPa 0,0 l/m 9,5 km/h (2 Bft) NO 51 2 min 0,000 mm 2,0 UV-I 529 W/m 11,0 C 17,9 C 14,5 km/h (3 Bft) 89,74 %
15.06.2017 08:50 19,3 C 23,9 C 60 % 1016,3 hPa 0,0 l/m 10,7 km/h (2 Bft) O-NO 74 2 min 0,000 mm 2,1 UV-I 534 W/m 11,3 C 17,6 C 16,1 km/h (3 Bft) 96,00 %
15.06.2017 08:52 19,4 C 23,9 C 60 % 1016,3 hPa 0,0 l/m 10,4 km/h (2 Bft) NO 55 2 min 0,000 mm 2,1 UV-I 540 W/m 11,4 C 17,8 C 14,5 km/h (3 Bft) 91,11 %
15.06.2017 08:54 19,6 C 23,9 C 58 % 1016,2 hPa 0,0 l/m 12,8 km/h (3 Bft) O-NO 71 2 min 0,000 mm 2,2 UV-I 545 W/m 11,1 C 17,3 C 19,3 km/h (3 Bft) 94,34 %
15.06.2017 08:56 19,6 C 23,9 C 57 % 1016,2 hPa 0,0 l/m 15,6 km/h (3 Bft) O-NO 63 2 min 0,000 mm 2,2 UV-I 551 W/m 10,8 C 16,6 C 19,3 km/h (3 Bft) 97,56 %
15.06.2017 08:58 19,5 C 23,9 C 58 % 1016,2 hPa 0,0 l/m 12,7 km/h (3 Bft) O-NO 64 2 min 0,000 mm 2,2 UV-I 556 W/m 11,0 C 17,3 C 20,9 km/h (4 Bft) 95,74 %
15.06.2017 09:00 19,5 C 23,9 C 58 % 1016,2 hPa 0,0 l/m 10,9 km/h (2 Bft) NO 44 2 min 0,330 mm 2,3 UV-I 563 W/m 11,0 C 17,8 C 19,3 km/h (3 Bft) 98,11 %
15.06.2017 09:02 19,6 C 23,9 C 58 % 1016,2 hPa 0,0 l/m 11,3 km/h (2 Bft) NO 44 2 min 0,000 mm 2,3 UV-I 568 W/m 11,1 C 17,8 C 19,3 km/h (3 Bft) 97,37 %
15.06.2017 09:04 19,7 C 23,9 C 56 % 1016,2 hPa 0,0 l/m 10,2 km/h (2 Bft) O-NO 71 2 min 0,000 mm 2,4 UV-I 572 W/m 10,7 C 18,2 C 17,7 km/h (3 Bft) 96,23 %
15.06.2017 09:06 19,7 C 23,9 C 57 % 1016,2 hPa 0,0 l/m 7,4 km/h (2 Bft) O-NO 70 2 min 0,000 mm 2,4 UV-I 577 W/m 10,9 C 19,3 C 14,5 km/h (3 Bft) 94,00 %
15.06.2017 09:08 19,8 C 23,9 C 57 % 1016,3 hPa 0,0 l/m 9,3 km/h (2 Bft) O 81 2 min 0,000 mm 2,5 UV-I 582 W/m 11,0 C 18,7 C 14,5 km/h (3 Bft) 94,29 %
15.06.2017 09:10 19,8 C 23,9 C 59 % 1016,3 hPa 0,0 l/m 9,3 km/h (2 Bft) O-NO 63 2 min 0,000 mm 2,5 UV-I 588 W/m 11,6 C 18,7 C 16,1 km/h (3 Bft) 98,00 %
15.06.2017 09:12 19,9 C 23,9 C 57 % 1016,3 hPa 0,0 l/m 10,4 km/h (2 Bft) O-NO 77 2 min 0,000 mm 2,6 UV-I 593 W/m 11,1 C 18,4 C 17,7 km/h (3 Bft) 94,34 %
15.06.2017 09:14 19,8 C 23,9 C 56 % 1016,3 hPa 0,0 l/m 12,1 km/h (2 Bft) NO 46 2 min 0,000 mm 2,6 UV-I 598 W/m 10,8 C 17,8 C 16,1 km/h (3 Bft) 97,56 %
15.06.2017 09:16 19,9 C 23,9 C 58 % 1016,3 hPa 0,0 l/m 7,2 km/h (2 Bft) NO 39 2 min 0,000 mm 2,6 UV-I 602 W/m 11,4 C 19,6 C 12,9 km/h (3 Bft) 96,00 %
15.06.2017 09:18 19,9 C 23,9 C 57 % 1016,3 hPa 0,0 l/m 8,4 km/h (2 Bft) NO 53 2 min 0,000 mm 2,7 UV-I 607 W/m 11,1 C 19,1 C 14,5 km/h (3 Bft) 97,87 %
15.06.2017 09:20 19,9 C 23,9 C 57 % 1016,3 hPa 0,0 l/m 5,9 km/h (2 Bft) O 101 2 min 0,000 mm 2,8 UV-I 612 W/m 11,1 C 19,9 C 9,7 km/h (2 Bft) 100,00 %
15.06.2017 09:22 20,1 C 23,9 C 59 % 1016,2 hPa 0,0 l/m 6,7 km/h (2 Bft) O-SO 112 2 min 0,000 mm 2,8 UV-I 618 W/m 11,8 C 20,0 C 12,9 km/h (3 Bft) 100,00 %
15.06.2017 09:24 20,3 C 23,9 C 57 % 1016,2 hPa 0,0 l/m 6,6 km/h (2 Bft) O-NO 66 2 min 0,000 mm 2,9 UV-I 622 W/m 11,5 C 20,2 C 11,3 km/h (2 Bft) 98,00 %
15.06.2017 09:26 20,4 C 23,9 C 57 % 1016,2 hPa 0,0 l/m 7,0 km/h (2 Bft) SO 129 2 min 0,000 mm 2,9 UV-I 627 W/m 11,6 C 20,2 C 12,9 km/h (3 Bft) 100,00 %
15.06.2017 09:28 20,4 C 23,9 C 56 % 1016,3 hPa 0,0 l/m 3,9 km/h (1 Bft) O-SO 105 2 min 0,000 mm 2,9 UV-I 630 W/m 11,3 C 20,4 C 6,4 km/h (2 Bft) 100,00 %
15.06.2017 09:30 20,4 C 23,9 C 55 % 1016,3 hPa 0,0 l/m 5,8 km/h (2 Bft) O-NO 63 2 min 0,000 mm 3,0 UV-I 608 W/m 11,1 C 20,4 C 12,9 km/h (3 Bft) 92,00 %
15.06.2017 09:32 20,4 C 23,9 C 57 % 1016,3 hPa 0,0 l/m 9,3 km/h (2 Bft) SO 129 2 min 0,000 mm 3,1 UV-I 613 W/m 11,6 C 19,3 C 12,9 km/h (3 Bft) 98,00 %
15.06.2017 09:34 20,4 C 23,9 C 56 % 1016,2 hPa 0,0 l/m 3,9 km/h (1 Bft) NO 35 2 min 0,000 mm 3,1 UV-I 614 W/m 11,3 C 20,4 C 9,7 km/h (2 Bft) 97,56 %
15.06.2017 09:36 20,4 C 23,9 C 57 % 1016,3 hPa 0,0 l/m 9,0 km/h (2 Bft) NO 36 2 min 0,000 mm 3,2 UV-I 620 W/m 11,6 C 19,4 C 14,5 km/h (3 Bft) 98,00 %
15.06.2017 09:38 20,7 C 23,9 C 58 % 1016,2 hPa 0,0 l/m 6,0 km/h (2 Bft) NO 42 2 min 0,000 mm 3,2 UV-I 625 W/m 12,1 C 20,7 C 9,7 km/h (2 Bft) 94,74 %
15.06.2017 09:40 20,8 C 23,9 C 57 % 1016,2 hPa 0,0 l/m 3,6 km/h (1 Bft) NO 43 2 min 0,000 mm 3,2 UV-I 630 W/m 12,0 C 20,8 C 6,4 km/h (2 Bft) 95,45 %
15.06.2017 09:42 20,8 C 23,9 C 55 % 1016,2 hPa 0,0 l/m 4,3 km/h (1 Bft) NO 56 2 min 0,000 mm 3,3 UV-I 666 W/m 11,4 C 20,8 C 8,0 km/h (2 Bft) 91,67 %
15.06.2017 09:44 21,0 C 23,9 C 58 % 1016,2 hPa 0,0 l/m 10,6 km/h (2 Bft) O 82 2 min 0,000 mm 3,4 UV-I 672 W/m 12,4 C 19,6 C 16,1 km/h (3 Bft) 100,00 %
15.06.2017 09:46 21,0 C 23,9 C 55 % 1016,2 hPa 0,0 l/m 5,7 km/h (1 Bft) O-SO 110 2 min 0,000 mm 3,4 UV-I 676 W/m 11,6 C 21,0 C 9,7 km/h (2 Bft) 94,34 %
15.06.2017 09:48 20,8 C 23,9 C 56 % 1016,2 hPa 0,0 l/m 0,9 km/h (0 Bft) O-SO 110 2 min 0,000 mm 3,5 UV-I 680 W/m 11,7 C 20,8 C 3,2 km/h (1 Bft) 97,37 %
15.06.2017 09:50 20,7 C 23,9 C 57 % 1016,1 hPa 0,0 l/m 1,9 km/h (1 Bft) N 9 2 min 0,000 mm 3,5 UV-I 685 W/m 11,9 C 20,7 C 6,4 km/h (2 Bft) 96,23 %
15.06.2017 09:52 20,8 C 23,9 C 57 % 1016,2 hPa 0,0 l/m 2,4 km/h (1 Bft) N-NO 30 2 min 0,000 mm 3,6 UV-I 689 W/m 12,0 C 20,8 C 4,8 km/h (1 Bft) 96,00 %
15.06.2017 09:54 20,9 C 23,9 C 59 % 1016,1 hPa 0,0 l/m 6,0 km/h (2 Bft) O-NO 65 2 min 0,000 mm 3,7 UV-I 695 W/m 12,6 C 20,9 C 11,3 km/h (2 Bft) 97,37 %
15.06.2017 09:56 21,2 C 23,9 C 56 % 1016,2 hPa 0,0 l/m 7,1 km/h (2 Bft) NO 52 2 min 0,000 mm 3,7 UV-I 699 W/m 12,1 C 20,9 C 12,9 km/h (3 Bft) 94,00 %
15.06.2017 09:58 21,3 C 23,9 C 57 % 1016,2 hPa 0,0 l/m 7,2 km/h (2 Bft) O-NO 60 2 min 0,000 mm 3,7 UV-I 702 W/m 12,4 C 21,0 C 9,7 km/h (2 Bft) 97,62 %
15.06.2017 10:00 21,3 C 23,9 C 55 % 1016,2 hPa 0,0 l/m 6,1 km/h (2 Bft) O 84 2 min 0,000 mm 3,8 UV-I 707 W/m 11,9 C 21,3 C 11,3 km/h (2 Bft) 94,74 %
15.06.2017 10:02 21,2 C 23,9 C 54 % 1016,2 hPa 0,0 l/m 4,5 km/h (1 Bft) N-NO 28 2 min 0,406 mm 3,8 UV-I 711 W/m 11,5 C 21,2 C 9,7 km/h (2 Bft) 95,38 %
15.06.2017 10:04 21,1 C 23,9 C 58 % 1016,2 hPa 0,0 l/m 6,2 km/h (2 Bft) O-NO 59 2 min 0,000 mm 3,9 UV-I 716 W/m 12,5 C 21,1 C 12,9 km/h (3 Bft) 97,87 %
15.06.2017 10:06 21,3 C 23,9 C 55 % 1016,2 hPa 0,0 l/m 5,7 km/h (1 Bft) O-NO 74 2 min 0,000 mm 3,9 UV-I 720 W/m 11,9 C 21,3 C 8,0 km/h (2 Bft) 95,74 %
15.06.2017 10:08 21,3 C 23,9 C 55 % 1016,2 hPa 0,0 l/m 5,6 km/h (1 Bft) O 95 2 min 0,000 mm 4,0 UV-I 724 W/m 11,9 C 21,3 C 11,3 km/h (2 Bft) 98,00 %
15.06.2017 10:10 21,4 C 23,9 C 57 % 1016,2 hPa 0,0 l/m 6,8 km/h (2 Bft) NO 44 2 min 0,000 mm 4,0 UV-I 729 W/m 12,5 C 21,3 C 9,7 km/h (2 Bft) 97,87 %
15.06.2017 10:12 21,3 C 23,9 C 56 % 1016,2 hPa 0,0 l/m 2,8 km/h (1 Bft) O-NO 57 2 min 0,000 mm 4,1 UV-I 732 W/m 12,2 C 21,3 C 6,4 km/h (2 Bft) 92,11 %
15.06.2017 10:14 21,4 C 23,9 C 54 % 1016,2 hPa 0,0 l/m 7,4 km/h (2 Bft) NO 53 2 min 0,000 mm 4,1 UV-I 737 W/m 11,7 C 21,0 C 12,9 km/h (3 Bft) 100,00 %
15.06.2017 10:16 21,4 C 23,9 C 54 % 1016,2 hPa 0,0 l/m 4,9 km/h (1 Bft) NO 45 2 min 0,000 mm 4,2 UV-I 742 W/m 11,7 C 21,4 C 6,4 km/h (2 Bft) 96,00 %
15.06.2017 10:18 21,5 C 23,9 C 57 % 1016,2 hPa 0,0 l/m 5,6 km/h (1 Bft) O-NO 57 2 min 0,000 mm 4,2 UV-I 745 W/m 12,6 C 21,5 C 9,7 km/h (2 Bft) 95,45 %
15.06.2017 10:20 21,7 C 23,9 C 56 % 1016,2 hPa 0,0 l/m 6,5 km/h (2 Bft) O 92 2 min 0,000 mm 4,3 UV-I 749 W/m 12,5 C 21,7 C 11,3 km/h (2 Bft) 97,87 %
15.06.2017 10:22 21,8 C 23,9 C 57 % 1016,2 hPa 0,0 l/m 4,5 km/h (1 Bft) NO 44 2 min 0,000 mm 4,3 UV-I 754 W/m 12,9 C 21,8 C 8,0 km/h (2 Bft) 97,56 %
15.06.2017 10:24 22,1 C 23,9 C 57 % 1016,2 hPa 0,0 l/m 5,7 km/h (1 Bft) NO 39 2 min 0,000 mm 4,4 UV-I 758 W/m 13,2 C 22,1 C 14,5 km/h (3 Bft) 97,87 %
15.06.2017 10:26 22,2 C 23,9 C 54 % 1016,2 hPa 0,0 l/m 8,1 km/h (2 Bft) O-NO 65 2 min 0,000 mm 4,4 UV-I 760 W/m 12,4 C 21,6 C 12,9 km/h (3 Bft) 100,00 %
15.06.2017 10:28 22,3 C 23,9 C 56 % 1016,2 hPa 0,0 l/m 7,5 km/h (2 Bft) NO 36 2 min 0,000 mm 4,5 UV-I 764 W/m 13,1 C 21,9 C 11,3 km/h (2 Bft) 97,73 %
15.06.2017 10:30 22,3 C 23,9 C 56 % 1016,1 hPa 0,0 l/m 4,0 km/h (1 Bft) N-NO 17 2 min 0,000 mm 4,5 UV-I 770 W/m 13,1 C 22,3 C 6,4 km/h (2 Bft) 96,00 %
15.06.2017 10:32 22,4 C 23,9 C 55 % 1016,2 hPa 0,0 l/m 3,7 km/h (1 Bft) N-NO 29 2 min 0,000 mm 4,6 UV-I 772 W/m 12,9 C 22,4 C 6,4 km/h (2 Bft) 97,87 %
15.06.2017 10:34 22,4 C 23,9 C 54 % 1016,2 hPa 0,0 l/m 6,3 km/h (2 Bft) O-NO 61 2 min 0,000 mm 4,7 UV-I 776 W/m 12,6 C 22,4 C 11,3 km/h (2 Bft) 98,11 %
15.06.2017 10:36 22,4 C 23,9 C 53 % 1016,2 hPa 0,0 l/m 7,9 km/h (2 Bft) O-NO 58 2 min 0,000 mm 4,7 UV-I 781 W/m 12,3 C 21,9 C 11,3 km/h (2 Bft) 97,73 %
15.06.2017 10:38 22,4 C 23,9 C 55 % 1016,2 hPa 0,0 l/m 8,6 km/h (2 Bft) O-NO 71 2 min 0,000 mm 4,8 UV-I 785 W/m 12,9 C 21,7 C 14,5 km/h (3 Bft) 96,23 %
15.06.2017 10:40 22,4 C 23,9 C 54 % 1016,1 hPa 0,0 l/m 6,2 km/h (2 Bft) N-NO 31 2 min 0,000 mm 4,8 UV-I 789 W/m 12,6 C 22,4 C 9,7 km/h (2 Bft) 97,87 %
15.06.2017 10:42 22,6 C 23,9 C 57 % 1016,1 hPa 0,0 l/m 8,0 km/h (2 Bft) NO 55 2 min 0,000 mm 4,9 UV-I 793 W/m 13,6 C 22,1 C 12,9 km/h (3 Bft) 100,00 %
15.06.2017 10:44 22,6 C 23,9 C 52 % 1016,1 hPa 0,0 l/m 4,5 km/h (1 Bft) NO 55 2 min 0,000 mm 4,9 UV-I 795 W/m 12,2 C 22,6 C 8,0 km/h (2 Bft) 97,37 %
15.06.2017 10:46 22,5 C 23,9 C 55 % 1016,1 hPa 0,0 l/m 3,8 km/h (1 Bft) NO 39 2 min 0,000 mm 5,0 UV-I 798 W/m 13,0 C 22,5 C 9,7 km/h (2 Bft) 98,36 %
15.06.2017 10:48 22,7 C 23,9 C 52 % 1016,1 hPa 0,0 l/m 7,0 km/h (2 Bft) O-NO 76 2 min 0,000 mm 5,0 UV-I 801 W/m 12,3 C 22,5 C 11,3 km/h (2 Bft) 100,00 %
15.06.2017 10:50 22,6 C 23,9 C 54 % 1016,1 hPa 0,0 l/m 4,6 km/h (1 Bft) O-SO 102 2 min 0,000 mm 5,0 UV-I 805 W/m 12,8 C 22,6 C 6,4 km/h (2 Bft) 100,00 %
15.06.2017 10:52 22,7 C 23,9 C 54 % 1016,1 hPa 0,0 l/m 3,7 km/h (1 Bft) N-NO 27 2 min 0,000 mm 5,1 UV-I 809 W/m 12,9 C 22,7 C 8,0 km/h (2 Bft) 100,00 %
15.06.2017 10:54 23,0 C 23,9 C 55 % 1016,1 hPa 0,0 l/m 4,4 km/h (1 Bft) N-NO 33 2 min 0,000 mm 5,2 UV-I 811 W/m 13,5 C 23,0 C 9,7 km/h (2 Bft) 100,00 %
15.06.2017 10:56 23,1 C 23,9 C 52 % 1016,2 hPa 0,0 l/m 6,0 km/h (2 Bft) O-NO 68 2 min 0,000 mm 5,2 UV-I 816 W/m 12,7 C 23,1 C 8,0 km/h (2 Bft) 97,56 %
15.06.2017 10:58 22,9 C 23,9 C 53 % 1016,2 hPa 0,0 l/m 4,5 km/h (1 Bft) O-NO 78 2 min 0,000 mm 5,3 UV-I 818 W/m 12,8 C 22,9 C 9,7 km/h (2 Bft) 100,00 %
15.06.2017 11:00 23,0 C 23,9 C 52 % 1016,2 hPa 0,0 l/m 4,1 km/h (1 Bft) O-NO 69 2 min 0,508 mm 5,3 UV-I 820 W/m 12,6 C 23,0 C 11,3 km/h (2 Bft) 98,11 %
15.06.2017 11:02 23,0 C 23,9 C 52 % 1016,1 hPa 0,0 l/m 3,3 km/h (1 Bft) NO 44 2 min 0,000 mm 5,4 UV-I 825 W/m 12,6 C 23,0 C 9,7 km/h (2 Bft) 97,56 %
15.06.2017 11:04 23,2 C 23,9 C 54 % 1016,1 hPa 0,0 l/m 7,4 km/h (2 Bft) N 355 2 min 0,000 mm 5,4 UV-I 829 W/m 13,4 C 22,9 C 11,3 km/h (2 Bft) 100,00 %
15.06.2017 11:06 23,3 C 23,9 C 55 % 1016,2 hPa 0,0 l/m 9,4 km/h (2 Bft) N-NO 22 2 min 0,000 mm 5,4 UV-I 832 W/m 13,7 C 22,4 C 17,7 km/h (3 Bft) 98,00 %
15.06.2017 11:08 23,4 C 23,9 C 54 % 1016,1 hPa 0,0 l/m 1,0 km/h (0 Bft) N-NO 22 2 min 0,000 mm 5,5 UV-I 833 W/m 13,6 C 23,4 C 3,2 km/h (1 Bft) 97,87 %
15.06.2017 11:10 23,2 C 23,9 C 50 % 1016,1 hPa 0,0 l/m 1,6 km/h (1 Bft) N-NO 22 2 min 0,000 mm 5,6 UV-I 837 W/m 12,2 C 23,2 C 3,2 km/h (1 Bft) 98,00 %
15.06.2017 11:12 23,2 C 23,9 C 52 % 1016,0 hPa 0,0 l/m 1,1 km/h (1 Bft) W-NW 295 2 min 0,000 mm 5,6 UV-I 838 W/m 12,8 C 23,2 C 3,2 km/h (1 Bft) 100,00 %
15.06.2017 11:14 23,3 C 23,9 C 52 % 1016,1 hPa 0,0 l/m 9,3 km/h (2 Bft) O-NO 61 2 min 0,000 mm 5,7 UV-I 842 W/m 12,9 C 22,5 C 17,7 km/h (3 Bft) 97,73 %
15.06.2017 11:16 23,5 C 23,9 C 52 % 1016,1 hPa 0,0 l/m 7,1 km/h (2 Bft) NO 44 2 min 0,000 mm 5,7 UV-I 848 W/m 13,1 C 23,3 C 12,9 km/h (3 Bft) 96,23 %
15.06.2017 11:18 23,4 C 23,9 C 50 % 1016,1 hPa 0,0 l/m 5,6 km/h (1 Bft) O-NO 76 2 min 0,000 mm 5,7 UV-I 850 W/m 12,4 C 23,4 C 11,3 km/h (2 Bft) 94,87 %
15.06.2017 11:20 23,3 C 23,9 C 49 % 1016,0 hPa 0,0 l/m 3,1 km/h (1 Bft) O-NO 69 2 min 0,000 mm 5,8 UV-I 852 W/m 12,0 C 23,3 C 6,4 km/h (2 Bft) 100,00 %
15.06.2017 11:22 23,3 C 23,9 C 50 % 1016,0 hPa 0,0 l/m 2,6 km/h (1 Bft) NO 48 2 min 0,000 mm 5,8 UV-I 854 W/m 12,3 C 23,3 C 8,0 km/h (2 Bft) 98,00 %
15.06.2017 11:24 23,5 C 23,9 C 52 % 1016,0 hPa 0,0 l/m 1,5 km/h (1 Bft) NO 44 2 min 0,000 mm 5,9 UV-I 859 W/m 13,1 C 23,5 C 3,2 km/h (1 Bft) 97,37 %
15.06.2017 11:26 23,7 C 23,9 C 52 % 1016,1 hPa 0,0 l/m 6,0 km/h (2 Bft) NO 35 2 min 0,000 mm 5,9 UV-I 859 W/m 13,2 C 23,7 C 11,3 km/h (2 Bft) 96,00 %
15.06.2017 11:28 23,9 C 23,9 C 52 % 1016,1 hPa 0,0 l/m 8,7 km/h (2 Bft) NO 49 2 min 0,000 mm 6,0 UV-I 861 W/m 13,4 C 23,3 C 12,9 km/h (3 Bft) 94,00 %
15.06.2017 11:30 24,2 C 23,9 C 51 % 1016,1 hPa 0,0 l/m 10,7 km/h (2 Bft) O 80 2 min 0,000 mm 5,9 UV-I 863 W/m 13,4 C 23,1 C 16,1 km/h (3 Bft) 97,56 %
15.06.2017 11:32 24,2 C 23,9 C 47 % 1016,1 hPa 0,0 l/m 6,7 km/h (2 Bft) O-SO 106 2 min 0,000 mm 6,0 UV-I 868 W/m 12,2 C 24,1 C 11,3 km/h (2 Bft) 96,00 %
15.06.2017 11:34 24,0 C 23,9 C 49 % 1016,0 hPa 0,0 l/m 6,0 km/h (2 Bft) SO 144 2 min 0,000 mm 6,0 UV-I 871 W/m 12,6 C 24,0 C 12,9 km/h (3 Bft) 94,00 %
15.06.2017 11:36 24,1 C 23,9 C 50 % 1016,0 hPa 0,0 l/m 4,9 km/h (1 Bft) NO 49 2 min 0,000 mm 6,1 UV-I 873 W/m 13,0 C 24,1 C 14,5 km/h (3 Bft) 94,74 %
15.06.2017 11:38 24,1 C 23,9 C 50 % 1016,1 hPa 0,0 l/m 9,5 km/h (2 Bft) NO 53 2 min 0,000 mm 6,1 UV-I 875 W/m 13,0 C 23,3 C 16,1 km/h (3 Bft) 98,11 %
15.06.2017 11:40 24,2 C 23,9 C 48 % 1016,0 hPa 0,0 l/m 7,1 km/h (2 Bft) O-NO 72 2 min 0,000 mm 6,1 UV-I 876 W/m 12,5 C 24,0 C 12,9 km/h (3 Bft) 94,34 %
15.06.2017 11:42 24,2 C 23,9 C 48 % 1016,0 hPa 0,0 l/m 7,4 km/h (2 Bft) O-NO 77 2 min 0,000 mm 6,1 UV-I 878 W/m 12,5 C 23,9 C 11,3 km/h (2 Bft) 97,56 %
15.06.2017 11:44 24,2 C 23,9 C 48 % 1016,0 hPa 0,0 l/m 2,7 km/h (1 Bft) O-NO 73 2 min 0,000 mm 6,2 UV-I 881 W/m 12,5 C 24,2 C 4,8 km/h (1 Bft) 92,45 %
15.06.2017 11:46 24,3 C 23,9 C 49 % 1016,0 hPa 0,0 l/m 8,2 km/h (2 Bft) NO 53 2 min 0,000 mm 6,2 UV-I 881 W/m 12,9 C 23,8 C 14,5 km/h (3 Bft) 89,47 %
15.06.2017 11:48 24,4 C 23,9 C 50 % 1016,0 hPa 0,0 l/m 10,2 km/h (2 Bft) NO 38 2 min 0,000 mm 6,3 UV-I 884 W/m 13,3 C 23,5 C 14,5 km/h (3 Bft) 98,21 %
15.06.2017 11:50 24,6 C 23,9 C 52 % 1016,0 hPa 0,0 l/m 3,4 km/h (1 Bft) N-NO 20 2 min 0,000 mm 6,3 UV-I 887 W/m 14,1 C 24,6 C 8,0 km/h (2 Bft) 94,74 %
15.06.2017 11:52 24,8 C 23,9 C 49 % 1015,9 hPa 0,0 l/m 6,5 km/h (2 Bft) NO 51 2 min 0,000 mm 6,4 UV-I 889 W/m 13,3 C 24,8 C 14,5 km/h (3 Bft) 92,45 %
15.06.2017 11:54 24,8 C 23,9 C 46 % 1016,0 hPa 0,0 l/m 13,1 km/h (3 Bft) N-NO 21 2 min 0,000 mm 6,4 UV-I 892 W/m 12,4 C 23,4 C 17,7 km/h (3 Bft) 95,45 %
15.06.2017 11:56 24,7 C 23,9 C 49 % 1016,0 hPa 0,0 l/m 11,2 km/h (2 Bft) N-NO 13 2 min 0,000 mm 6,4 UV-I 895 W/m 13,3 C 23,6 C 16,1 km/h (3 Bft) 90,48 %
15.06.2017 11:58 24,7 C 23,9 C 48 % 1016,0 hPa 0,0 l/m 3,9 km/h (1 Bft) N 5 2 min 0,000 mm 6,4 UV-I 895 W/m 12,9 C 24,7 C 8,0 km/h (2 Bft) 95,74 %
15.06.2017 12:00 24,5 C 23,9 C 48 % 1015,9 hPa 0,0 l/m 4,0 km/h (1 Bft) N-NO 17 2 min 0,000 mm 6,5 UV-I 896 W/m 12,8 C 24,5 C 9,7 km/h (2 Bft) 95,74 %
15.06.2017 12:03 24,4 C 23,9 C 47 % 1015,9 hPa 0,0 l/m 6,3 km/h (2 Bft) NO 46 3 min 0,585 mm 6,5 UV-I 898 W/m 12,3 C 24,4 C 11,3 km/h (2 Bft) 92,86 %
15.06.2017 12:04 24,5 C 23,9 C 50 % 1015,9 hPa 0,0 l/m 4,9 km/h (1 Bft) NO 54 1 min 0,000 mm 6,5 UV-I 898 W/m 13,4 C 24,5 C 6,4 km/h (2 Bft) 88,89 %
15.06.2017 12:06 24,7 C 23,9 C 48 % 1015,9 hPa 0,0 l/m 9,3 km/h (2 Bft) NO 50 2 min 0,000 mm 6,5 UV-I 901 W/m 12,9 C 24,0 C 14,5 km/h (3 Bft) 93,18 %
15.06.2017 12:08 24,7 C 23,9 C 48 % 1015,9 hPa 0,0 l/m 7,1 km/h (2 Bft) O-NO 62 2 min 0,000 mm 6,6 UV-I 904 W/m 12,9 C 24,5 C 11,3 km/h (2 Bft) 95,45 %
15.06.2017 12:10 24,7 C 23,9 C 47 % 1015,9 hPa 0,0 l/m 3,6 km/h (1 Bft) O 86 2 min 0,000 mm 6,6 UV-I 905 W/m 12,6 C 24,7 C 6,4 km/h (2 Bft) 94,64 %
15.06.2017 12:12 24,8 C 23,9 C 47 % 1015,8 hPa 0,0 l/m 12,2 km/h (2 Bft) O-NO 71 2 min 0,000 mm 6,6 UV-I 908 W/m 12,7 C 23,5 C 17,7 km/h (3 Bft) 93,18 %
15.06.2017 12:14 24,8 C 23,9 C 45 % 1015,9 hPa 0,0 l/m 6,7 km/h (2 Bft) O-SO 106 2 min 0,000 mm 6,6 UV-I 909 W/m 12,0 C 24,7 C 11,3 km/h (2 Bft) 96,00 %
15.06.2017 12:16 24,8 C 23,9 C 46 % 1015,9 hPa 0,0 l/m 5,4 km/h (1 Bft) O-NO 71 2 min 0,000 mm 6,7 UV-I 911 W/m 12,4 C 24,8 C 9,7 km/h (2 Bft) 92,68 %
15.06.2017 12:18 25,0 C 23,9 C 49 % 1015,8 hPa 0,0 l/m 6,6 km/h (2 Bft) NO 53 2 min 0,000 mm 6,7 UV-I 911 W/m 13,5 C 25,0 C 11,3 km/h (2 Bft) 91,49 %
15.06.2017 12:20 25,0 C 23,9 C 45 % 1015,8 hPa 0,0 l/m 3,7 km/h (1 Bft) O 86 2 min 0,000 mm 6,7 UV-I 911 W/m 12,2 C 25,0 C 6,4 km/h (2 Bft) 96,00 %
15.06.2017 12:22 25,1 C 23,9 C 45 % 1015,8 hPa 0,0 l/m 6,8 km/h (2 Bft) O 80 2 min 0,000 mm 6,7 UV-I 915 W/m 12,3 C 25,0 C 14,5 km/h (3 Bft) 95,12 %
15.06.2017 12:24 25,1 C 23,9 C 45 % 1015,9 hPa 0,0 l/m 9,7 km/h (2 Bft) O-NO 66 2 min 0,000 mm 6,7 UV-I 915 W/m 12,3 C 24,3 C 14,5 km/h (3 Bft) 98,21 %
15.06.2017 12:26 25,2 C 23,9 C 47 % 1015,8 hPa 0,0 l/m 4,0 km/h (1 Bft) NO 53 2 min 0,000 mm 6,7 UV-I 912 W/m 13,1 C 25,2 C 8,0 km/h (2 Bft) 95,12 %
15.06.2017 12:28 25,2 C 23,9 C 45 % 1015,9 hPa 0,0 l/m 5,7 km/h (1 Bft) NO 36 2 min 0,000 mm 6,8 UV-I 913 W/m 12,4 C 25,2 C 14,5 km/h (3 Bft) 94,00 %
15.06.2017 12:30 25,2 C 23,9 C 45 % 1015,8 hPa 0,0 l/m 5,8 km/h (2 Bft) N 10 2 min 0,000 mm 6,8 UV-I 916 W/m 12,4 C 25,2 C 12,9 km/h (3 Bft) 92,68 %
15.06.2017 12:32 25,4 C 23,9 C 46 % 1015,8 hPa 0,0 l/m 4,0 km/h (1 Bft) O-NO 72 2 min 0,000 mm 6,8 UV-I 917 W/m 12,9 C 25,4 C 8,0 km/h (2 Bft) 92,00 %
15.06.2017 12:34 25,6 C 23,9 C 45 % 1015,8 hPa 0,0 l/m 5,6 km/h (1 Bft) NO 38 2 min 0,000 mm 6,9 UV-I 920 W/m 12,8 C 25,6 C 12,9 km/h (3 Bft) 94,34 %
15.06.2017 12:36 25,6 C 23,9 C 45 % 1015,8 hPa 0,0 l/m 9,9 km/h (2 Bft) NO 38 2 min 0,000 mm 6,9 UV-I 921 W/m 12,8 C 24,8 C 17,7 km/h (3 Bft) 97,44 %
15.06.2017 12:38 25,7 C 23,9 C 44 % 1015,7 hPa 0,0 l/m 5,7 km/h (1 Bft) NO 42 2 min 0,000 mm 6,9 UV-I 925 W/m 12,5 C 25,7 C 8,0 km/h (2 Bft) 89,36 %
15.06.2017 12:40 25,6 C 23,9 C 43 % 1015,8 hPa 0,0 l/m 3,4 km/h (1 Bft) NO 36 2 min 0,000 mm 6,9 UV-I 922 W/m 12,1 C 25,6 C 8,0 km/h (2 Bft) 94,34 %
15.06.2017 12:42 25,6 C 23,9 C 44 % 1015,7 hPa 0,0 l/m 2,1 km/h (1 Bft) NW 323 2 min 0,000 mm 6,9 UV-I 919 W/m 12,4 C 25,6 C 6,4 km/h (2 Bft) 90,91 %
15.06.2017 12:44 25,7 C 23,9 C 46 % 1015,7 hPa 0,0 l/m 7,5 km/h (2 Bft) N-NO 30 2 min 0,000 mm 6,8 UV-I 915 W/m 13,2 C 25,4 C 14,5 km/h (3 Bft) 92,11 %
15.06.2017 12:46 25,9 C 23,9 C 47 % 1015,7 hPa 0,0 l/m 7,2 km/h (2 Bft) N-NO 30 2 min 0,000 mm 6,8 UV-I 912 W/m 13,7 C 25,7 C 12,9 km/h (3 Bft) 96,23 %
15.06.2017 12:48 25,9 C 23,9 C 44 % 1015,7 hPa 0,0 l/m 9,7 km/h (2 Bft) N-NW 330 2 min 0,000 mm 6,8 UV-I 913 W/m 12,7 C 25,2 C 17,7 km/h (3 Bft) 98,00 %
15.06.2017 12:50 25,8 C 23,9 C 45 % 1015,7 hPa 0,0 l/m 7,6 km/h (2 Bft) N-NO 28 2 min 0,000 mm 6,8 UV-I 916 W/m 13,0 C 25,5 C 16,1 km/h (3 Bft) 92,00 %
15.06.2017 12:52 25,8 C 23,9 C 43 % 1015,7 hPa 0,0 l/m 10,4 km/h (2 Bft) NO 47 2 min 0,000 mm 6,9 UV-I 924 W/m 12,3 C 25,0 C 17,7 km/h (3 Bft) 93,18 %
15.06.2017 12:54 25,8 C 23,9 C 42 % 1015,7 hPa 0,0 l/m 4,0 km/h (1 Bft) NO 36 2 min 0,000 mm 6,9 UV-I 926 W/m 11,9 C 25,8 C 9,7 km/h (2 Bft) 95,45 %
15.06.2017 12:56 25,8 C 23,9 C 46 % 1015,6 hPa 0,0 l/m 3,4 km/h (1 Bft) NO 51 2 min 0,000 mm 6,9 UV-I 924 W/m 13,3 C 25,8 C 8,0 km/h (2 Bft) 94,34 %
15.06.2017 12:58 25,8 C 23,9 C 42 % 1015,6 hPa 0,0 l/m 9,8 km/h (2 Bft) O-NO 76 2 min 0,000 mm 6,9 UV-I 924 W/m 11,9 C 25,1 C 19,3 km/h (3 Bft) 93,18 %
15.06.2017 13:00 25,9 C 23,9 C 42 % 1015,6 hPa 0,0 l/m 11,1 km/h (2 Bft) O-NO 70 2 min 0,635 mm 6,9 UV-I 926 W/m 12,0 C 25,0 C 16,1 km/h (3 Bft) 96,00 %
15.06.2017 13:02 25,8 C 23,9 C 40 % 1015,6 hPa 0,0 l/m 7,3 km/h (2 Bft) O-NO 69 2 min 0,000 mm 6,9 UV-I 927 W/m 11,2 C 25,6 C 11,3 km/h (2 Bft) 97,37 %
15.06.2017 13:04 25,8 C 23,9 C 39 % 1015,6 hPa 0,0 l/m 5,2 km/h (1 Bft) NO 50 2 min 0,000 mm 6,9 UV-I 924 W/m 10,8 C 25,8 C 9,7 km/h (2 Bft) 94,64 %
15.06.2017 13:06 25,9 C 23,9 C 43 % 1015,5 hPa 0,0 l/m 4,6 km/h (1 Bft) N-NO 21 2 min 0,000 mm 6,9 UV-I 925 W/m 12,3 C 25,9 C 8,0 km/h (2 Bft) 97,37 %
15.06.2017 13:09 25,9 C 23,9 C 41 % 1015,5 hPa 0,0 l/m 2,7 km/h (1 Bft) N 5 3 min 0,000 mm 6,9 UV-I 924 W/m 11,6 C 25,9 C 4,8 km/h (1 Bft) 93,75 %
15.06.2017 13:10 25,8 C 23,9 C 40 % 1015,5 hPa 0,0 l/m 3,1 km/h (1 Bft) N-NO 31 1 min 0,000 mm 7,0 UV-I 926 W/m 11,2 C 25,8 C 8,0 km/h (2 Bft) 100,00 %
15.06.2017 13:12 26,0 C 23,9 C 42 % 1015,4 hPa 0,0 l/m 11,7 km/h (2 Bft) O-NO 67 2 min 0,000 mm 7,0 UV-I 927 W/m 12,1 C 25,0 C 17,7 km/h (3 Bft) 98,11 %
15.06.2017 13:14 26,0 C 23,9 C 39 % 1015,5 hPa 0,0 l/m 6,9 km/h (2 Bft) SO 128 2 min 0,000 mm 6,9 UV-I 926 W/m 11,0 C 25,9 C 14,5 km/h (3 Bft) 100,00 %
15.06.2017 13:16 25,8 C 23,9 C 40 % 1015,5 hPa 0,0 l/m 1,3 km/h (1 Bft) SO 130 2 min 0,000 mm 7,0 UV-I 927 W/m 11,2 C 25,8 C 6,4 km/h (2 Bft) 98,08 %
15.06.2017 13:18 25,8 C 23,9 C 48 % 1015,4 hPa 0,0 l/m 3,2 km/h (1 Bft) NO 55 2 min 0,000 mm 6,9 UV-I 925 W/m 13,9 C 25,8 C 6,4 km/h (2 Bft) 91,67 %
15.06.2017 13:20 26,1 C 23,9 C 42 % 1015,5 hPa 0,0 l/m 7,1 km/h (2 Bft) N-NO 33 2 min 0,000 mm 6,9 UV-I 925 W/m 12,2 C 25,9 C 11,3 km/h (2 Bft) 97,56 %
15.06.2017 13:22 26,2 C 23,9 C 40 % 1015,5 hPa 0,0 l/m 2,0 km/h (1 Bft) N-NO 25 2 min 0,000 mm 6,9 UV-I 925 W/m 11,5 C 26,2 C 4,8 km/h (1 Bft) 98,00 %
15.06.2017 13:24 26,2 C 23,9 C 42 % 1015,4 hPa 0,0 l/m 3,6 km/h (1 Bft) NO 40 2 min 0,000 mm 6,9 UV-I 922 W/m 12,3 C 26,2 C 9,7 km/h (2 Bft) 98,00 %
15.06.2017 13:26 26,4 C 23,9 C 39 % 1015,5 hPa 0,0 l/m 5,1 km/h (1 Bft) O 85 2 min 0,000 mm 6,9 UV-I 921 W/m 11,3 C 26,4 C 8,0 km/h (2 Bft) 97,92 %
15.06.2017 13:28 26,7 C 23,9 C 42 % 1015,4 hPa 0,0 l/m 7,6 km/h (2 Bft) N-NO 33 2 min 0,000 mm 6,9 UV-I 924 W/m 12,7 C 26,5 C 11,3 km/h (2 Bft) 96,15 %
15.06.2017 13:30 26,7 C 23,9 C 39 % 1015,4 hPa 0,0 l/m 6,3 km/h (2 Bft) O-NO 64 2 min 0,000 mm 6,8 UV-I 920 W/m 11,6 C 26,7 C 14,5 km/h (3 Bft) 94,12 %
15.06.2017 13:32 26,6 C 23,9 C 40 % 1015,4 hPa 0,0 l/m 7,1 km/h (2 Bft) O-NO 58 2 min 0,000 mm 6,8 UV-I 919 W/m 11,9 C 26,5 C 14,5 km/h (3 Bft) 97,73 %
15.06.2017 13:34 26,6 C 23,9 C 37 % 1015,4 hPa 0,0 l/m 2,5 km/h (1 Bft) NO 36 2 min 0,000 mm 6,8 UV-I 914 W/m 10,7 C 26,6 C 6,4 km/h (2 Bft) 92,11 %
15.06.2017 13:36 26,4 C 23,9 C 37 % 1015,4 hPa 0,0 l/m 2,1 km/h (1 Bft) NO 45 2 min 0,000 mm 6,8 UV-I 915 W/m 10,5 C 26,4 C 4,8 km/h (1 Bft) 94,34 %
15.06.2017 13:38 26,6 C 23,9 C 42 % 1015,4 hPa 0,0 l/m 6,2 km/h (2 Bft) N-NO 28 2 min 0,000 mm 6,8 UV-I 915 W/m 12,6 C 26,6 C 11,3 km/h (2 Bft) 97,56 %
15.06.2017 13:40 26,7 C 23,9 C 38 % 1015,4 hPa 0,0 l/m 6,4 km/h (2 Bft) NO 46 2 min 0,000 mm 6,8 UV-I 914 W/m 11,2 C 26,7 C 9,7 km/h (2 Bft) 94,92 %
15.06.2017 13:42 26,8 C 23,9 C 37 % 1015,4 hPa 0,0 l/m 7,5 km/h (2 Bft) O-NO 69 2 min 0,000 mm 6,8 UV-I 918 W/m 10,9 C 26,6 C 12,9 km/h (3 Bft) 92,11 %
15.06.2017 13:44 26,9 C 23,9 C 38 % 1015,3 hPa 0,0 l/m 9,7 km/h (2 Bft) O 80 2 min 0,000 mm 6,7 UV-I 913 W/m 11,4 C 26,3 C 16,1 km/h (3 Bft) 98,00 %
15.06.2017 13:46 26,9 C 23,9 C 39 % 1015,4 hPa 0,0 l/m 8,2 km/h (2 Bft) O-NO 65 2 min 0,000 mm 6,7 UV-I 910 W/m 11,8 C 26,6 C 12,9 km/h (3 Bft) 94,34 %
15.06.2017 13:48 26,8 C 23,9 C 38 % 1015,3 hPa 0,0 l/m 8,3 km/h (2 Bft) N-NO 26 2 min 0,000 mm 6,7 UV-I 910 W/m 11,3 C 26,4 C 11,3 km/h (2 Bft) 95,12 %
15.06.2017 13:50 26,8 C 23,9 C 40 % 1015,3 hPa 0,0 l/m 5,3 km/h (1 Bft) NO 34 2 min 0,000 mm 6,6 UV-I 907 W/m 12,1 C 26,8 C 9,7 km/h (2 Bft) 96,00 %
15.06.2017 13:52 26,9 C 23,9 C 40 % 1015,3 hPa 0,0 l/m 5,3 km/h (1 Bft) NO 34 2 min 0,000 mm 6,6 UV-I 902 W/m 12,1 C 26,9 C 12,9 km/h (3 Bft) 95,24 %
15.06.2017 13:54 26,9 C 23,9 C 37 % 1015,2 hPa 0,0 l/m 6,5 km/h (2 Bft) N-NO 22 2 min 0,000 mm 6,6 UV-I 905 W/m 11,0 C 26,9 C 9,7 km/h (2 Bft) 88,00 %
15.06.2017 13:56 26,8 C 23,9 C 37 % 1015,2 hPa 0,0 l/m 2,4 km/h (1 Bft) N 355 2 min 0,000 mm 6,7 UV-I 907 W/m 10,9 C 26,8 C 3,2 km/h (1 Bft) 93,88 %
15.06.2017 13:58 26,7 C 23,9 C 37 % 1015,2 hPa 0,0 l/m 0,5 km/h (0 Bft) N 355 2 min 0,000 mm 6,6 UV-I 906 W/m 10,8 C 26,7 C 3,2 km/h (1 Bft) 95,83 %
15.06.2017 14:00 26,6 C 23,9 C 37 % 1015,2 hPa 0,0 l/m 1,7 km/h (1 Bft) NW 310 2 min 0,635 mm 6,6 UV-I 907 W/m 10,7 C 26,6 C 4,8 km/h (1 Bft) 94,74 %
15.06.2017 14:02 26,7 C 23,9 C 36 % 1015,2 hPa 0,0 l/m 3,3 km/h (1 Bft) NW 320 2 min 0,000 mm 6,6 UV-I 905 W/m 10,4 C 26,7 C 4,8 km/h (1 Bft) 93,62 %
15.06.2017 14:04 26,8 C 23,9 C 38 % 1015,2 hPa 0,0 l/m 2,6 km/h (1 Bft) NW 316 2 min 0,000 mm 6,6 UV-I 904 W/m 11,3 C 26,8 C 6,4 km/h (2 Bft) 92,45 %
15.06.2017 14:06 26,9 C 23,9 C 36 % 1015,2 hPa 0,0 l/m 2,7 km/h (1 Bft) W-NW 294 2 min 0,000 mm 6,5 UV-I 902 W/m 10,6 C 26,9 C 4,8 km/h (1 Bft) 97,73 %
15.06.2017 14:08 26,9 C 26,7 C 38 % 1015,2 hPa 0,0 l/m 2,3 km/h (1 Bft) O 98 2 min 0,000 mm 6,4 UV-I 895 W/m 11,4 C 26,9 C 6,4 km/h (2 Bft) 96,23 %
15.06.2017 14:10 27,1 C 26,7 C 34 % 1015,1 hPa 0,0 l/m 8,4 km/h (2 Bft) O-SO 122 2 min 0,000 mm 6,4 UV-I 892 W/m 9,9 C 26,7 C 12,9 km/h (3 Bft) 97,14 %
15.06.2017 14:12 27,1 C 26,1 C 35 % 1015,1 hPa 0,0 l/m 7,8 km/h (2 Bft) O-SO 107 2 min 0,000 mm 6,4 UV-I 896 W/m 10,3 C 26,8 C 11,3 km/h (2 Bft) 98,11 %
15.06.2017 14:14 27,2 C 26,1 C 36 % 1015,1 hPa 0,0 l/m 8,0 km/h (2 Bft) O 88 2 min 0,000 mm 6,4 UV-I 893 W/m 10,8 C 26,9 C 12,9 km/h (3 Bft) 98,11 %
15.06.2017 14:16 27,3 C 26,1 C 35 % 1015,1 hPa 0,0 l/m 6,3 km/h (2 Bft) O-SO 120 2 min 0,000 mm 6,4 UV-I 889 W/m 10,5 C 27,3 C 9,7 km/h (2 Bft) 97,73 %
15.06.2017 14:18 27,3 C 26,1 C 36 % 1015,1 hPa 0,0 l/m 5,0 km/h (1 Bft) O-NO 68 2 min 0,000 mm 6,3 UV-I 885 W/m 10,9 C 27,3 C 6,4 km/h (2 Bft) 100,00 %
15.06.2017 14:20 27,3 C 26,1 C 34 % 1015,1 hPa 0,0 l/m 4,1 km/h (1 Bft) SO 142 2 min 0,000 mm 6,2 UV-I 883 W/m 10,0 C 27,3 C 8,0 km/h (2 Bft) 98,11 %
15.06.2017 14:22 27,3 C 25,6 C 31 % 1015,0 hPa 0,0 l/m 7,0 km/h (2 Bft) S-SO 148 2 min 0,000 mm 6,2 UV-I 882 W/m 8,7 C 27,2 C 12,9 km/h (3 Bft) 100,00 %
15.06.2017 14:24 27,1 C 25,6 C 32 % 1015,0 hPa 0,0 l/m 3,9 km/h (1 Bft) S-SW 211 2 min 0,000 mm 6,2 UV-I 881 W/m 9,0 C 27,1 C 9,7 km/h (2 Bft) 94,00 %
15.06.2017 14:26 27,2 C 25,6 C 33 % 1015,1 hPa 0,0 l/m 9,3 km/h (2 Bft) S-SW 203 2 min 0,000 mm 6,2 UV-I 881 W/m 9,5 C 26,7 C 17,7 km/h (3 Bft) 98,00 %
15.06.2017 14:28 27,3 C 25,6 C 32 % 1015,0 hPa 0,0 l/m 8,3 km/h (2 Bft) S-SW 208 2 min 0,000 mm 6,1 UV-I 876 W/m 9,1 C 27,0 C 14,5 km/h (3 Bft) 97,44 %
15.06.2017 14:30 27,4 C 25,6 C 34 % 1015,0 hPa 0,0 l/m 9,8 km/h (2 Bft) SW 235 2 min 0,000 mm 6,1 UV-I 872 W/m 10,1 C 26,8 C 12,9 km/h (3 Bft) 100,00 %
15.06.2017 14:32 27,6 C 25,6 C 34 % 1015,0 hPa 0,0 l/m 4,6 km/h (1 Bft) S-SO 157 2 min 0,000 mm 6,0 UV-I 871 W/m 10,3 C 27,6 C 9,7 km/h (2 Bft) 96,00 %
15.06.2017 14:34 27,7 C 25,6 C 34 % 1015,0 hPa 0,0 l/m 10,6 km/h (2 Bft) S-SW 207 2 min 0,000 mm 6,0 UV-I 867 W/m 10,4 C 27,1 C 16,1 km/h (3 Bft) 100,00 %
15.06.2017 14:36 27,7 C 25,6 C 33 % 1015,0 hPa 0,0 l/m 6,5 km/h (2 Bft) W-NW 284 2 min 0,000 mm 5,9 UV-I 865 W/m 9,9 C 27,7 C 9,7 km/h (2 Bft) 98,11 %
15.06.2017 14:38 27,7 C 25,6 C 33 % 1015,0 hPa 0,0 l/m 2,2 km/h (1 Bft) S-SW 204 2 min 0,000 mm 5,9 UV-I 861 W/m 9,9 C 27,7 C 9,7 km/h (2 Bft) 100,00 %
15.06.2017 14:40 27,5 C 25,6 C 32 % 1015,0 hPa 0,0 l/m 4,8 km/h (1 Bft) W-SW 247 2 min 0,000 mm 5,9 UV-I 860 W/m 9,3 C 27,5 C 11,3 km/h (2 Bft) 97,50 %
15.06.2017 14:42 27,4 C 25,6 C 30 % 1015,0 hPa 0,0 l/m 7,3 km/h (2 Bft) S-SO 161 2 min 0,000 mm 5,9 UV-I 859 W/m 8,3 C 27,2 C 11,3 km/h (2 Bft) 96,00 %
15.06.2017 14:44 27,3 C 25,6 C 33 % 1015,0 hPa 0,0 l/m 4,2 km/h (1 Bft) W-SW 250 2 min 0,000 mm 5,8 UV-I 856 W/m 9,6 C 27,3 C 8,0 km/h (2 Bft) 100,00 %
15.06.2017 14:46 27,4 C 25,6 C 34 % 1015,0 hPa 0,0 l/m 9,7 km/h (2 Bft) SW 215 2 min 0,000 mm 5,8 UV-I 853 W/m 10,1 C 26,9 C 17,7 km/h (3 Bft) 97,37 %
15.06.2017 14:48 27,6 C 25,6 C 33 % 1015,0 hPa 0,0 l/m 9,0 km/h (2 Bft) S-SW 202 2 min 0,000 mm 5,7 UV-I 848 W/m 9,9 C 27,2 C 12,9 km/h (3 Bft) 98,11 %
15.06.2017 14:50 27,5 C 25,6 C 32 % 1015,0 hPa 0,0 l/m 5,2 km/h (1 Bft) W-SW 250 2 min 0,000 mm 5,7 UV-I 845 W/m 9,3 C 27,5 C 11,3 km/h (2 Bft) 100,00 %
15.06.2017 14:52 27,4 C 25,6 C 33 % 1014,9 hPa 0,0 l/m 3,8 km/h (1 Bft) W-SW 237 2 min 0,000 mm 5,6 UV-I 844 W/m 9,7 C 27,4 C 8,0 km/h (2 Bft) 97,56 %
15.06.2017 14:54 27,3 C 25,6 C 36 % 1014,9 hPa 0,0 l/m 6,2 km/h (2 Bft) S-SW 205 2 min 0,000 mm 5,6 UV-I 843 W/m 10,9 C 27,3 C 14,5 km/h (3 Bft) 92,00 %
15.06.2017 14:56 27,6 C 25,6 C 33 % 1014,9 hPa 0,0 l/m 6,3 km/h (2 Bft) S 187 2 min 0,000 mm 5,6 UV-I 840 W/m 9,9 C 27,6 C 12,9 km/h (3 Bft) 98,00 %
15.06.2017 14:58 27,5 C 25,6 C 33 % 1014,9 hPa 0,0 l/m 4,4 km/h (1 Bft) W-SW 243 2 min 0,000 mm 5,5 UV-I 837 W/m 9,8 C 27,5 C 16,1 km/h (3 Bft) 100,00 %
15.06.2017 15:00 27,7 C 25,6 C 33 % 1014,9 hPa 0,0 l/m 8,7 km/h (2 Bft) SW 218 2 min 0,000 mm 5,5 UV-I 832 W/m 9,9 C 27,3 C 14,5 km/h (3 Bft) 100,00 %
15.06.2017 15:02 27,7 C 25,6 C 34 % 1014,9 hPa 0,0 l/m 8,0 km/h (2 Bft) W-SW 252 2 min 0,635 mm 5,4 UV-I 830 W/m 10,4 C 27,4 C 16,1 km/h (3 Bft) 98,11 %
15.06.2017 15:04 27,6 C 25,6 C 34 % 1014,9 hPa 0,0 l/m 9,8 km/h (2 Bft) W-SW 240 2 min 0,000 mm 5,4 UV-I 824 W/m 10,3 C 27,1 C 14,5 km/h (3 Bft) 97,37 %
15.06.2017 15:06 27,6 C 25,6 C 36 % 1014,8 hPa 0,0 l/m 6,3 km/h (2 Bft) S-SW 196 2 min 0,000 mm 5,3 UV-I 820 W/m 11,2 C 27,6 C 11,3 km/h (2 Bft) 100,00 %
15.06.2017 15:08 27,6 C 25,6 C 33 % 1014,8 hPa 0,0 l/m 3,5 km/h (1 Bft) S-SO 157 2 min 0,000 mm 5,3 UV-I 818 W/m 9,9 C 27,6 C 9,7 km/h (2 Bft) 97,62 %
15.06.2017 15:10 27,4 C 25,6 C 32 % 1014,8 hPa 0,0 l/m 1,6 km/h (1 Bft) S-SO 155 2 min 0,000 mm 5,2 UV-I 813 W/m 9,2 C 27,4 C 6,4 km/h (2 Bft) 100,00 %
15.06.2017 15:12 27,4 C 25,6 C 33 % 1014,8 hPa 0,0 l/m 4,6 km/h (1 Bft) S-SO 160 2 min 0,000 mm 5,2 UV-I 810 W/m 9,7 C 27,4 C 8,0 km/h (2 Bft) 97,87 %
15.06.2017 15:14 27,5 C 25,6 C 33 % 1014,8 hPa 0,0 l/m 2,8 km/h (1 Bft) S-SO 148 2 min 0,000 mm 5,1 UV-I 808 W/m 9,8 C 27,5 C 6,4 km/h (2 Bft) 97,87 %
15.06.2017 15:16 27,4 C 25,6 C 33 % 1014,7 hPa 0,0 l/m 3,3 km/h (1 Bft) O-SO 103 2 min 0,000 mm 5,1 UV-I 804 W/m 9,7 C 27,4 C 6,4 km/h (2 Bft) 97,56 %
15.06.2017 15:18 27,4 C 25,6 C 37 % 1014,7 hPa 0,0 l/m 3,6 km/h (1 Bft) O-NO 60 2 min 0,000 mm 5,1 UV-I 801 W/m 11,4 C 27,4 C 4,8 km/h (1 Bft) 98,31 %
15.06.2017 15:20 27,4 C 25,6 C 37 % 1014,7 hPa 0,0 l/m 3,3 km/h (1 Bft) O-NO 60 2 min 0,000 mm 5,0 UV-I 797 W/m 11,4 C 27,4 C 4,8 km/h (1 Bft) 100,00 %
15.06.2017 15:22 27,5 C 25,6 C 34 % 1014,7 hPa 0,0 l/m 1,2 km/h (1 Bft) NO 38 2 min 0,000 mm 4,9 UV-I 791 W/m 10,2 C 27,5 C 3,2 km/h (1 Bft) 95,12 %
15.06.2017 15:24 27,7 C 25,6 C 34 % 1014,6 hPa 0,0 l/m 3,5 km/h (1 Bft) SW 230 2 min 0,000 mm 4,9 UV-I 786 W/m 10,4 C 27,7 C 8,0 km/h (2 Bft) 94,34 %
15.06.2017 15:26 27,8 C 25,6 C 35 % 1014,7 hPa 0,0 l/m 3,9 km/h (1 Bft) SW 218 2 min 0,000 mm 4,8 UV-I 780 W/m 10,9 C 27,8 C 8,0 km/h (2 Bft) 97,56 %
15.06.2017 15:28 27,8 C 25,6 C 35 % 1014,6 hPa 0,0 l/m 3,5 km/h (1 Bft) O-NO 72 2 min 0,000 mm 4,8 UV-I 778 W/m 10,9 C 27,8 C 9,7 km/h (2 Bft) 92,00 %
15.06.2017 15:30 27,9 C 25,6 C 34 % 1014,6 hPa 0,0 l/m 4,0 km/h (1 Bft) S-SO 148 2 min 0,000 mm 4,8 UV-I 775 W/m 10,6 C 27,9 C 6,4 km/h (2 Bft) 94,74 %
15.06.2017 15:32 27,9 C 25,6 C 34 % 1014,6 hPa 0,0 l/m 6,2 km/h (2 Bft) SW 227 2 min 0,000 mm 4,7 UV-I 769 W/m 10,6 C 27,9 C 9,7 km/h (2 Bft) 92,00 %
15.06.2017 15:34 27,8 C 25,6 C 34 % 1014,5 hPa 0,0 l/m 4,7 km/h (1 Bft) S-SW 206 2 min 0,000 mm 4,6 UV-I 766 W/m 10,5 C 27,8 C 9,7 km/h (2 Bft) 96,23 %
15.06.2017 15:36 27,9 C 25,6 C 35 % 1014,6 hPa 0,0 l/m 8,2 km/h (2 Bft) W-SW 238 2 min 0,000 mm 4,6 UV-I 761 W/m 11,0 C 27,6 C 14,5 km/h (3 Bft) 90,00 %
15.06.2017 15:38 27,9 C 25,6 C 32 % 1014,6 hPa 0,0 l/m 5,5 km/h (1 Bft) S-SO 157 2 min 0,000 mm 4,5 UV-I 754 W/m 9,7 C 27,9 C 11,3 km/h (2 Bft) 92,00 %
15.06.2017 15:40 27,8 C 25,6 C 34 % 1014,6 hPa 0,0 l/m 3,5 km/h (1 Bft) S 181 2 min 0,000 mm 4,5 UV-I 750 W/m 10,5 C 27,8 C 9,7 km/h (2 Bft) 94,00 %
15.06.2017 15:43 27,9 C 25,6 C 32 % 1014,5 hPa 0,0 l/m 5,7 km/h (1 Bft) W-SW 237 3 min 0,000 mm 4,4 UV-I 745 W/m 9,7 C 27,9 C 9,7 km/h (2 Bft) 94,37 %
15.06.2017 15:44 27,9 C 25,6 C 34 % 1014,5 hPa 0,0 l/m 8,1 km/h (2 Bft) S-SW 192 1 min 0,000 mm 4,4 UV-I 744 W/m 10,6 C 27,6 C 11,3 km/h (2 Bft) 90,91 %
15.06.2017 15:46 27,9 C 25,6 C 33 % 1014,5 hPa 0,0 l/m 4,4 km/h (1 Bft) O-SO 117 2 min 0,000 mm 4,3 UV-I 742 W/m 10,1 C 27,9 C 9,7 km/h (2 Bft) 92,86 %
15.06.2017 15:48 28,1 C 25,6 C 33 % 1014,4 hPa 0,0 l/m 4,5 km/h (1 Bft) O-NO 65 2 min 0,000 mm 4,2 UV-I 732 W/m 10,3 C 28,1 C 9,7 km/h (2 Bft) 91,67 %
15.06.2017 15:50 28,2 C 25,6 C 33 % 1014,4 hPa 0,0 l/m 2,7 km/h (1 Bft) O-SO 120 2 min 0,000 mm 4,2 UV-I 724 W/m 10,4 C 28,2 C 6,4 km/h (2 Bft) 94,83 %
15.06.2017 15:52 28,3 C 25,6 C 32 % 1014,4 hPa 0,0 l/m 4,4 km/h (1 Bft) O 99 2 min 0,000 mm 4,1 UV-I 718 W/m 10,0 C 28,3 C 9,7 km/h (2 Bft) 93,62 %
15.06.2017 15:54 28,2 C 25,6 C 33 % 1014,4 hPa 0,0 l/m 3,9 km/h (1 Bft) SO 138 2 min 0,000 mm 4,0 UV-I 714 W/m 10,4 C 28,2 C 6,4 km/h (2 Bft) 98,00 %
15.06.2017 15:56 28,1 C 25,6 C 32 % 1014,3 hPa 0,0 l/m 7,9 km/h (2 Bft) SW 234 2 min 0,000 mm 4,0 UV-I 712 W/m 9,8 C 27,9 C 17,7 km/h (3 Bft) 95,83 %
15.06.2017 15:58 28,2 C 25,6 C 33 % 1014,3 hPa 0,0 l/m 8,2 km/h (2 Bft) N-NW 340 2 min 0,000 mm 4,0 UV-I 708 W/m 10,4 C 27,9 C 19,3 km/h (3 Bft) 93,62 %
15.06.2017 16:00 28,3 C 25,6 C 36 % 1014,3 hPa 0,0 l/m 2,7 km/h (1 Bft) N-NW 336 2 min 0,558 mm 4,0 UV-I 708 W/m 11,8 C 28,3 C 6,4 km/h (2 Bft) 97,37 %
15.06.2017 16:02 28,3 C 25,6 C 35 % 1014,3 hPa 0,0 l/m 7,0 km/h (2 Bft) NO 41 2 min 0,000 mm 3,9 UV-I 703 W/m 11,4 C 28,2 C 12,9 km/h (3 Bft) 96,23 %
15.06.2017 16:04 28,3 C 25,6 C 36 % 1014,3 hPa 0,0 l/m 8,8 km/h (2 Bft) N-NO 28 2 min 0,000 mm 3,9 UV-I 698 W/m 11,8 C 28,0 C 12,9 km/h (3 Bft) 95,12 %
15.06.2017 16:06 28,3 C 25,6 C 35 % 1014,2 hPa 0,0 l/m 8,0 km/h (2 Bft) N-NW 341 2 min 0,000 mm 3,8 UV-I 692 W/m 11,4 C 28,1 C 17,7 km/h (3 Bft) 98,11 %
15.06.2017 16:08 28,3 C 26,1 C 34 % 1014,2 hPa 0,0 l/m 3,6 km/h (1 Bft) NW 311 2 min 0,000 mm 3,7 UV-I 687 W/m 10,9 C 28,3 C 6,4 km/h (2 Bft) 93,62 %
15.06.2017 16:10 28,2 C 25,6 C 33 % 1014,3 hPa 0,0 l/m 3,7 km/h (1 Bft) NW 310 2 min 0,000 mm 3,7 UV-I 683 W/m 10,4 C 28,2 C 9,7 km/h (2 Bft) 93,62 %
15.06.2017 16:12 28,2 C 26,1 C 37 % 1014,3 hPa 0,0 l/m 2,5 km/h (1 Bft) W-NW 298 2 min 0,000 mm 3,7 UV-I 678 W/m 12,1 C 28,2 C 8,0 km/h (2 Bft) 95,74 %
15.06.2017 16:14 28,1 C 26,1 C 34 % 1014,3 hPa 0,0 l/m 2,4 km/h (1 Bft) N-NO 13 2 min 0,000 mm 3,6 UV-I 676 W/m 10,7 C 28,1 C 6,4 km/h (2 Bft) 94,74 %
15.06.2017 16:16 27,9 C 26,1 C 35 % 1014,2 hPa 0,0 l/m 6,9 km/h (2 Bft) N-NW 344 2 min 0,000 mm 3,6 UV-I 672 W/m 11,0 C 27,8 C 12,9 km/h (3 Bft) 96,23 %
15.06.2017 16:18 28,1 C 26,1 C 35 % 1014,1 hPa 0,0 l/m 2,2 km/h (1 Bft) N 351 2 min 0,000 mm 3,5 UV-I 669 W/m 11,2 C 28,1 C 4,8 km/h (1 Bft) 95,12 %
15.06.2017 16:20 27,9 C 26,1 C 36 % 1014,1 hPa 0,0 l/m 3,8 km/h (1 Bft) N-NO 30 2 min 0,000 mm 3,5 UV-I 664 W/m 11,4 C 27,9 C 8,0 km/h (2 Bft) 96,43 %
15.06.2017 16:22 27,8 C 26,1 C 38 % 1014,1 hPa 0,0 l/m 0,9 km/h (0 Bft) N 355 2 min 0,000 mm 3,4 UV-I 657 W/m 12,2 C 27,8 C 3,2 km/h (1 Bft) 100,00 %
15.06.2017 16:24 27,9 C 26,1 C 35 % 1014,1 hPa 0,0 l/m 2,0 km/h (1 Bft) N 360 2 min 0,000 mm 3,4 UV-I 651 W/m 11,0 C 27,9 C 4,8 km/h (1 Bft) 98,00 %
15.06.2017 16:26 28,0 C 26,1 C 38 % 1014,1 hPa 0,0 l/m 1,1 km/h (1 Bft) N-NO 17 2 min 0,000 mm 3,3 UV-I 644 W/m 12,3 C 28,0 C 3,2 km/h (1 Bft) 98,11 %
15.06.2017 16:28 28,1 C 26,1 C 32 % 1014,1 hPa 0,0 l/m 1,6 km/h (1 Bft) N-NW 341 2 min 0,000 mm 3,2 UV-I 640 W/m 9,8 C 28,1 C 3,2 km/h (1 Bft) 97,22 %
15.06.2017 16:30 27,9 C 26,1 C 32 % 1014,1 hPa 0,0 l/m 3,2 km/h (1 Bft) W-NW 295 2 min 0,000 mm 3,2 UV-I 635 W/m 9,7 C 27,9 C 6,4 km/h (2 Bft) 96,36 %
15.06.2017 16:32 27,8 C 26,1 C 36 % 1014,1 hPa 0,0 l/m 1,3 km/h (1 Bft) W-NW 295 2 min 0,000 mm 3,1 UV-I 631 W/m 11,3 C 27,8 C 3,2 km/h (1 Bft) 100,00 %
15.06.2017 16:34 27,8 C 26,1 C 34 % 1014,1 hPa 0,0 l/m 0,4 km/h (0 Bft) W-NW 295 2 min 0,000 mm 3,1 UV-I 626 W/m 10,5 C 27,8 C 1,6 km/h (1 Bft) 98,11 %
15.06.2017 16:36 27,9 C 26,1 C 35 % 1014,1 hPa 0,0 l/m 3,4 km/h (1 Bft) NW 305 2 min 0,000 mm 3,1 UV-I 619 W/m 11,0 C 27,9 C 11,3 km/h (2 Bft) 97,37 %
15.06.2017 16:38 28,1 C 26,1 C 35 % 1014,1 hPa 0,0 l/m 2,0 km/h (1 Bft) NW 313 2 min 0,000 mm 3,0 UV-I 614 W/m 11,2 C 28,1 C 3,2 km/h (1 Bft) 97,87 %
15.06.2017 16:40 28,1 C 26,1 C 36 % 1014,1 hPa 0,0 l/m 1,8 km/h (1 Bft) N 5 2 min 0,000 mm 3,0 UV-I 611 W/m 11,6 C 28,1 C 4,8 km/h (1 Bft) 100,00 %
15.06.2017 16:42 28,1 C 26,1 C 33 % 1014,0 hPa 0,0 l/m 0,5 km/h (0 Bft) N 5 2 min 0,000 mm 2,9 UV-I 605 W/m 10,3 C 28,1 C 1,6 km/h (1 Bft) 98,00 %
15.06.2017 16:44 28,1 C 26,1 C 33 % 1014,0 hPa 0,0 l/m 4,6 km/h (1 Bft) W 273 2 min 0,000 mm 2,9 UV-I 601 W/m 10,3 C 28,1 C 6,4 km/h (2 Bft) 97,73 %
15.06.2017 16:46 28,0 C 26,1 C 33 % 1013,9 hPa 0,0 l/m 3,9 km/h (1 Bft) W-SW 248 2 min 0,000 mm 2,8 UV-I 597 W/m 10,2 C 28,0 C 4,8 km/h (1 Bft) 100,00 %
15.06.2017 16:48 28,1 C 26,1 C 33 % 1013,9 hPa 0,0 l/m 2,8 km/h (1 Bft) W-SW 249 2 min 0,000 mm 2,8 UV-I 592 W/m 10,3 C 28,1 C 4,8 km/h (1 Bft) 97,87 %
15.06.2017 16:50 28,2 C 26,1 C 34 % 1013,9 hPa 0,0 l/m 4,5 km/h (1 Bft) W 265 2 min 0,000 mm 2,7 UV-I 583 W/m 10,8 C 28,2 C 9,7 km/h (2 Bft) 100,00 %
15.06.2017 16:52 28,2 C 26,1 C 33 % 1013,9 hPa 0,0 l/m 4,3 km/h (1 Bft) W 264 2 min 0,000 mm 2,7 UV-I 578 W/m 10,4 C 28,2 C 4,8 km/h (1 Bft) 95,74 %
15.06.2017 16:54 28,0 C 26,1 C 33 % 1013,8 hPa 0,0 l/m 2,2 km/h (1 Bft) W 265 2 min 0,000 mm 2,6 UV-I 573 W/m 10,2 C 28,0 C 4,8 km/h (1 Bft) 100,00 %
15.06.2017 16:56 28,0 C 26,1 C 34 % 1013,8 hPa 0,0 l/m 5,0 km/h (1 Bft) O 90 2 min 0,000 mm 2,6 UV-I 565 W/m 10,7 C 28,0 C 6,4 km/h (2 Bft) 100,00 %
15.06.2017 16:58 28,1 C 26,1 C 39 % 1013,8 hPa 0,0 l/m 3,9 km/h (1 Bft) N 5 2 min 0,000 mm 2,5 UV-I 559 W/m 12,8 C 28,1 C 12,9 km/h (3 Bft) 97,56 %
15.06.2017 17:00 28,1 C 26,1 C 37 % 1013,8 hPa 0,0 l/m 8,4 km/h (2 Bft) N-NO 28 2 min 0,458 mm 2,5 UV-I 556 W/m 12,0 C 27,8 C 14,5 km/h (3 Bft) 98,00 %
15.06.2017 17:02 28,1 C 26,1 C 36 % 1013,8 hPa 0,0 l/m 6,7 km/h (2 Bft) N-NO 28 2 min 0,000 mm 2,4 UV-I 552 W/m 11,6 C 28,1 C 14,5 km/h (3 Bft) 97,56 %
15.06.2017 17:04 28,1 C 26,1 C 37 % 1013,7 hPa 0,0 l/m 3,7 km/h (1 Bft) NO 50 2 min 0,000 mm 2,4 UV-I 548 W/m 12,0 C 28,1 C 8,0 km/h (2 Bft) 98,00 %
15.06.2017 17:06 28,1 C 26,1 C 36 % 1013,7 hPa 0,0 l/m 7,8 km/h (2 Bft) NO 46 2 min 0,000 mm 2,4 UV-I 542 W/m 11,6 C 27,9 C 11,3 km/h (2 Bft) 97,87 %
15.06.2017 17:08 28,1 C 26,1 C 38 % 1013,6 hPa 0,0 l/m 5,6 km/h (1 Bft) N-NO 20 2 min 0,000 mm 2,3 UV-I 538 W/m 12,4 C 28,1 C 9,7 km/h (2 Bft) 94,44 %
15.06.2017 17:10 28,1 C 26,1 C 33 % 1013,6 hPa 0,0 l/m 2,3 km/h (1 Bft) NW 317 2 min 0,000 mm 2,3 UV-I 532 W/m 10,3 C 28,1 C 4,8 km/h (1 Bft) 98,39 %
15.06.2017 17:12 28,1 C 26,1 C 36 % 1013,6 hPa 0,0 l/m 2,4 km/h (1 Bft) NO 53 2 min 0,000 mm 2,2 UV-I 525 W/m 11,6 C 28,1 C 6,4 km/h (2 Bft) 95,74 %
15.06.2017 17:14 28,2 C 26,1 C 33 % 1013,6 hPa 0,0 l/m 3,7 km/h (1 Bft) NO 53 2 min 0,000 mm 2,2 UV-I 520 W/m 10,4 C 28,2 C 6,4 km/h (2 Bft) 96,00 %
15.06.2017 17:16 28,3 C 26,1 C 34 % 1013,6 hPa 0,0 l/m 4,6 km/h (1 Bft) NO 49 2 min 0,000 mm 2,1 UV-I 514 W/m 10,9 C 28,3 C 6,4 km/h (2 Bft) 92,11 %
15.06.2017 17:18 28,4 C 26,1 C 32 % 1013,5 hPa 0,0 l/m 3,6 km/h (1 Bft) NO 53 2 min 0,000 mm 2,1 UV-I 507 W/m 10,1 C 28,4 C 4,8 km/h (1 Bft) 96,23 %
15.06.2017 17:20 28,4 C 26,1 C 32 % 1013,5 hPa 0,0 l/m 3,6 km/h (1 Bft) O 80 2 min 0,000 mm 2,1 UV-I 503 W/m 10,1 C 28,4 C 8,0 km/h (2 Bft) 97,73 %
15.06.2017 17:22 28,2 C 26,1 C 32 % 1013,5 hPa 0,0 l/m 1,1 km/h (1 Bft) O 80 2 min 0,000 mm 2,0 UV-I 497 W/m 9,9 C 28,2 C 6,4 km/h (2 Bft) 98,00 %
15.06.2017 17:24 28,2 C 26,1 C 35 % 1013,5 hPa 0,0 l/m 0,4 km/h (0 Bft) O 80 2 min 0,000 mm 2,0 UV-I 491 W/m 11,3 C 28,2 C 1,6 km/h (1 Bft) 97,96 %
15.06.2017 17:26 28,4 C 26,1 C 37 % 1013,5 hPa 0,0 l/m 2,9 km/h (1 Bft) O-NO 61 2 min 0,000 mm 1,9 UV-I 486 W/m 12,3 C 28,4 C 6,4 km/h (2 Bft) 92,31 %
15.06.2017 17:28 28,6 C 26,1 C 34 % 1013,4 hPa 0,0 l/m 3,9 km/h (1 Bft) O-NO 61 2 min 0,000 mm 1,9 UV-I 481 W/m 11,2 C 28,6 C 6,4 km/h (2 Bft) 94,12 %
15.06.2017 17:30 28,6 C 26,1 C 38 % 1013,4 hPa 0,0 l/m 2,8 km/h (1 Bft) N-NO 15 2 min 0,000 mm 1,9 UV-I 474 W/m 12,9 C 28,6 C 6,4 km/h (2 Bft) 93,18 %
15.06.2017 17:32 28,3 C 26,1 C 36 % 1013,4 hPa 0,0 l/m 1,7 km/h (1 Bft) NW 317 2 min 0,000 mm 1,8 UV-I 469 W/m 11,8 C 28,3 C 3,2 km/h (1 Bft) 97,73 %
15.06.2017 17:34 28,3 C 26,1 C 39 % 1013,4 hPa 0,0 l/m 1,0 km/h (0 Bft) N 9 2 min 0,000 mm 1,8 UV-I 464 W/m 13,0 C 28,3 C 3,2 km/h (1 Bft) 95,74 %
15.06.2017 17:36 28,2 C 26,1 C 34 % 1013,4 hPa 0,0 l/m 2,4 km/h (1 Bft) NW 324 2 min 0,000 mm 1,7 UV-I 459 W/m 10,8 C 28,2 C 4,8 km/h (1 Bft) 100,00 %
15.06.2017 17:38 28,1 C 26,1 C 34 % 1013,4 hPa 0,0 l/m 2,5 km/h (1 Bft) N-NW 332 2 min 0,000 mm 1,7 UV-I 454 W/m 10,7 C 28,1 C 6,4 km/h (2 Bft) 100,00 %
15.06.2017 17:40 28,0 C 26,1 C 35 % 1013,4 hPa 0,0 l/m 1,6 km/h (1 Bft) NW 320 2 min 0,000 mm 1,7 UV-I 448 W/m 11,1 C 28,0 C 3,2 km/h (1 Bft) 97,87 %
15.06.2017 17:42 27,9 C 26,1 C 34 % 1013,4 hPa 0,0 l/m 0,9 km/h (0 Bft) NW 311 2 min 0,000 mm 1,6 UV-I 443 W/m 10,6 C 27,9 C 3,2 km/h (1 Bft) 100,00 %
15.06.2017 17:44 27,8 C 26,1 C 36 % 1013,3 hPa 0,0 l/m 2,5 km/h (1 Bft) N-NW 333 2 min 0,000 mm 1,6 UV-I 437 W/m 11,3 C 27,8 C 3,2 km/h (1 Bft) 100,00 %
15.06.2017 17:46 27,8 C 26,1 C 38 % 1013,3 hPa 0,0 l/m 4,6 km/h (1 Bft) N-NO 27 2 min 0,000 mm 1,5 UV-I 430 W/m 12,2 C 27,8 C 8,0 km/h (2 Bft) 100,00 %
15.06.2017 17:48 27,8 C 26,1 C 36 % 1013,4 hPa 0,0 l/m 5,6 km/h (1 Bft) N-NO 28 2 min 0,000 mm 1,5 UV-I 422 W/m 11,3 C 27,8 C 8,0 km/h (2 Bft) 97,92 %
15.06.2017 17:50 27,8 C 26,1 C 36 % 1013,3 hPa 0,0 l/m 2,3 km/h (1 Bft) N 9 2 min 0,000 mm 1,4 UV-I 415 W/m 11,3 C 27,8 C 4,8 km/h (1 Bft) 97,87 %
15.06.2017 17:52 27,7 C 26,1 C 37 % 1013,4 hPa 0,0 l/m 1,3 km/h (1 Bft) NW 308 2 min 0,000 mm 1,4 UV-I 409 W/m 11,7 C 27,7 C 4,8 km/h (1 Bft) 97,87 %
15.06.2017 17:54 27,7 C 26,1 C 35 % 1013,3 hPa 0,0 l/m 0,7 km/h (0 Bft) NW 308 2 min 0,000 mm 1,4 UV-I 405 W/m 10,8 C 27,7 C 3,2 km/h (1 Bft) 90,00 %
15.06.2017 17:56 27,7 C 26,1 C 34 % 1013,3 hPa 0,0 l/m 0,0 km/h (0 Bft) NW 308 2 min 0,000 mm 1,3 UV-I 400 W/m 10,4 C 27,7 C 0,0 km/h (0 Bft) 97,56 %
15.06.2017 17:58 27,7 C 26,1 C 38 % 1013,3 hPa 0,0 l/m 1,4 km/h (1 Bft) N-NW 340 2 min 0,000 mm 1,3 UV-I 395 W/m 12,1 C 27,7 C 3,2 km/h (1 Bft) 100,00 %
15.06.2017 18:00 27,7 C 26,1 C 38 % 1013,3 hPa 0,0 l/m 1,0 km/h (0 Bft) N-NW 340 2 min 0,000 mm 1,3 UV-I 390 W/m 12,1 C 27,7 C 3,2 km/h (1 Bft) 96,23 %
15.06.2017 18:02 27,7 C 26,1 C 35 % 1013,2 hPa 0,0 l/m 0,1 km/h (0 Bft) N-NW 340 2 min 0,355 mm 1,3 UV-I 383 W/m 10,8 C 27,7 C 1,6 km/h (1 Bft) 100,00 %
15.06.2017 18:04 27,8 C 26,1 C 37 % 1013,3 hPa 0,0 l/m 1,3 km/h (1 Bft) N-NO 27 2 min 0,000 mm 1,2 UV-I 377 W/m 11,8 C 27,8 C 4,8 km/h (1 Bft) 95,74 %
15.06.2017 18:06 27,8 C 26,1 C 40 % 1013,3 hPa 0,0 l/m 3,4 km/h (1 Bft) NO 37 2 min 0,000 mm 1,2 UV-I 371 W/m 12,9 C 27,8 C 6,4 km/h (2 Bft) 100,00 %
15.06.2017 18:08 27,8 C 26,1 C 37 % 1013,3 hPa 0,0 l/m 4,0 km/h (1 Bft) O-NO 57 2 min 0,000 mm 1,2 UV-I 365 W/m 11,8 C 27,8 C 6,4 km/h (2 Bft) 98,21 %
15.06.2017 18:10 27,9 C 26,1 C 36 % 1013,3 hPa 0,0 l/m 3,3 km/h (1 Bft) NO 47 2 min 0,000 mm 1,1 UV-I 359 W/m 11,4 C 27,9 C 6,4 km/h (2 Bft) 97,87 %
15.06.2017 18:13 27,9 C 26,1 C 39 % 1013,2 hPa 0,0 l/m 5,2 km/h (1 Bft) N-NO 19 3 min 0,000 mm 1,1 UV-I 352 W/m 12,6 C 27,9 C 8,0 km/h (2 Bft) 98,46 %
15.06.2017 18:14 27,8 C 26,1 C 40 % 1013,2 hPa 0,0 l/m 7,8 km/h (2 Bft) N-NO 21 1 min 0,000 mm 1,1 UV-I 346 W/m 12,9 C 27,6 C 9,7 km/h (2 Bft) 100,00 %
15.06.2017 18:16 27,7 C 26,1 C 40 % 1013,2 hPa 0,0 l/m 6,3 km/h (2 Bft) N-NO 17 2 min 0,000 mm 1,1 UV-I 343 W/m 12,9 C 27,7 C 9,7 km/h (2 Bft) 100,00 %
15.06.2017 18:18 27,6 C 26,1 C 39 % 1013,2 hPa 0,0 l/m 4,8 km/h (1 Bft) NO 40 2 min 0,000 mm 1,0 UV-I 336 W/m 12,4 C 27,6 C 6,4 km/h (2 Bft) 98,31 %
15.06.2017 18:20 27,7 C 26,1 C 41 % 1013,2 hPa 0,0 l/m 3,2 km/h (1 Bft) NO 40 2 min 0,000 mm 1,0 UV-I 330 W/m 13,2 C 27,7 C 4,8 km/h (1 Bft) 97,87 %
15.06.2017 18:22 27,7 C 26,1 C 40 % 1013,1 hPa 0,0 l/m 4,6 km/h (1 Bft) NO 40 2 min 0,000 mm 1,0 UV-I 324 W/m 12,9 C 27,7 C 6,4 km/h (2 Bft) 100,00 %
15.06.2017 18:24 27,6 C 26,1 C 37 % 1013,1 hPa 0,0 l/m 1,2 km/h (1 Bft) NO 40 2 min 0,000 mm 0,9 UV-I 317 W/m 11,6 C 27,6 C 3,2 km/h (1 Bft) 100,00 %
15.06.2017 18:26 27,7 C 26,1 C 37 % 1013,1 hPa 0,0 l/m 1,8 km/h (1 Bft) NO 43 2 min 0,000 mm 0,9 UV-I 312 W/m 11,7 C 27,7 C 4,8 km/h (1 Bft) 97,22 %
15.06.2017 18:28 27,8 C 26,1 C 36 % 1013,1 hPa 0,0 l/m 2,7 km/h (1 Bft) NO 43 2 min 0,000 mm 0,9 UV-I 306 W/m 11,3 C 27,8 C 4,8 km/h (1 Bft) 92,86 %
15.06.2017 18:30 27,8 C 26,1 C 39 % 1013,0 hPa 0,0 l/m 0,5 km/h (0 Bft) NO 43 2 min 0,000 mm 0,8 UV-I 300 W/m 12,6 C 27,8 C 1,6 km/h (1 Bft) 95,74 %
15.06.2017 18:32 27,8 C 26,1 C 38 % 1013,0 hPa 0,0 l/m 0,3 km/h (0 Bft) NO 43 2 min 0,000 mm 0,8 UV-I 294 W/m 12,2 C 27,8 C 1,6 km/h (1 Bft) 95,74 %
15.06.2017 18:34 27,8 C 26,1 C 40 % 1012,9 hPa 0,0 l/m 0,6 km/h (0 Bft) NO 43 2 min 0,000 mm 0,8 UV-I 288 W/m 12,9 C 27,8 C 1,6 km/h (1 Bft) 93,62 %
15.06.2017 18:36 27,7 C 26,1 C 38 % 1012,9 hPa 0,0 l/m 0,4 km/h (0 Bft) NO 43 2 min 0,000 mm 0,8 UV-I 283 W/m 12,1 C 27,7 C 1,6 km/h (1 Bft) 98,00 %
15.06.2017 18:38 27,7 C 26,1 C 40 % 1012,9 hPa 0,0 l/m 0,4 km/h (0 Bft) NO 43 2 min 0,000 mm 0,7 UV-I 278 W/m 12,9 C 27,7 C 1,6 km/h (1 Bft) 94,74 %
15.06.2017 18:40 27,6 C 26,1 C 42 % 1012,8 hPa 0,0 l/m 0,9 km/h (0 Bft) N-NO 32 2 min 0,000 mm 0,7 UV-I 273 W/m 13,5 C 27,6 C 3,2 km/h (1 Bft) 97,87 %
15.06.2017 18:42 27,3 C 26,1 C 39 % 1012,9 hPa 0,0 l/m 1,8 km/h (1 Bft) N-NO 22 2 min 0,000 mm 0,7 UV-I 267 W/m 12,1 C 27,3 C 3,2 km/h (1 Bft) 96,43 %
15.06.2017 18:44 27,2 C 26,1 C 39 % 1012,9 hPa 0,0 l/m 0,7 km/h (0 Bft) N-NO 22 2 min 0,000 mm 0,7 UV-I 260 W/m 12,0 C 27,2 C 3,2 km/h (1 Bft) 92,11 %
15.06.2017 18:46 27,2 C 26,1 C 43 % 1012,9 hPa 0,0 l/m 1,3 km/h (1 Bft) N-NO 22 2 min 0,000 mm 0,6 UV-I 254 W/m 13,5 C 27,2 C 3,2 km/h (1 Bft) 94,00 %
15.06.2017 18:48 27,2 C 26,1 C 41 % 1012,9 hPa 0,0 l/m 1,6 km/h (1 Bft) N-NO 22 2 min 0,000 mm 0,6 UV-I 249 W/m 12,8 C 27,2 C 3,2 km/h (1 Bft) 95,74 %
15.06.2017 18:50 27,2 C 26,1 C 39 % 1012,9 hPa 0,0 l/m 1,0 km/h (0 Bft) N-NO 22 2 min 0,000 mm 0,6 UV-I 243 W/m 12,0 C 27,2 C 1,6 km/h (1 Bft) 88,00 %
15.06.2017 18:52 27,4 C 26,1 C 41 % 1012,9 hPa 0,0 l/m 0,8 km/h (0 Bft) N-NO 22 2 min 0,000 mm 0,6 UV-I 236 W/m 13,0 C 27,4 C 3,2 km/h (1 Bft) 88,57 %
15.06.2017 18:54 27,4 C 26,1 C 38 % 1012,9 hPa 0,0 l/m 0,9 km/h (0 Bft) N-NO 22 2 min 0,000 mm 0,6 UV-I 230 W/m 11,8 C 27,4 C 3,2 km/h (1 Bft) 91,07 %
15.06.2017 18:56 27,4 C 26,1 C 41 % 1012,8 hPa 0,0 l/m 0,4 km/h (0 Bft) N-NO 21 2 min 0,000 mm 0,5 UV-I 226 W/m 13,0 C 27,4 C 1,6 km/h (1 Bft) 89,47 %
15.06.2017 18:58 27,3 C 26,1 C 43 % 1012,8 hPa 0,0 l/m 1,9 km/h (1 Bft) N-NO 21 2 min 0,000 mm 0,5 UV-I 221 W/m 13,6 C 27,3 C 4,8 km/h (1 Bft) 91,07 %
15.06.2017 19:00 27,2 C 26,1 C 43 % 1012,8 hPa 0,0 l/m 1,5 km/h (1 Bft) N-NO 21 2 min 0,229 mm 0,5 UV-I 216 W/m 13,5 C 27,2 C 4,8 km/h (1 Bft) 94,00 %
15.06.2017 19:02 27,1 C 26,1 C 42 % 1012,8 hPa 0,0 l/m 0,3 km/h (0 Bft) N-NO 21 2 min 0,000 mm 0,5 UV-I 212 W/m 13,1 C 27,1 C 1,6 km/h (1 Bft) 94,74 %
15.06.2017 19:04 27,2 C 26,1 C 41 % 1012,8 hPa 0,0 l/m 0,8 km/h (0 Bft) N 355 2 min 0,000 mm 0,5 UV-I 205 W/m 12,8 C 27,2 C 3,2 km/h (1 Bft) 86,11 %
15.06.2017 19:06 27,2 C 26,1 C 44 % 1012,8 hPa 0,0 l/m 0,3 km/h (0 Bft) N 355 2 min 0,000 mm 0,2 UV-I 200 W/m 13,9 C 27,2 C 1,6 km/h (1 Bft) 96,77 %
15.06.2017 19:08 27,1 C 26,1 C 41 % 1012,8 hPa 0,0 l/m 1,2 km/h (1 Bft) N 355 2 min 0,000 mm 0,0 UV-I 196 W/m 12,7 C 27,1 C 3,2 km/h (1 Bft) 92,00 %
15.06.2017 19:10 26,9 C 26,1 C 45 % 1012,8 hPa 0,0 l/m 0,7 km/h (0 Bft) N 5 2 min 0,000 mm 0,0 UV-I 188 W/m 13,9 C 26,9 C 3,2 km/h (1 Bft) 92,68 %
15.06.2017 19:12 26,7 C 26,1 C 44 % 1012,8 hPa 0,0 l/m 0,4 km/h (0 Bft) N 355 2 min 0,000 mm 0,0 UV-I 183 W/m 13,4 C 26,7 C 3,2 km/h (1 Bft) 92,45 %
15.06.2017 19:14 26,7 C 26,1 C 43 % 1012,8 hPa 0,0 l/m 0,4 km/h (0 Bft) N 355 2 min 0,000 mm 0,0 UV-I 178 W/m 13,1 C 26,7 C 3,2 km/h (1 Bft) 89,36 %
15.06.2017 19:16 26,7 C 26,1 C 45 % 1012,9 hPa 0,0 l/m 0,0 km/h (0 Bft) N 355 2 min 0,000 mm 0,0 UV-I 172 W/m 13,8 C 26,7 C 1,6 km/h (1 Bft) 94,74 %
15.06.2017 19:18 26,6 C 26,1 C 44 % 1012,9 hPa 0,0 l/m 0,7 km/h (0 Bft) N-NW 337 2 min 0,000 mm 0,0 UV-I 169 W/m 13,3 C 26,6 C 3,2 km/h (1 Bft) 97,87 %
15.06.2017 19:20 26,6 C 26,1 C 44 % 1012,9 hPa 0,0 l/m 1,4 km/h (1 Bft) N-NW 335 2 min 0,000 mm 0,0 UV-I 162 W/m 13,3 C 26,6 C 4,8 km/h (1 Bft) 97,87 %
15.06.2017 19:22 26,6 C 26,1 C 44 % 1012,9 hPa 0,0 l/m 0,8 km/h (0 Bft) N-NW 335 2 min 0,000 mm 0,0 UV-I 157 W/m 13,3 C 26,6 C 3,2 km/h (1 Bft) 93,62 %
15.06.2017 19:24 26,4 C 26,1 C 45 % 1013,0 hPa 0,0 l/m 1,2 km/h (1 Bft) N-NW 333 2 min 0,000 mm 0,0 UV-I 152 W/m 13,5 C 26,4 C 3,2 km/h (1 Bft) 97,87 %
15.06.2017 19:26 26,4 C 26,1 C 45 % 1013,0 hPa 0,0 l/m 1,0 km/h (0 Bft) N-NW 331 2 min 0,000 mm 0,0 UV-I 148 W/m 13,5 C 26,4 C 3,2 km/h (1 Bft) 98,11 %
15.06.2017 19:28 26,4 C 26,1 C 45 % 1013,0 hPa 0,0 l/m 0,7 km/h (0 Bft) N-NW 331 2 min 0,000 mm 0,0 UV-I 144 W/m 13,5 C 26,4 C 3,2 km/h (1 Bft) 98,00 %
15.06.2017 19:30 26,4 C 26,1 C 46 % 1013,0 hPa 0,0 l/m 1,8 km/h (1 Bft) N-NW 333 2 min 0,000 mm 0,0 UV-I 140 W/m 13,8 C 26,4 C 3,2 km/h (1 Bft) 100,00 %
15.06.2017 19:32 26,4 C 26,1 C 46 % 1013,1 hPa 0,0 l/m 0,4 km/h (0 Bft) N-NW 333 2 min 0,000 mm 0,0 UV-I 136 W/m 13,8 C 26,4 C 3,2 km/h (1 Bft) 100,00 %
15.06.2017 19:34 26,3 C 26,1 C 46 % 1013,0 hPa 0,0 l/m 0,4 km/h (0 Bft) N-NW 333 2 min 0,000 mm 0,0 UV-I 130 W/m 13,7 C 26,3 C 1,6 km/h (1 Bft) 97,87 %
15.06.2017 19:36 26,3 C 26,1 C 48 % 1013,0 hPa 0,0 l/m 0,2 km/h (0 Bft) N-NW 333 2 min 0,000 mm 0,0 UV-I 126 W/m 14,4 C 26,3 C 1,6 km/h (1 Bft) 100,00 %
15.06.2017 19:38 26,2 C 26,1 C 47 % 1013,1 hPa 0,0 l/m 0,5 km/h (0 Bft) N-NW 333 2 min 0,000 mm 0,0 UV-I 124 W/m 14,0 C 26,2 C 1,6 km/h (1 Bft) 100,00 %
15.06.2017 19:40 26,2 C 26,1 C 46 % 1013,1 hPa 0,0 l/m 0,3 km/h (0 Bft) N-NW 333 2 min 0,000 mm 0,0 UV-I 120 W/m 13,6 C 26,2 C 1,6 km/h (1 Bft) 96,23 %
15.06.2017 19:42 26,2 C 26,1 C 47 % 1013,1 hPa 0,0 l/m 0,4 km/h (0 Bft) N-NW 333 2 min 0,000 mm 0,0 UV-I 114 W/m 14,0 C 26,2 C 1,6 km/h (1 Bft) 100,00 %
15.06.2017 19:44 26,2 C 26,1 C 47 % 1013,1 hPa 0,0 l/m 0,3 km/h (0 Bft) N-NW 333 2 min 0,000 mm 0,0 UV-I 111 W/m 14,0 C 26,2 C 1,6 km/h (1 Bft) 98,00 %
15.06.2017 19:46 26,2 C 26,1 C 48 % 1013,1 hPa 0,0 l/m 2,0 km/h (1 Bft) N-NW 333 2 min 0,000 mm 0,0 UV-I 109 W/m 14,3 C 26,2 C 3,2 km/h (1 Bft) 95,74 %
15.06.2017 19:48 26,1 C 26,1 C 49 % 1013,1 hPa 0,0 l/m 1,6 km/h (1 Bft) N-NW 333 2 min 0,000 mm 0,0 UV-I 104 W/m 14,5 C 26,1 C 3,2 km/h (1 Bft) 100,00 %
15.06.2017 19:50 26,0 C 26,1 C 47 % 1013,1 hPa 0,0 l/m 0,1 km/h (0 Bft) N-NW 333 2 min 0,000 mm 0,0 UV-I 101 W/m 13,8 C 26,0 C 1,6 km/h (1 Bft) 97,87 %
15.06.2017 19:52 26,1 C 26,1 C 45 % 1013,1 hPa 0,0 l/m 0,4 km/h (0 Bft) N-NW 333 2 min 0,000 mm 0,0 UV-I 97 W/m 13,2 C 26,1 C 1,6 km/h (1 Bft) 100,00 %
15.06.2017 19:54 26,1 C 26,1 C 48 % 1013,1 hPa 0,0 l/m 2,9 km/h (1 Bft) N 355 2 min 0,000 mm 0,0 UV-I 94 W/m 14,2 C 26,1 C 4,8 km/h (1 Bft) 97,56 %
15.06.2017 19:56 26,0 C 26,1 C 47 % 1013,1 hPa 0,0 l/m 2,1 km/h (1 Bft) N 355 2 min 0,000 mm 0,0 UV-I 91 W/m 13,8 C 26,0 C 3,2 km/h (1 Bft) 92,00 %
15.06.2017 19:58 26,0 C 26,1 C 46 % 1013,0 hPa 0,0 l/m 1,5 km/h (1 Bft) N 355 2 min 0,000 mm 0,0 UV-I 87 W/m 13,5 C 26,0 C 3,2 km/h (1 Bft) 98,11 %
15.06.2017 20:00 26,0 C 26,1 C 46 % 1013,0 hPa 0,0 l/m 0,0 km/h (0 Bft) N 355 2 min 0,101 mm 0,0 UV-I 85 W/m 13,5 C 26,0 C 1,6 km/h (1 Bft) 98,00 %
15.06.2017 20:02 26,0 C 26,1 C 46 % 1013,0 hPa 0,0 l/m 1,5 km/h (1 Bft) N 355 2 min 0,000 mm 0,0 UV-I 83 W/m 13,5 C 26,0 C 3,2 km/h (1 Bft) 100,00 %
15.06.2017 20:04 25,9 C 26,1 C 49 % 1013,0 hPa 0,0 l/m 2,2 km/h (1 Bft) N 355 2 min 0,000 mm 0,0 UV-I 79 W/m 14,4 C 25,9 C 3,2 km/h (1 Bft) 97,87 %
15.06.2017 20:06 25,8 C 26,1 C 48 % 1013,0 hPa 0,0 l/m 2,0 km/h (1 Bft) N 355 2 min 0,000 mm 0,0 UV-I 76 W/m 13,9 C 25,8 C 3,2 km/h (1 Bft) 100,00 %
15.06.2017 20:08 25,8 C 26,1 C 47 % 1012,9 hPa 0,0 l/m 2,1 km/h (1 Bft) N 355 2 min 0,000 mm 0,0 UV-I 72 W/m 13,6 C 25,8 C 3,2 km/h (1 Bft) 100,00 %
15.06.2017 20:10 25,7 C 26,1 C 48 % 1012,9 hPa 0,0 l/m 2,8 km/h (1 Bft) N 355 2 min 0,000 mm 0,0 UV-I 68 W/m 13,9 C 25,7 C 4,8 km/h (1 Bft) 97,37 %
15.06.2017 20:12 25,7 C 26,1 C 48 % 1012,9 hPa 0,0 l/m 3,1 km/h (1 Bft) N 355 2 min 0,000 mm 0,0 UV-I 64 W/m 13,9 C 25,7 C 4,8 km/h (1 Bft) 98,00 %
15.06.2017 20:14 25,6 C 26,1 C 49 % 1012,9 hPa 0,0 l/m 3,2 km/h (1 Bft) N 5 0 min 0,000 mm 0,0 UV-I 60 W/m 14,1 C 25,6 C 4,8 km/h (1 Bft) 97,87 %
15.06.2017 20:16 25,5 C 26,1 C 46 % 1012,9 hPa 0,0 l/m 2,0 km/h (1 Bft) N 5 0 min 0,000 mm 0,0 UV-I 57 W/m 13,0 C 25,5 C 3,2 km/h (1 Bft) 98,00 %
15.06.2017 20:18 25,5 C 26,1 C 48 % 1013,0 hPa 0,0 l/m 2,7 km/h (1 Bft) N 5 0 min 0,000 mm 0,0 UV-I 54 W/m 13,7 C 25,5 C 4,8 km/h (1 Bft) 100,00 %
15.06.2017 20:20 25,3 C 26,1 C 49 % 1013,0 hPa 0,0 l/m 1,7 km/h (1 Bft) N 5 2 min 0,000 mm 0,0 UV-I 52 W/m 13,8 C 25,3 C 3,2 km/h (1 Bft) 100,00 %
15.06.2017 20:22 25,2 C 26,1 C 49 % 1012,9 hPa 0,0 l/m 3,4 km/h (1 Bft) N-NO 32 0 min 0,000 mm 0,0 UV-I 45 W/m 13,7 C 25,2 C 6,4 km/h (2 Bft) 92,73 %
15.06.2017 20:24 25,1 C 26,1 C 48 % 1013,0 hPa 0,0 l/m 3,5 km/h (1 Bft) NO 43 0 min 0,000 mm 0,0 UV-I 41 W/m 13,3 C 25,1 C 6,4 km/h (2 Bft) 100,00 %
15.06.2017 20:26 25,0 C 26,1 C 47 % 1013,0 hPa 0,0 l/m 1,6 km/h (1 Bft) NO 43 0 min 0,000 mm 0,0 UV-I 43 W/m 12,9 C 25,0 C 3,2 km/h (1 Bft) 94,00 %
15.06.2017 20:29 25,0 C 26,1 C 46 % 1013,0 hPa 0,0 l/m 1,3 km/h (1 Bft) NO 43 0 min 0,000 mm 0,0 UV-I 38 W/m 12,6 C 25,0 C 3,2 km/h (1 Bft) 97,26 %
15.06.2017 20:30 25,0 C 26,1 C 46 % 1013,0 hPa 0,0 l/m 1,1 km/h (1 Bft) NO 43 0 min 0,000 mm 0,0 UV-I 33 W/m 12,6 C 25,0 C 1,6 km/h (1 Bft) 93,33 %
15.06.2017 20:32 24,8 C 26,1 C 50 % 1013,0 hPa 0,0 l/m 0,2 km/h (0 Bft) NO 43 0 min 0,000 mm 0,0 UV-I 30 W/m 13,7 C 24,8 C 1,6 km/h (1 Bft) 96,00 %
15.06.2017 20:34 24,6 C 26,1 C 50 % 1013,0 hPa 0,0 l/m 0,0 km/h (0 Bft) NO 43 0 min 0,000 mm 0,0 UV-I 27 W/m 13,5 C 24,6 C 0,0 km/h (0 Bft) 95,74 %
15.06.2017 20:36 24,4 C 26,1 C 51 % 1013,0 hPa 0,0 l/m 0,0 km/h (0 Bft) NO 43 0 min 0,000 mm 0,0 UV-I 28 W/m 13,6 C 24,4 C 0,0 km/h (0 Bft) 94,00 %
15.06.2017 20:39 24,1 C 26,1 C 52 % 1013,0 hPa 0,0 l/m 0,0 km/h (0 Bft) NO 43 0 min 0,000 mm 0,0 UV-I 24 W/m 13,6 C 24,1 C 0,0 km/h (0 Bft) 94,29 %
15.06.2017 20:40 24,1 C 26,1 C 52 % 1013,0 hPa 0,0 l/m 0,0 km/h (0 Bft) NO 43 0 min 0,000 mm 0,0 UV-I 19 W/m 13,6 C 24,1 C 0,0 km/h (0 Bft) 100,00 %
15.06.2017 20:42 23,9 C 26,1 C 51 % 1013,0 hPa 0,0 l/m 0,0 km/h (0 Bft) NO 43 0 min 0,000 mm 0,0 UV-I 18 W/m 13,1 C 23,9 C 1,6 km/h (1 Bft) 94,00 %
15.06.2017 20:44 23,8 C 26,1 C 52 % 1013,0 hPa 0,0 l/m 0,0 km/h (0 Bft) NO 43 0 min 0,000 mm 0,0 UV-I 17 W/m 13,3 C 23,8 C 0,0 km/h (0 Bft) 94,00 %
15.06.2017 20:46 23,7 C 26,1 C 52 % 1013,0 hPa 0,0 l/m 0,0 km/h (0 Bft) NO 43 0 min 0,000 mm 0,0 UV-I 14 W/m 13,2 C 23,7 C 0,0 km/h (0 Bft) 98,00 %
15.06.2017 20:48 23,6 C 26,1 C 53 % 1013,1 hPa 0,0 l/m 0,0 km/h (0 Bft) NO 43 0 min 0,000 mm 0,0 UV-I 12 W/m 13,4 C 23,6 C 0,0 km/h (0 Bft) 98,00 %
15.06.2017 20:50 23,5 C 26,1 C 53 % 1013,1 hPa 0,0 l/m 0,0 km/h (0 Bft) NO 43 0 min 0,000 mm 0,0 UV-I 11 W/m 13,4 C 23,5 C 0,0 km/h (0 Bft) 95,74 %
15.06.2017 20:52 23,4 C 26,1 C 54 % 1013,1 hPa 0,0 l/m 0,0 km/h (0 Bft) NO 43 2 min 0,000 mm 0,0 UV-I 11 W/m 13,6 C 23,4 C 0,0 km/h (0 Bft) 94,29 %
15.06.2017 20:54 23,3 C 26,1 C 57 % 1013,1 hPa 0,0 l/m 0,0 km/h (0 Bft) NO 43 0 min 0,000 mm 0,0 UV-I 10 W/m 14,3 C 23,3 C 0,0 km/h (0 Bft) 98,21 %
15.06.2017 20:56 23,2 C 26,1 C 57 % 1013,1 hPa 0,0 l/m 0,0 km/h (0 Bft) NO 43 0 min 0,000 mm 0,0 UV-I 9 W/m 14,2 C 23,2 C 0,0 km/h (0 Bft) 95,74 %
15.06.2017 20:58 22,9 C 26,1 C 57 % 1013,1 hPa 0,0 l/m 0,0 km/h (0 Bft) NO 43 0 min 0,000 mm 0,0 UV-I 9 W/m 13,9 C 22,9 C 0,0 km/h (0 Bft) 98,00 %
15.06.2017 21:00 22,7 C 26,1 C 59 % 1013,1 hPa 0,0 l/m 0,0 km/h (0 Bft) NO 43 0 min 0,000 mm 0,0 UV-I 7 W/m 14,3 C 22,7 C 0,0 km/h (0 Bft) 100,00 %
15.06.2017 21:02 22,3 C 26,1 C 60 % 1013,1 hPa 0,0 l/m 0,1 km/h (0 Bft) NO 43 0 min 0,051 mm 0,0 UV-I 7 W/m 14,2 C 22,3 C 1,6 km/h (1 Bft) 97,87 %
15.06.2017 21:04 22,1 C 26,1 C 59 % 1013,1 hPa 0,0 l/m 0,2 km/h (0 Bft) NO 43 0 min 0,000 mm 0,0 UV-I 7 W/m 13,7 C 22,1 C 1,6 km/h (1 Bft) 98,00 %
15.06.2017 21:06 21,9 C 26,1 C 59 % 1013,1 hPa 0,0 l/m 0,1 km/h (0 Bft) NO 43 0 min 0,000 mm 0,0 UV-I 6 W/m 13,5 C 21,9 C 1,6 km/h (1 Bft) 100,00 %
15.06.2017 21:08 21,9 C 26,1 C 59 % 1013,1 hPa 0,0 l/m 0,5 km/h (0 Bft) NO 43 0 min 0,000 mm 0,0 UV-I 5 W/m 13,5 C 21,9 C 1,6 km/h (1 Bft) 96,61 %
15.06.2017 21:10 21,9 C 26,1 C 60 % 1013,2 hPa 0,0 l/m 0,5 km/h (0 Bft) NO 43 0 min 0,000 mm 0,0 UV-I 5 W/m 13,8 C 21,9 C 1,6 km/h (1 Bft) 97,73 %
15.06.2017 21:12 21,8 C 26,1 C 60 % 1013,2 hPa 0,0 l/m 0,0 km/h (0 Bft) NO 43 0 min 0,000 mm 0,0 UV-I 5 W/m 13,7 C 21,8 C 0,0 km/h (0 Bft) 100,00 %
15.06.2017 21:14 21,8 C 26,1 C 60 % 1013,2 hPa 0,0 l/m 0,0 km/h (0 Bft) NO 43 0 min 0,000 mm 0,0 UV-I 5 W/m 13,7 C 21,8 C 1,6 km/h (1 Bft) 96,00 %
15.06.2017 21:16 21,7 C 26,1 C 60 % 1013,1 hPa 0,0 l/m 0,0 km/h (0 Bft) NO 43 0 min 0,000 mm 0,0 UV-I 5 W/m 13,6 C 21,7 C 1,6 km/h (1 Bft) 95,74 %
15.06.2017 21:18 21,5 C 26,1 C 60 % 1013,2 hPa 0,0 l/m 0,0 km/h (0 Bft) NO 43 0 min 0,000 mm 0,0 UV-I 4 W/m 13,4 C 21,5 C 0,0 km/h (0 Bft) 100,00 %
15.06.2017 21:20 21,4 C 26,1 C 60 % 1013,2 hPa 0,0 l/m 0,0 km/h (0 Bft) NO 43 0 min 0,000 mm 0,0 UV-I 0 W/m 13,3 C 21,4 C 1,6 km/h (1 Bft) 96,00 %
15.06.2017 21:22 21,3 C 26,1 C 60 % 1013,2 hPa 0,0 l/m 0,0 km/h (0 Bft) NO 43 0 min 0,000 mm 0,0 UV-I 0 W/m 13,2 C 21,3 C 0,0 km/h (0 Bft) 100,00 %
15.06.2017 21:24 21,2 C 26,1 C 61 % 1013,2 hPa 0,0 l/m 0,0 km/h (0 Bft) NO 43 0 min 0,000 mm 0,0 UV-I 0 W/m 13,4 C 21,2 C 0,0 km/h (0 Bft) 98,11 %
15.06.2017 21:26 21,2 C 26,1 C 60 % 1013,1 hPa 0,0 l/m 0,0 km/h (0 Bft) NO 43 0 min 0,000 mm 0,0 UV-I 0 W/m 13,1 C 21,2 C 0,0 km/h (0 Bft) 97,87 %
15.06.2017 21:28 21,2 C 26,1 C 60 % 1013,1 hPa 0,0 l/m 0,0 km/h (0 Bft) NO 43 0 min 0,000 mm 0,0 UV-I 0 W/m 13,1 C 21,2 C 0,0 km/h (0 Bft) 96,00 %
15.06.2017 21:30 21,2 C 26,1 C 60 % 1013,1 hPa 0,0 l/m 0,2 km/h (0 Bft) NO 43 0 min 0,000 mm 0,0 UV-I 0 W/m 13,1 C 21,2 C 1,6 km/h (1 Bft) 98,00 %
15.06.2017 21:32 21,2 C 26,1 C 59 % 1013,1 hPa 0,0 l/m 0,7 km/h (0 Bft) NO 43 0 min 0,000 mm 0,0 UV-I 0 W/m 12,9 C 21,2 C 1,6 km/h (1 Bft) 95,74 %
15.06.2017 21:34 21,3 C 26,1 C 59 % 1013,1 hPa 0,0 l/m 0,0 km/h (0 Bft) NO 43 0 min 0,000 mm 0,0 UV-I 0 W/m 13,0 C 21,3 C 1,6 km/h (1 Bft) 100,00 %
15.06.2017 21:36 21,3 C 26,1 C 61 % 1013,1 hPa 0,0 l/m 0,0 km/h (0 Bft) NO 43 0 min 0,000 mm 0,0 UV-I 0 W/m 13,5 C 21,3 C 0,0 km/h (0 Bft) 97,87 %
15.06.2017 21:38 21,3 C 26,1 C 60 % 1013,1 hPa 0,0 l/m 0,0 km/h (0 Bft) NO 43 0 min 0,000 mm 0,0 UV-I 0 W/m 13,2 C 21,3 C 0,0 km/h (0 Bft) 100,00 %
15.06.2017 21:40 21,3 C 26,1 C 60 % 1013,1 hPa 0,0 l/m 0,3 km/h (0 Bft) NO 43 0 min 0,000 mm 0,0 UV-I 0 W/m 13,2 C 21,3 C 1,6 km/h (1 Bft) 97,96 %
15.06.2017 21:42 21,3 C 26,1 C 59 % 1013,1 hPa 0,0 l/m 0,0 km/h (0 Bft) NO 43 0 min 0,000 mm 0,0 UV-I 0 W/m 13,0 C 21,3 C 0,0 km/h (0 Bft) 97,92 %
15.06.2017 21:44 21,2 C 26,1 C 59 % 1013,1 hPa 0,0 l/m 0,0 km/h (0 Bft) NO 43 0 min 0,000 mm 0,0 UV-I 0 W/m 12,9 C 21,2 C 1,6 km/h (1 Bft) 100,00 %
15.06.2017 21:46 21,2 C 26,1 C 59 % 1013,1 hPa 0,0 l/m 0,2 km/h (0 Bft) NO 43 0 min 0,000 mm 0,0 UV-I 0 W/m 12,9 C 21,2 C 1,6 km/h (1 Bft) 100,00 %
15.06.2017 21:48 21,1 C 25,6 C 59 % 1013,1 hPa 0,0 l/m 0,7 km/h (0 Bft) NO 43 0 min 0,000 mm 0,0 UV-I 0 W/m 12,8 C 21,1 C 1,6 km/h (1 Bft) 100,00 %
15.06.2017 21:50 21,1 C 25,6 C 59 % 1013,1 hPa 0,0 l/m 0,1 km/h (0 Bft) NO 43 0 min 0,000 mm 0,0 UV-I 0 W/m 12,8 C 21,1 C 1,6 km/h (1 Bft) 100,00 %
15.06.2017 21:52 21,1 C 26,1 C 59 % 1013,1 hPa 0,0 l/m 0,3 km/h (0 Bft) NO 43 0 min 0,000 mm 0,0 UV-I 0 W/m 12,8 C 21,1 C 1,6 km/h (1 Bft) 98,00 %
15.06.2017 21:54 21,1 C 26,1 C 59 % 1013,0 hPa 0,0 l/m 0,0 km/h (0 Bft) NO 43 0 min 0,000 mm 0,0 UV-I 0 W/m 12,8 C 21,1 C 1,6 km/h (1 Bft) 96,00 %
15.06.2017 21:56 21,0 C 26,1 C 60 % 1013,1 hPa 0,0 l/m 0,1 km/h (0 Bft) NO 43 0 min 0,000 mm 0,0 UV-I 0 W/m 12,9 C 21,0 C 1,6 km/h (1 Bft) 94,74 %
15.06.2017 21:58 20,9 C 25,6 C 61 % 1013,1 hPa 0,0 l/m 2,6 km/h (1 Bft) NO 43 0 min 0,000 mm 0,0 UV-I 0 W/m 13,1 C 20,9 C 3,2 km/h (1 Bft) 100,00 %
15.06.2017 22:00 20,8 C 25,6 C 61 % 1013,1 hPa 0,0 l/m 3,4 km/h (1 Bft) NO 43 0 min 0,000 mm 0,0 UV-I 0 W/m 13,0 C 20,8 C 4,8 km/h (1 Bft) 100,00 %
15.06.2017 22:02 20,8 C 25,6 C 59 % 1013,1 hPa 0,0 l/m 3,2 km/h (1 Bft) NO 43 0 min 0,026 mm 0,0 UV-I 0 W/m 12,5 C 20,8 C 4,8 km/h (1 Bft) 100,00 %
15.06.2017 22:04 20,7 C 25,6 C 60 % 1013,1 hPa 0,0 l/m 3,3 km/h (1 Bft) NO 43 0 min 0,000 mm 0,0 UV-I 0 W/m 12,7 C 20,7 C 4,8 km/h (1 Bft) 93,62 %
15.06.2017 22:06 20,6 C 25,6 C 60 % 1013,1 hPa 0,0 l/m 1,5 km/h (1 Bft) NO 43 0 min 0,000 mm 0,0 UV-I 0 W/m 12,6 C 20,6 C 3,2 km/h (1 Bft) 98,00 %
15.06.2017 22:08 20,4 C 25,6 C 60 % 1013,1 hPa 0,0 l/m 0,0 km/h (0 Bft) NO 43 0 min 0,000 mm 0,0 UV-I 0 W/m 12,4 C 20,4 C 0,0 km/h (0 Bft) 97,87 %
15.06.2017 22:10 20,4 C 25,6 C 61 % 1013,0 hPa 0,0 l/m 0,5 km/h (0 Bft) NO 43 0 min 0,000 mm 0,0 UV-I 0 W/m 12,6 C 20,4 C 1,6 km/h (1 Bft) 97,87 %
15.06.2017 22:12 20,3 C 25,6 C 61 % 1013,0 hPa 0,0 l/m 1,3 km/h (1 Bft) NO 43 0 min 0,000 mm 0,0 UV-I 0 W/m 12,5 C 20,3 C 3,2 km/h (1 Bft) 96,00 %
15.06.2017 22:14 20,3 C 25,6 C 62 % 1013,0 hPa 0,0 l/m 1,5 km/h (1 Bft) NO 43 0 min 0,000 mm 0,0 UV-I 0 W/m 12,8 C 20,3 C 3,2 km/h (1 Bft) 97,87 %
15.06.2017 22:16 20,3 C 25,6 C 62 % 1013,0 hPa 0,0 l/m 1,5 km/h (1 Bft) NO 43 0 min 0,000 mm 0,0 UV-I 0 W/m 12,8 C 20,3 C 3,2 km/h (1 Bft) 95,74 %
15.06.2017 22:19 20,3 C 25,6 C 62 % 1013,0 hPa 0,0 l/m 0,5 km/h (0 Bft) NO 43 0 min 0,000 mm 0,0 UV-I 0 W/m 12,8 C 20,3 C 1,6 km/h (1 Bft) 91,18 %
15.06.2017 22:20 20,3 C 25,6 C 62 % 1013,0 hPa 0,0 l/m 0,8 km/h (0 Bft) NO 43 0 min 0,000 mm 0,0 UV-I 0 W/m 12,8 C 20,3 C 1,6 km/h (1 Bft) 100,00 %
15.06.2017 22:22 20,3 C 25,6 C 61 % 1013,0 hPa 0,0 l/m 0,6 km/h (0 Bft) NO 43 0 min 0,000 mm 0,0 UV-I 0 W/m 12,5 C 20,3 C 1,6 km/h (1 Bft) 95,83 %
15.06.2017 22:24 20,4 C 25,6 C 61 % 1012,9 hPa 0,0 l/m 0,3 km/h (0 Bft) NO 43 0 min 0,000 mm 0,0 UV-I 0 W/m 12,6 C 20,4 C 1,6 km/h (1 Bft) 93,62 %
15.06.2017 22:26 20,4 C 25,6 C 60 % 1012,9 hPa 0,0 l/m 0,2 km/h (0 Bft) NO 43 0 min 0,000 mm 0,0 UV-I 0 W/m 12,4 C 20,4 C 1,6 km/h (1 Bft) 92,00 %
15.06.2017 22:28 20,4 C 25,6 C 60 % 1012,9 hPa 0,0 l/m 0,7 km/h (0 Bft) NO 43 0 min 0,000 mm 0,0 UV-I 0 W/m 12,4 C 20,4 C 1,6 km/h (1 Bft) 92,11 %
15.06.2017 22:30 20,4 C 25,6 C 60 % 1012,9 hPa 0,0 l/m 1,5 km/h (1 Bft) NO 43 0 min 0,000 mm 0,0 UV-I 0 W/m 12,4 C 20,4 C 3,2 km/h (1 Bft) 93,62 %
15.06.2017 22:33 20,4 C 25,6 C 62 % 1012,9 hPa 0,0 l/m 1,6 km/h (1 Bft) NO 43 0 min 0,000 mm 0,0 UV-I 0 W/m 12,9 C 20,4 C 3,2 km/h (1 Bft) 92,50 %
15.06.2017 22:34 20,3 C 25,6 C 62 % 1012,9 hPa 0,0 l/m 0,3 km/h (0 Bft) NO 43 0 min 0,000 mm 0,0 UV-I 0 W/m 12,8 C 20,3 C 1,6 km/h (1 Bft) 100,00 %
15.06.2017 22:36 20,2 C 25,6 C 62 % 1012,9 hPa 0,0 l/m 0,9 km/h (0 Bft) NO 43 0 min 0,000 mm 0,0 UV-I 0 W/m 12,7 C 20,2 C 3,2 km/h (1 Bft) 98,00 %
15.06.2017 22:38 20,2 C 25,6 C 63 % 1012,9 hPa 0,0 l/m 1,8 km/h (1 Bft) NO 43 0 min 0,000 mm 0,0 UV-I 0 W/m 12,9 C 20,2 C 3,2 km/h (1 Bft) 94,34 %
15.06.2017 22:40 20,1 C 25,6 C 63 % 1012,9 hPa 0,0 l/m 0,4 km/h (0 Bft) NO 43 0 min 0,000 mm 0,0 UV-I 0 W/m 12,8 C 20,1 C 1,6 km/h (1 Bft) 92,11 %
15.06.2017 22:43 20,0 C 25,6 C 62 % 1012,9 hPa 0,0 l/m 2,7 km/h (1 Bft) NO 43 0 min 0,000 mm 0,0 UV-I 0 W/m 12,5 C 20,0 C 4,8 km/h (1 Bft) 93,24 %
15.06.2017 22:44 20,0 C 25,6 C 63 % 1012,9 hPa 0,0 l/m 3,0 km/h (1 Bft) NO 43 0 min 0,000 mm 0,0 UV-I 0 W/m 12,7 C 20,0 C 4,8 km/h (1 Bft) 93,10 %
15.06.2017 22:46 19,9 C 25,6 C 63 % 1012,9 hPa 0,0 l/m 2,7 km/h (1 Bft) O 79 0 min 0,000 mm 0,0 UV-I 0 W/m 12,6 C 19,9 C 3,2 km/h (1 Bft) 97,37 %
15.06.2017 22:48 19,9 C 25,6 C 62 % 1012,9 hPa 0,0 l/m 2,4 km/h (1 Bft) SO 128 0 min 0,000 mm 0,0 UV-I 0 W/m 12,4 C 19,9 C 4,8 km/h (1 Bft) 92,45 %
15.06.2017 22:50 20,1 C 25,6 C 62 % 1012,8 hPa 0,0 l/m 1,6 km/h (1 Bft) SO 135 0 min 0,000 mm 0,0 UV-I 0 W/m 12,6 C 20,1 C 3,2 km/h (1 Bft) 95,74 %
15.06.2017 22:52 20,3 C 25,6 C 62 % 1012,8 hPa 0,0 l/m 2,6 km/h (1 Bft) SO 140 0 min 0,000 mm 0,0 UV-I 0 W/m 12,8 C 20,3 C 4,8 km/h (1 Bft) 95,12 %
15.06.2017 22:54 20,3 C 25,6 C 62 % 1012,8 hPa 0,0 l/m 0,4 km/h (0 Bft) SO 140 0 min 0,000 mm 0,0 UV-I 0 W/m 12,8 C 20,3 C 3,2 km/h (1 Bft) 96,23 %
15.06.2017 22:56 20,2 C 25,6 C 63 % 1012,8 hPa 0,0 l/m 1,0 km/h (0 Bft) SO 140 0 min 0,000 mm 0,0 UV-I 0 W/m 12,9 C 20,2 C 3,2 km/h (1 Bft) 96,00 %
15.06.2017 22:58 20,1 C 25,6 C 63 % 1012,7 hPa 0,0 l/m 1,1 km/h (1 Bft) SO 140 0 min 0,000 mm 0,0 UV-I 0 W/m 12,8 C 20,1 C 1,6 km/h (1 Bft) 97,56 %
15.06.2017 23:00 20,1 C 25,6 C 62 % 1012,8 hPa 0,0 l/m 2,2 km/h (1 Bft) SO 140 0 min 0,000 mm 0,0 UV-I 0 W/m 12,6 C 20,1 C 3,2 km/h (1 Bft) 94,00 %
15.06.2017 23:02 20,1 C 25,6 C 63 % 1012,7 hPa 0,0 l/m 2,8 km/h (1 Bft) SO 140 0 min 0,025 mm 0,0 UV-I 0 W/m 12,8 C 20,1 C 4,8 km/h (1 Bft) 94,00 %
15.06.2017 23:04 20,0 C 25,6 C 63 % 1012,7 hPa 0,0 l/m 3,1 km/h (1 Bft) SO 140 0 min 0,000 mm 0,0 UV-I 0 W/m 12,7 C 20,0 C 4,8 km/h (1 Bft) 97,22 %
15.06.2017 23:06 20,0 C 25,6 C 62 % 1012,8 hPa 0,0 l/m 3,0 km/h (1 Bft) SO 140 0 min 0,000 mm 0,0 UV-I 0 W/m 12,5 C 20,0 C 4,8 km/h (1 Bft) 96,23 %
15.06.2017 23:08 19,9 C 25,6 C 64 % 1012,8 hPa 0,0 l/m 3,4 km/h (1 Bft) SO 140 0 min 0,000 mm 0,0 UV-I 0 W/m 12,9 C 19,9 C 4,8 km/h (1 Bft) 95,74 %
15.06.2017 23:10 19,8 C 25,6 C 64 % 1012,8 hPa 0,0 l/m 4,1 km/h (1 Bft) SO 140 0 min 0,000 mm 0,0 UV-I 0 W/m 12,8 C 19,8 C 4,8 km/h (1 Bft) 97,37 %
15.06.2017 23:12 19,8 C 25,6 C 65 % 1012,8 hPa 0,0 l/m 4,4 km/h (1 Bft) SO 140 0 min 0,000 mm 0,0 UV-I 0 W/m 13,0 C 19,8 C 6,4 km/h (2 Bft) 94,00 %
15.06.2017 23:14 19,8 C 25,6 C 65 % 1012,8 hPa 0,0 l/m 4,2 km/h (1 Bft) SO 140 0 min 0,000 mm 0,0 UV-I 0 W/m 13,0 C 19,8 C 4,8 km/h (1 Bft) 100,00 %
15.06.2017 23:16 19,8 C 25,6 C 65 % 1012,8 hPa 0,0 l/m 4,6 km/h (1 Bft) SO 140 0 min 0,000 mm 0,0 UV-I 0 W/m 13,0 C 19,8 C 4,8 km/h (1 Bft) 98,11 %
15.06.2017 23:18 19,8 C 25,6 C 64 % 1012,8 hPa 0,0 l/m 3,4 km/h (1 Bft) SO 140 0 min 0,000 mm 0,0 UV-I 0 W/m 12,8 C 19,8 C 4,8 km/h (1 Bft) 94,74 %
15.06.2017 23:20 19,8 C 25,6 C 65 % 1012,7 hPa 0,0 l/m 2,2 km/h (1 Bft) SO 140 0 min 0,000 mm 0,0 UV-I 0 W/m 13,0 C 19,8 C 3,2 km/h (1 Bft) 100,00 %
15.06.2017 23:22 19,7 C 25,6 C 65 % 1012,7 hPa 0,0 l/m 2,4 km/h (1 Bft) SO 140 0 min 0,000 mm 0,0 UV-I 0 W/m 12,9 C 19,7 C 3,2 km/h (1 Bft) 97,37 %
15.06.2017 23:24 19,7 C 25,6 C 65 % 1012,7 hPa 0,0 l/m 1,8 km/h (1 Bft) SO 140 0 min 0,000 mm 0,0 UV-I 0 W/m 12,9 C 19,7 C 3,2 km/h (1 Bft) 100,00 %
15.06.2017 23:26 19,8 C 25,6 C 64 % 1012,7 hPa 0,0 l/m 2,9 km/h (1 Bft) SO 140 0 min 0,000 mm 0,0 UV-I 0 W/m 12,8 C 19,8 C 4,8 km/h (1 Bft) 96,00 %
15.06.2017 23:28 19,8 C 25,6 C 65 % 1012,7 hPa 0,0 l/m 3,4 km/h (1 Bft) SO 140 0 min 0,000 mm 0,0 UV-I 0 W/m 13,0 C 19,8 C 6,4 km/h (2 Bft) 94,29 %
15.06.2017 23:30 19,9 C 25,6 C 65 % 1012,8 hPa 0,0 l/m 4,9 km/h (1 Bft) S-SO 152 0 min 0,000 mm 0,0 UV-I 0 W/m 13,1 C 19,9 C 6,4 km/h (2 Bft) 100,00 %
15.06.2017 23:32 19,8 C 25,6 C 65 % 1012,8 hPa 0,0 l/m 5,3 km/h (1 Bft) S-SO 163 0 min 0,000 mm 0,0 UV-I 0 W/m 13,0 C 19,8 C 8,0 km/h (2 Bft) 100,00 %
15.06.2017 23:34 19,8 C 25,6 C 65 % 1012,8 hPa 0,0 l/m 5,9 km/h (2 Bft) S-SO 165 0 min 0,000 mm 0,0 UV-I 0 W/m 13,0 C 19,8 C 8,0 km/h (2 Bft) 98,11 %
15.06.2017 23:36 19,7 C 25,6 C 66 % 1012,8 hPa 0,0 l/m 3,4 km/h (1 Bft) S-SO 165 0 min 0,000 mm 0,0 UV-I 0 W/m 13,2 C 19,7 C 6,4 km/h (2 Bft) 100,00 %
15.06.2017 23:38 19,6 C 25,6 C 67 % 1012,8 hPa 0,0 l/m 4,9 km/h (1 Bft) S 169 0 min 0,000 mm 0,0 UV-I 0 W/m 13,3 C 19,6 C 8,0 km/h (2 Bft) 100,00 %
15.06.2017 23:40 19,4 C 25,6 C 67 % 1012,8 hPa 0,0 l/m 5,6 km/h (1 Bft) S 172 0 min 0,000 mm 0,0 UV-I 0 W/m 13,1 C 19,4 C 8,0 km/h (2 Bft) 100,00 %
15.06.2017 23:42 19,3 C 25,6 C 68 % 1012,8 hPa 0,0 l/m 4,5 km/h (1 Bft) S 176 0 min 0,000 mm 0,0 UV-I 0 W/m 13,2 C 19,3 C 8,0 km/h (2 Bft) 95,74 %
15.06.2017 23:44 19,3 C 25,6 C 67 % 1012,8 hPa 0,0 l/m 4,6 km/h (1 Bft) S-SW 199 0 min 0,000 mm 0,0 UV-I 0 W/m 13,0 C 19,3 C 8,0 km/h (2 Bft) 100,00 %
15.06.2017 23:46 19,3 C 25,6 C 67 % 1012,7 hPa 0,0 l/m 5,8 km/h (2 Bft) S-SW 200 0 min 0,000 mm 0,0 UV-I 0 W/m 13,0 C 19,3 C 9,7 km/h (2 Bft) 98,00 %
15.06.2017 23:48 19,3 C 25,6 C 67 % 1012,7 hPa 0,0 l/m 4,7 km/h (1 Bft) S-SW 202 0 min 0,000 mm 0,0 UV-I 0 W/m 13,0 C 19,3 C 6,4 km/h (2 Bft) 97,56 %
15.06.2017 23:50 19,4 C 25,6 C 67 % 1012,7 hPa 0,0 l/m 4,1 km/h (1 Bft) S-SW 196 0 min 0,000 mm 0,0 UV-I 0 W/m 13,1 C 19,4 C 6,4 km/h (2 Bft) 98,11 %
15.06.2017 23:52 19,4 C 25,6 C 67 % 1012,6 hPa 0,0 l/m 3,7 km/h (1 Bft) S-SW 196 0 min 0,000 mm 0,0 UV-I 0 W/m 13,1 C 19,4 C 6,4 km/h (2 Bft) 97,87 %
15.06.2017 23:54 19,4 C 25,6 C 67 % 1012,6 hPa 0,0 l/m 2,7 km/h (1 Bft) S-SW 195 0 min 0,000 mm 0,0 UV-I 0 W/m 13,1 C 19,4 C 4,8 km/h (1 Bft) 100,00 %
15.06.2017 23:56 19,5 C 25,6 C 66 % 1012,6 hPa 0,0 l/m 3,9 km/h (1 Bft) S-SW 195 0 min 0,000 mm 0,0 UV-I 0 W/m 13,0 C 19,5 C 6,4 km/h (2 Bft) 100,00 %
15.06.2017 23:58 19,5 C 25,6 C 66 % 1012,6 hPa 0,0 l/m 4,2 km/h (1 Bft) S-SW 196 0 min 0,000 mm 0,0 UV-I 0 W/m 13,0 C 19,5 C 6,4 km/h (2 Bft) 98,00 %
_ Min-Zeit 05:36 06:32 14:42 23:52 - 04:28 - - - - - - 14:42 05:36 04:28 19:04
Minimum _ 12,4 C 23,3 C 30 % 1012,6 hPa - 0,0 km/h (0 Bft) - - - - - - 8,3 C 12,4 C 0,0 km/h (0 Bft) 86,11 %
_ Max-Zeit 17:28 14:08 05:38 08:46 00:00 08:56 - - 12:03 13:00 13:10 13:02 19:48 17:28 08:34 00:00
Maximum _ 28,6 C 26,7 C 82 % 1016,4 hPa 0,0 l/m 15,6 km/h
O-NO (3 Bft)
- - 3 min 0,635 mm 7,0 UV-I 927 W/m 14,5 C 28,6 C 22,5 km/h
O-NO (4 Bft)
100,00 %
Durchschnitt _ 21,2 C 24,9 C 56 % 1014,7 hPa #0,0 l/m 4,3 km/h (1 Bft) O-NO - #14:50 h #5,969 mm 3,8 UV-I 501 W/m 11,5 C 21,0 C 7,5 km/h (2 Bft) 96,69 %